<?xml version="1.0" encoding="UTF-8" standalone="no" ?>
<gpx xmlns="http://www.topografix.com/GPX/1/1" xmlns:xsi="http://www.w3.org/2001/XMLSchema-instance" xsi:schemaLocation="http://www.topografix.com/GPX/1/1 http://www.topografix.com/GPX/1/1/gpx.xsd" version="1.1" creator="VisuGPX - https://www.visugpx.com">
  <metadata>
    <name>J2 - Bassies</name>
  </metadata>
  <trk>
    <name><![CDATA[Route from Refuge de Bassiès to Aire de l'Artigue départ du Montcalm]]></name>
    <extensions>
      <line xmlns="http://www.topografix.com/GPX/gpx_style/0/2">
        <color>0000FF</color>
        <width>4</width>
      </line>
    </extensions>
    <trkseg>
      <trkpt lat="42.76519" lon="1.41345">
        <ele>1650</ele>
        <time>2025-06-12T09:34:07.000Z</time>
      </trkpt>
      <trkpt lat="42.7652" lon="1.41341">
        <ele>1650</ele>
        <time>2025-06-12T09:34:10.233Z</time>
      </trkpt>
      <trkpt lat="42.76521" lon="1.41329">
        <ele>1652</ele>
        <time>2025-06-12T09:34:29.084Z</time>
      </trkpt>
      <trkpt lat="42.76519" lon="1.41318">
        <ele>1653</ele>
        <time>2025-06-12T09:34:41.522Z</time>
      </trkpt>
      <trkpt lat="42.76514" lon="1.41314">
        <ele>1652</ele>
        <time>2025-06-12T09:34:45.966Z</time>
      </trkpt>
      <trkpt lat="42.76512" lon="1.41309">
        <ele>1652</ele>
        <time>2025-06-12T09:34:50.446Z</time>
      </trkpt>
      <trkpt lat="42.76512" lon="1.41303">
        <ele>1653</ele>
        <time>2025-06-12T09:34:59.854Z</time>
      </trkpt>
      <trkpt lat="42.76507" lon="1.41298">
        <ele>1652</ele>
        <time>2025-06-12T09:35:04.940Z</time>
      </trkpt>
      <trkpt lat="42.76501" lon="1.41294">
        <ele>1651</ele>
        <time>2025-06-12T09:35:10.432Z</time>
      </trkpt>
      <trkpt lat="42.76497" lon="1.41295">
        <ele>1651</ele>
        <time>2025-06-12T09:35:14.219Z</time>
      </trkpt>
      <trkpt lat="42.76492" lon="1.41296">
        <ele>1650</ele>
        <time>2025-06-12T09:35:18.692Z</time>
      </trkpt>
      <trkpt lat="42.76482" lon="1.41289">
        <ele>1649</ele>
        <time>2025-06-12T09:35:28.093Z</time>
      </trkpt>
      <trkpt lat="42.76478" lon="1.41285">
        <ele>1649</ele>
        <time>2025-06-12T09:35:32.682Z</time>
      </trkpt>
      <trkpt lat="42.76475" lon="1.41275">
        <ele>1649</ele>
        <time>2025-06-12T09:35:40.285Z</time>
      </trkpt>
      <trkpt lat="42.76474" lon="1.41261">
        <ele>1651</ele>
        <time>2025-06-12T09:35:59.766Z</time>
      </trkpt>
      <trkpt lat="42.76474" lon="1.4125">
        <ele>1652</ele>
        <time>2025-06-12T09:36:11.324Z</time>
      </trkpt>
      <trkpt lat="42.76473" lon="1.41239">
        <ele>1655</ele>
        <time>2025-06-12T09:36:41.748Z</time>
      </trkpt>
      <trkpt lat="42.76471" lon="1.4123">
        <ele>1656</ele>
        <time>2025-06-12T09:36:52.109Z</time>
      </trkpt>
      <trkpt lat="42.76463" lon="1.41222">
        <ele>1658</ele>
        <time>2025-06-12T09:37:11.113Z</time>
      </trkpt>
      <trkpt lat="42.76457" lon="1.41221">
        <ele>1659</ele>
        <time>2025-06-12T09:37:21.822Z</time>
      </trkpt>
      <trkpt lat="42.76451" lon="1.41221">
        <ele>1659</ele>
        <time>2025-06-12T09:37:27.498Z</time>
      </trkpt>
      <trkpt lat="42.76441" lon="1.41221">
        <ele>1660</ele>
        <time>2025-06-12T09:37:40.715Z</time>
      </trkpt>
      <trkpt lat="42.76436" lon="1.41217">
        <ele>1661</ele>
        <time>2025-06-12T09:37:50.477Z</time>
      </trkpt>
      <trkpt lat="42.76426" lon="1.41208">
        <ele>1662</ele>
        <time>2025-06-12T09:38:05.972Z</time>
      </trkpt>
      <trkpt lat="42.76422" lon="1.412">
        <ele>1662</ele>
        <time>2025-06-12T09:38:12.780Z</time>
      </trkpt>
      <trkpt lat="42.76417" lon="1.4119">
        <ele>1663</ele>
        <time>2025-06-12T09:38:25.211Z</time>
      </trkpt>
      <trkpt lat="42.76413" lon="1.41185">
        <ele>1663</ele>
        <time>2025-06-12T09:38:30.602Z</time>
      </trkpt>
      <trkpt lat="42.76409" lon="1.41178">
        <ele>1663</ele>
        <time>2025-06-12T09:38:36.394Z</time>
      </trkpt>
      <trkpt lat="42.76405" lon="1.41165">
        <ele>1663</ele>
        <time>2025-06-12T09:38:46.625Z</time>
      </trkpt>
      <trkpt lat="42.76403" lon="1.41156">
        <ele>1663</ele>
        <time>2025-06-12T09:38:53.207Z</time>
      </trkpt>
      <trkpt lat="42.764" lon="1.41146">
        <ele>1664</ele>
        <time>2025-06-12T09:39:04.545Z</time>
      </trkpt>
      <trkpt lat="42.76395" lon="1.41135">
        <ele>1665</ele>
        <time>2025-06-12T09:39:17.162Z</time>
      </trkpt>
      <trkpt lat="42.76392" lon="1.41124">
        <ele>1667</ele>
        <time>2025-06-12T09:39:36.196Z</time>
      </trkpt>
      <trkpt lat="42.76388" lon="1.41119">
        <ele>1668</ele>
        <time>2025-06-12T09:39:45.881Z</time>
      </trkpt>
      <trkpt lat="42.76383" lon="1.41114">
        <ele>1669</ele>
        <time>2025-06-12T09:39:56.084Z</time>
      </trkpt>
      <trkpt lat="42.76378" lon="1.41107">
        <ele>1670</ele>
        <time>2025-06-12T09:40:06.587Z</time>
      </trkpt>
      <trkpt lat="42.76375" lon="1.41099">
        <ele>1672</ele>
        <time>2025-06-12T09:40:25.740Z</time>
      </trkpt>
      <trkpt lat="42.76371" lon="1.41089">
        <ele>1674</ele>
        <time>2025-06-12T09:40:44.548Z</time>
      </trkpt>
      <trkpt lat="42.7637" lon="1.41086">
        <ele>1674</ele>
        <time>2025-06-12T09:40:47.142Z</time>
      </trkpt>
      <trkpt lat="42.76371" lon="1.41081">
        <ele>1675</ele>
        <time>2025-06-12T09:40:56.821Z</time>
      </trkpt>
      <trkpt lat="42.7637" lon="1.41079">
        <ele>1675</ele>
        <time>2025-06-12T09:40:58.871Z</time>
      </trkpt>
      <trkpt lat="42.76366" lon="1.41075">
        <ele>1676</ele>
        <time>2025-06-12T09:41:08.400Z</time>
      </trkpt>
      <trkpt lat="42.76364" lon="1.41071">
        <ele>1676</ele>
        <time>2025-06-12T09:41:12.480Z</time>
      </trkpt>
      <trkpt lat="42.76356" lon="1.41065">
        <ele>1677</ele>
        <time>2025-06-12T09:41:24.753Z</time>
      </trkpt>
      <trkpt lat="42.76349" lon="1.41063">
        <ele>1677</ele>
        <time>2025-06-12T09:41:31.855Z</time>
      </trkpt>
      <trkpt lat="42.76341" lon="1.41063">
        <ele>1677</ele>
        <time>2025-06-12T09:41:38.872Z</time>
      </trkpt>
      <trkpt lat="42.76335" lon="1.41064">
        <ele>1677</ele>
        <time>2025-06-12T09:41:44.645Z</time>
      </trkpt>
      <trkpt lat="42.7633" lon="1.41064">
        <ele>1677</ele>
        <time>2025-06-12T09:41:50.293Z</time>
      </trkpt>
      <trkpt lat="42.76323" lon="1.41065">
        <ele>1678</ele>
        <time>2025-06-12T09:42:00.878Z</time>
      </trkpt>
      <trkpt lat="42.76316" lon="1.41062">
        <ele>1679</ele>
        <time>2025-06-12T09:42:11.824Z</time>
      </trkpt>
      <trkpt lat="42.7631" lon="1.41054">
        <ele>1680</ele>
        <time>2025-06-12T09:42:23.770Z</time>
      </trkpt>
      <trkpt lat="42.76306" lon="1.41046">
        <ele>1681</ele>
        <time>2025-06-12T09:42:34.516Z</time>
      </trkpt>
      <trkpt lat="42.76304" lon="1.41036">
        <ele>1681</ele>
        <time>2025-06-12T09:42:42.276Z</time>
      </trkpt>
      <trkpt lat="42.76299" lon="1.41034">
        <ele>1682</ele>
        <time>2025-06-12T09:42:52.110Z</time>
      </trkpt>
      <trkpt lat="42.76295" lon="1.4103">
        <ele>1682</ele>
        <time>2025-06-12T09:42:57.224Z</time>
      </trkpt>
      <trkpt lat="42.76289" lon="1.41028">
        <ele>1682</ele>
        <time>2025-06-12T09:43:02.453Z</time>
      </trkpt>
      <trkpt lat="42.76284" lon="1.41024">
        <ele>1682</ele>
        <time>2025-06-12T09:43:08.351Z</time>
      </trkpt>
      <trkpt lat="42.76275" lon="1.41018">
        <ele>1682</ele>
        <time>2025-06-12T09:43:18.294Z</time>
      </trkpt>
      <trkpt lat="42.76265" lon="1.41008">
        <ele>1682</ele>
        <time>2025-06-12T09:43:30.051Z</time>
      </trkpt>
      <trkpt lat="42.76257" lon="1.41003">
        <ele>1682</ele>
        <time>2025-06-12T09:43:38.222Z</time>
      </trkpt>
      <trkpt lat="42.76252" lon="1.41001">
        <ele>1681</ele>
        <time>2025-06-12T09:43:42.883Z</time>
      </trkpt>
      <trkpt lat="42.76246" lon="1.40998">
        <ele>1681</ele>
        <time>2025-06-12T09:43:48.932Z</time>
      </trkpt>
      <trkpt lat="42.76239" lon="1.40992">
        <ele>1681</ele>
        <time>2025-06-12T09:43:56.835Z</time>
      </trkpt>
      <trkpt lat="42.76236" lon="1.40985">
        <ele>1681</ele>
        <time>2025-06-12T09:44:02.454Z</time>
      </trkpt>
      <trkpt lat="42.76234" lon="1.40973">
        <ele>1682</ele>
        <time>2025-06-12T09:44:15.282Z</time>
      </trkpt>
      <trkpt lat="42.76231" lon="1.40962">
        <ele>1683</ele>
        <time>2025-06-12T09:44:27.118Z</time>
      </trkpt>
      <trkpt lat="42.76228" lon="1.40954">
        <ele>1683</ele>
        <time>2025-06-12T09:44:33.690Z</time>
      </trkpt>
      <trkpt lat="42.76225" lon="1.40947">
        <ele>1684</ele>
        <time>2025-06-12T09:44:43.767Z</time>
      </trkpt>
      <trkpt lat="42.76221" lon="1.40939">
        <ele>1685</ele>
        <time>2025-06-12T09:44:54.302Z</time>
      </trkpt>
      <trkpt lat="42.76216" lon="1.40938">
        <ele>1684</ele>
        <time>2025-06-12T09:44:58.796Z</time>
      </trkpt>
      <trkpt lat="42.76213" lon="1.40935">
        <ele>1684</ele>
        <time>2025-06-12T09:45:02.564Z</time>
      </trkpt>
      <trkpt lat="42.76208" lon="1.4093">
        <ele>1685</ele>
        <time>2025-06-12T09:45:12.824Z</time>
      </trkpt>
      <trkpt lat="42.76204" lon="1.40923">
        <ele>1685</ele>
        <time>2025-06-12T09:45:19.114Z</time>
      </trkpt>
      <trkpt lat="42.76199" lon="1.40914">
        <ele>1686</ele>
        <time>2025-06-12T09:45:30.769Z</time>
      </trkpt>
      <trkpt lat="42.76196" lon="1.40906">
        <ele>1686</ele>
        <time>2025-06-12T09:45:37.085Z</time>
      </trkpt>
      <trkpt lat="42.76194" lon="1.40898">
        <ele>1687</ele>
        <time>2025-06-12T09:45:47.566Z</time>
      </trkpt>
      <trkpt lat="42.76191" lon="1.40893">
        <ele>1687</ele>
        <time>2025-06-12T09:45:52.046Z</time>
      </trkpt>
      <trkpt lat="42.76186" lon="1.40889">
        <ele>1687</ele>
        <time>2025-06-12T09:45:57.715Z</time>
      </trkpt>
      <trkpt lat="42.76182" lon="1.40887">
        <ele>1687</ele>
        <time>2025-06-12T09:46:01.748Z</time>
      </trkpt>
      <trkpt lat="42.76174" lon="1.40885">
        <ele>1686</ele>
        <time>2025-06-12T09:46:08.468Z</time>
      </trkpt>
      <trkpt lat="42.76165" lon="1.40887">
        <ele>1686</ele>
        <time>2025-06-12T09:46:16.808Z</time>
      </trkpt>
      <trkpt lat="42.76157" lon="1.40887">
        <ele>1686</ele>
        <time>2025-06-12T09:46:24.371Z</time>
      </trkpt>
      <trkpt lat="42.7615" lon="1.40888">
        <ele>1686</ele>
        <time>2025-06-12T09:46:31.286Z</time>
      </trkpt>
      <trkpt lat="42.76148" lon="1.40891">
        <ele>1686</ele>
        <time>2025-06-12T09:46:34.416Z</time>
      </trkpt>
      <trkpt lat="42.76144" lon="1.40892">
        <ele>1686</ele>
        <time>2025-06-12T09:46:38.297Z</time>
      </trkpt>
      <trkpt lat="42.76138" lon="1.40888">
        <ele>1687</ele>
        <time>2025-06-12T09:46:48.406Z</time>
      </trkpt>
      <trkpt lat="42.76133" lon="1.40879">
        <ele>1689</ele>
        <time>2025-06-12T09:47:07.230Z</time>
      </trkpt>
      <trkpt lat="42.76125" lon="1.40869">
        <ele>1690</ele>
        <time>2025-06-12T09:47:21.115Z</time>
      </trkpt>
      <trkpt lat="42.76116" lon="1.40859">
        <ele>1691</ele>
        <time>2025-06-12T09:47:35.922Z</time>
      </trkpt>
      <trkpt lat="42.76103" lon="1.40858">
        <ele>1692</ele>
        <time>2025-06-12T09:47:51.482Z</time>
      </trkpt>
      <trkpt lat="42.76099" lon="1.4086">
        <ele>1692</ele>
        <time>2025-06-12T09:47:56.365Z</time>
      </trkpt>
      <trkpt lat="42.76093" lon="1.40865">
        <ele>1693</ele>
        <time>2025-06-12T09:48:07.011Z</time>
      </trkpt>
      <trkpt lat="42.76091" lon="1.40868">
        <ele>1693</ele>
        <time>2025-06-12T09:48:09.707Z</time>
      </trkpt>
      <trkpt lat="42.76091" lon="1.40871">
        <ele>1693</ele>
        <time>2025-06-12T09:48:12.324Z</time>
      </trkpt>
      <trkpt lat="42.76084" lon="1.40869">
        <ele>1693</ele>
        <time>2025-06-12T09:48:19.426Z</time>
      </trkpt>
      <trkpt lat="42.76079" lon="1.40869">
        <ele>1694</ele>
        <time>2025-06-12T09:48:29.138Z</time>
      </trkpt>
      <trkpt lat="42.76076" lon="1.40868">
        <ele>1694</ele>
        <time>2025-06-12T09:48:32.541Z</time>
      </trkpt>
      <trkpt lat="42.7607" lon="1.40864">
        <ele>1694</ele>
        <time>2025-06-12T09:48:38.179Z</time>
      </trkpt>
      <trkpt lat="42.76065" lon="1.40863">
        <ele>1694</ele>
        <time>2025-06-12T09:48:43.301Z</time>
      </trkpt>
      <trkpt lat="42.7606" lon="1.40859">
        <ele>1695</ele>
        <time>2025-06-12T09:48:53.617Z</time>
      </trkpt>
      <trkpt lat="42.76039" lon="1.40842">
        <ele>1695</ele>
        <time>2025-06-12T09:49:16.187Z</time>
      </trkpt>
      <trkpt lat="42.76036" lon="1.40842">
        <ele>1695</ele>
        <time>2025-06-12T09:49:19.442Z</time>
      </trkpt>
      <trkpt lat="42.76032" lon="1.4084">
        <ele>1696</ele>
        <time>2025-06-12T09:49:28.873Z</time>
      </trkpt>
      <trkpt lat="42.76031" lon="1.40836">
        <ele>1696</ele>
        <time>2025-06-12T09:49:31.692Z</time>
      </trkpt>
      <trkpt lat="42.76023" lon="1.40837">
        <ele>1696</ele>
        <time>2025-06-12T09:49:39.281Z</time>
      </trkpt>
      <trkpt lat="42.76022" lon="1.40833">
        <ele>1696</ele>
        <time>2025-06-12T09:49:41.899Z</time>
      </trkpt>
      <trkpt lat="42.76019" lon="1.40831">
        <ele>1696</ele>
        <time>2025-06-12T09:49:45.502Z</time>
      </trkpt>
      <trkpt lat="42.76013" lon="1.40829">
        <ele>1696</ele>
        <time>2025-06-12T09:49:51.399Z</time>
      </trkpt>
      <trkpt lat="42.76009" lon="1.40829">
        <ele>1696</ele>
        <time>2025-06-12T09:49:55.228Z</time>
      </trkpt>
      <trkpt lat="42.76007" lon="1.40828">
        <ele>1697</ele>
        <time>2025-06-12T09:50:05.223Z</time>
      </trkpt>
      <trkpt lat="42.76004" lon="1.40826">
        <ele>1697</ele>
        <time>2025-06-12T09:50:08.715Z</time>
      </trkpt>
      <trkpt lat="42.76001" lon="1.40826">
        <ele>1697</ele>
        <time>2025-06-12T09:50:11.204Z</time>
      </trkpt>
      <trkpt lat="42.75998" lon="1.40826">
        <ele>1697</ele>
        <time>2025-06-12T09:50:13.693Z</time>
      </trkpt>
      <trkpt lat="42.75996" lon="1.40825">
        <ele>1697</ele>
        <time>2025-06-12T09:50:16.372Z</time>
      </trkpt>
      <trkpt lat="42.75993" lon="1.40826">
        <ele>1698</ele>
        <time>2025-06-12T09:50:26.804Z</time>
      </trkpt>
      <trkpt lat="42.75991" lon="1.40824">
        <ele>1698</ele>
        <time>2025-06-12T09:50:29.934Z</time>
      </trkpt>
      <trkpt lat="42.75983" lon="1.40821">
        <ele>1699</ele>
        <time>2025-06-12T09:50:41.205Z</time>
      </trkpt>
      <trkpt lat="42.75983" lon="1.40822">
        <ele>1699</ele>
        <time>2025-06-12T09:50:42.060Z</time>
      </trkpt>
      <trkpt lat="42.75981" lon="1.40824">
        <ele>1699</ele>
        <time>2025-06-12T09:50:44.355Z</time>
      </trkpt>
      <trkpt lat="42.75974" lon="1.40824">
        <ele>1700</ele>
        <time>2025-06-12T09:50:54.911Z</time>
      </trkpt>
      <trkpt lat="42.75967" lon="1.40822">
        <ele>1701</ele>
        <time>2025-06-12T09:51:05.561Z</time>
      </trkpt>
      <trkpt lat="42.75965" lon="1.4082">
        <ele>1702</ele>
        <time>2025-06-12T09:51:15.524Z</time>
      </trkpt>
      <trkpt lat="42.75962" lon="1.40819">
        <ele>1702</ele>
        <time>2025-06-12T09:51:18.639Z</time>
      </trkpt>
      <trkpt lat="42.75958" lon="1.4082">
        <ele>1703</ele>
        <time>2025-06-12T09:51:28.267Z</time>
      </trkpt>
      <trkpt lat="42.75955" lon="1.40817">
        <ele>1703</ele>
        <time>2025-06-12T09:51:31.953Z</time>
      </trkpt>
      <trkpt lat="42.7595" lon="1.40808">
        <ele>1703</ele>
        <time>2025-06-12T09:51:40.062Z</time>
      </trkpt>
      <trkpt lat="42.75944" lon="1.40804">
        <ele>1704</ele>
        <time>2025-06-12T09:51:50.352Z</time>
      </trkpt>
      <trkpt lat="42.7594" lon="1.40799">
        <ele>1704</ele>
        <time>2025-06-12T09:51:55.363Z</time>
      </trkpt>
      <trkpt lat="42.75937" lon="1.40799">
        <ele>1705</ele>
        <time>2025-06-12T09:52:05.031Z</time>
      </trkpt>
      <trkpt lat="42.75933" lon="1.40798">
        <ele>1705</ele>
        <time>2025-06-12T09:52:08.951Z</time>
      </trkpt>
      <trkpt lat="42.75932" lon="1.40795">
        <ele>1705</ele>
        <time>2025-06-12T09:52:10.963Z</time>
      </trkpt>
      <trkpt lat="42.75929" lon="1.40789">
        <ele>1705</ele>
        <time>2025-06-12T09:52:15.901Z</time>
      </trkpt>
      <trkpt lat="42.75925" lon="1.40788">
        <ele>1705</ele>
        <time>2025-06-12T09:52:20.503Z</time>
      </trkpt>
      <trkpt lat="42.75919" lon="1.40784">
        <ele>1706</ele>
        <time>2025-06-12T09:52:30.966Z</time>
      </trkpt>
      <trkpt lat="42.75912" lon="1.40776">
        <ele>1706</ele>
        <time>2025-06-12T09:52:39.424Z</time>
      </trkpt>
      <trkpt lat="42.75905" lon="1.40769">
        <ele>1706</ele>
        <time>2025-06-12T09:52:47.475Z</time>
      </trkpt>
      <trkpt lat="42.75903" lon="1.40766">
        <ele>1706</ele>
        <time>2025-06-12T09:52:50.221Z</time>
      </trkpt>
      <trkpt lat="42.75901" lon="1.40763">
        <ele>1706</ele>
        <time>2025-06-12T09:52:52.916Z</time>
      </trkpt>
      <trkpt lat="42.75898" lon="1.40758">
        <ele>1705</ele>
        <time>2025-06-12T09:52:57.184Z</time>
      </trkpt>
      <trkpt lat="42.75896" lon="1.40758">
        <ele>1706</ele>
        <time>2025-06-12T09:53:07.738Z</time>
      </trkpt>
      <trkpt lat="42.75892" lon="1.40757">
        <ele>1706</ele>
        <time>2025-06-12T09:53:12.187Z</time>
      </trkpt>
      <trkpt lat="42.75882" lon="1.40753">
        <ele>1707</ele>
        <time>2025-06-12T09:53:25.281Z</time>
      </trkpt>
      <trkpt lat="42.75874" lon="1.40751">
        <ele>1708</ele>
        <time>2025-06-12T09:53:37.457Z</time>
      </trkpt>
      <trkpt lat="42.75869" lon="1.40751">
        <ele>1709</ele>
        <time>2025-06-12T09:53:46.939Z</time>
      </trkpt>
      <trkpt lat="42.75865" lon="1.40753">
        <ele>1710</ele>
        <time>2025-06-12T09:53:56.343Z</time>
      </trkpt>
      <trkpt lat="42.75861" lon="1.40746">
        <ele>1710</ele>
        <time>2025-06-12T09:54:02.656Z</time>
      </trkpt>
      <trkpt lat="42.75858" lon="1.40737">
        <ele>1710</ele>
        <time>2025-06-12T09:54:09.388Z</time>
      </trkpt>
      <trkpt lat="42.75855" lon="1.40736">
        <ele>1710</ele>
        <time>2025-06-12T09:54:12.266Z</time>
      </trkpt>
      <trkpt lat="42.75851" lon="1.40736">
        <ele>1712</ele>
        <time>2025-06-12T09:54:32.088Z</time>
      </trkpt>
      <trkpt lat="42.75849" lon="1.4074">
        <ele>1713</ele>
        <time>2025-06-12T09:54:41.542Z</time>
      </trkpt>
      <trkpt lat="42.75845" lon="1.40744">
        <ele>1714</ele>
        <time>2025-06-12T09:54:51.100Z</time>
      </trkpt>
      <trkpt lat="42.75843" lon="1.40741">
        <ele>1715</ele>
        <time>2025-06-12T09:55:01.336Z</time>
      </trkpt>
      <trkpt lat="42.7584" lon="1.4074">
        <ele>1716</ele>
        <time>2025-06-12T09:55:11.769Z</time>
      </trkpt>
      <trkpt lat="42.75836" lon="1.40732">
        <ele>1717</ele>
        <time>2025-06-12T09:55:22.692Z</time>
      </trkpt>
      <trkpt lat="42.75835" lon="1.40729">
        <ele>1717</ele>
        <time>2025-06-12T09:55:24.961Z</time>
      </trkpt>
      <trkpt lat="42.75832" lon="1.40728">
        <ele>1718</ele>
        <time>2025-06-12T09:55:35.429Z</time>
      </trkpt>
      <trkpt lat="42.75829" lon="1.40726">
        <ele>1719</ele>
        <time>2025-06-12T09:55:44.851Z</time>
      </trkpt>
      <trkpt lat="42.75828" lon="1.4072">
        <ele>1719</ele>
        <time>2025-06-12T09:55:48.876Z</time>
      </trkpt>
      <trkpt lat="42.75824" lon="1.40717">
        <ele>1720</ele>
        <time>2025-06-12T09:55:58.391Z</time>
      </trkpt>
      <trkpt lat="42.75823" lon="1.40714">
        <ele>1720</ele>
        <time>2025-06-12T09:56:00.404Z</time>
      </trkpt>
      <trkpt lat="42.75822" lon="1.40709">
        <ele>1719</ele>
        <time>2025-06-12T09:56:03.216Z</time>
      </trkpt>
      <trkpt lat="42.75818" lon="1.40704">
        <ele>1720</ele>
        <time>2025-06-12T09:56:13.114Z</time>
      </trkpt>
      <trkpt lat="42.75812" lon="1.40699">
        <ele>1721</ele>
        <time>2025-06-12T09:56:24.101Z</time>
      </trkpt>
      <trkpt lat="42.75811" lon="1.40693">
        <ele>1721</ele>
        <time>2025-06-12T09:56:28.060Z</time>
      </trkpt>
      <trkpt lat="42.75808" lon="1.40681">
        <ele>1721</ele>
        <time>2025-06-12T09:56:37.431Z</time>
      </trkpt>
      <trkpt lat="42.75803" lon="1.40672">
        <ele>1722</ele>
        <time>2025-06-12T09:56:49.132Z</time>
      </trkpt>
      <trkpt lat="42.75801" lon="1.40667">
        <ele>1723</ele>
        <time>2025-06-12T09:56:58.541Z</time>
      </trkpt>
      <trkpt lat="42.75797" lon="1.40662">
        <ele>1724</ele>
        <time>2025-06-12T09:57:08.468Z</time>
      </trkpt>
      <trkpt lat="42.75794" lon="1.4066">
        <ele>1725</ele>
        <time>2025-06-12T09:57:18.473Z</time>
      </trkpt>
      <trkpt lat="42.75793" lon="1.40657">
        <ele>1725</ele>
        <time>2025-06-12T09:57:20.455Z</time>
      </trkpt>
      <trkpt lat="42.7579" lon="1.40654">
        <ele>1726</ele>
        <time>2025-06-12T09:57:29.866Z</time>
      </trkpt>
      <trkpt lat="42.75791" lon="1.40652">
        <ele>1726</ele>
        <time>2025-06-12T09:57:31.592Z</time>
      </trkpt>
      <trkpt lat="42.75792" lon="1.4065">
        <ele>1726</ele>
        <time>2025-06-12T09:57:33.045Z</time>
      </trkpt>
      <trkpt lat="42.75791" lon="1.40646">
        <ele>1726</ele>
        <time>2025-06-12T09:57:36.191Z</time>
      </trkpt>
      <trkpt lat="42.75788" lon="1.40641">
        <ele>1727</ele>
        <time>2025-06-12T09:57:45.710Z</time>
      </trkpt>
      <trkpt lat="42.75787" lon="1.40638">
        <ele>1728</ele>
        <time>2025-06-12T09:57:56.691Z</time>
      </trkpt>
      <trkpt lat="42.75785" lon="1.40634">
        <ele>1728</ele>
        <time>2025-06-12T09:57:59.990Z</time>
      </trkpt>
      <trkpt lat="42.75783" lon="1.40632">
        <ele>1729</ele>
        <time>2025-06-12T09:58:09.913Z</time>
      </trkpt>
      <trkpt lat="42.7578" lon="1.40632">
        <ele>1730</ele>
        <time>2025-06-12T09:58:20.539Z</time>
      </trkpt>
      <trkpt lat="42.75779" lon="1.40629">
        <ele>1731</ele>
        <time>2025-06-12T09:58:31.520Z</time>
      </trkpt>
      <trkpt lat="42.75776" lon="1.40629">
        <ele>1731</ele>
        <time>2025-06-12T09:58:34.071Z</time>
      </trkpt>
      <trkpt lat="42.75774" lon="1.40626">
        <ele>1732</ele>
        <time>2025-06-12T09:58:44.226Z</time>
      </trkpt>
      <trkpt lat="42.7577" lon="1.40624">
        <ele>1734</ele>
        <time>2025-06-12T09:59:06.368Z</time>
      </trkpt>
      <trkpt lat="42.75766" lon="1.40621">
        <ele>1735</ele>
        <time>2025-06-12T09:59:15.790Z</time>
      </trkpt>
      <trkpt lat="42.75764" lon="1.40617">
        <ele>1736</ele>
        <time>2025-06-12T09:59:25.201Z</time>
      </trkpt>
      <trkpt lat="42.75763" lon="1.40612">
        <ele>1737</ele>
        <time>2025-06-12T09:59:34.605Z</time>
      </trkpt>
      <trkpt lat="42.75758" lon="1.40611">
        <ele>1738</ele>
        <time>2025-06-12T09:59:44.098Z</time>
      </trkpt>
      <trkpt lat="42.75756" lon="1.40607">
        <ele>1739</ele>
        <time>2025-06-12T09:59:53.712Z</time>
      </trkpt>
      <trkpt lat="42.75754" lon="1.40603">
        <ele>1740</ele>
        <time>2025-06-12T10:00:03.368Z</time>
      </trkpt>
      <trkpt lat="42.75752" lon="1.40604">
        <ele>1741</ele>
        <time>2025-06-12T10:00:13.478Z</time>
      </trkpt>
      <trkpt lat="42.75752" lon="1.40603">
        <ele>1741</ele>
        <time>2025-06-12T10:00:14.399Z</time>
      </trkpt>
      <trkpt lat="42.7575" lon="1.40603">
        <ele>1741</ele>
        <time>2025-06-12T10:00:15.644Z</time>
      </trkpt>
      <trkpt lat="42.75748" lon="1.40603">
        <ele>1742</ele>
        <time>2025-06-12T10:00:25.939Z</time>
      </trkpt>
      <trkpt lat="42.75746" lon="1.40601">
        <ele>1742</ele>
        <time>2025-06-12T10:00:27.714Z</time>
      </trkpt>
      <trkpt lat="42.75744" lon="1.40598">
        <ele>1743</ele>
        <time>2025-06-12T10:00:37.406Z</time>
      </trkpt>
      <trkpt lat="42.75741" lon="1.40595">
        <ele>1743</ele>
        <time>2025-06-12T10:00:41.055Z</time>
      </trkpt>
      <trkpt lat="42.75739" lon="1.40595">
        <ele>1744</ele>
        <time>2025-06-12T10:00:51.107Z</time>
      </trkpt>
      <trkpt lat="42.75735" lon="1.40593">
        <ele>1744</ele>
        <time>2025-06-12T10:00:55.380Z</time>
      </trkpt>
      <trkpt lat="42.75731" lon="1.40593">
        <ele>1745</ele>
        <time>2025-06-12T10:01:05.133Z</time>
      </trkpt>
      <trkpt lat="42.75722" lon="1.40593">
        <ele>1747</ele>
        <time>2025-06-12T10:01:24.126Z</time>
      </trkpt>
      <trkpt lat="42.75719" lon="1.40591">
        <ele>1747</ele>
        <time>2025-06-12T10:01:27.555Z</time>
      </trkpt>
      <trkpt lat="42.75715" lon="1.40589">
        <ele>1748</ele>
        <time>2025-06-12T10:01:37.080Z</time>
      </trkpt>
      <trkpt lat="42.75713" lon="1.40589">
        <ele>1748</ele>
        <time>2025-06-12T10:01:39.569Z</time>
      </trkpt>
      <trkpt lat="42.7571" lon="1.40587">
        <ele>1749</ele>
        <time>2025-06-12T10:01:49.068Z</time>
      </trkpt>
      <trkpt lat="42.75707" lon="1.40585">
        <ele>1749</ele>
        <time>2025-06-12T10:01:51.946Z</time>
      </trkpt>
      <trkpt lat="42.75705" lon="1.40586">
        <ele>1750</ele>
        <time>2025-06-12T10:02:02.183Z</time>
      </trkpt>
      <trkpt lat="42.75702" lon="1.40587">
        <ele>1750</ele>
        <time>2025-06-12T10:02:04.828Z</time>
      </trkpt>
      <trkpt lat="42.75698" lon="1.40587">
        <ele>1751</ele>
        <time>2025-06-12T10:02:14.243Z</time>
      </trkpt>
      <trkpt lat="42.75694" lon="1.40584">
        <ele>1751</ele>
        <time>2025-06-12T10:02:18.794Z</time>
      </trkpt>
      <trkpt lat="42.75688" lon="1.40582">
        <ele>1752</ele>
        <time>2025-06-12T10:02:29.454Z</time>
      </trkpt>
      <trkpt lat="42.75676" lon="1.4058">
        <ele>1754</ele>
        <time>2025-06-12T10:02:49.685Z</time>
      </trkpt>
      <trkpt lat="42.75673" lon="1.40582">
        <ele>1754</ele>
        <time>2025-06-12T10:02:52.533Z</time>
      </trkpt>
      <trkpt lat="42.75667" lon="1.40584">
        <ele>1756</ele>
        <time>2025-06-12T10:03:11.761Z</time>
      </trkpt>
      <trkpt lat="42.7566" lon="1.40583">
        <ele>1757</ele>
        <time>2025-06-12T10:03:22.341Z</time>
      </trkpt>
      <trkpt lat="42.75652" lon="1.40582">
        <ele>1759</ele>
        <time>2025-06-12T10:03:41.156Z</time>
      </trkpt>
      <trkpt lat="42.75647" lon="1.40577">
        <ele>1759</ele>
        <time>2025-06-12T10:03:47.098Z</time>
      </trkpt>
      <trkpt lat="42.75644" lon="1.40576">
        <ele>1759</ele>
        <time>2025-06-12T10:03:49.923Z</time>
      </trkpt>
      <trkpt lat="42.75641" lon="1.40576">
        <ele>1760</ele>
        <time>2025-06-12T10:03:59.590Z</time>
      </trkpt>
      <trkpt lat="42.75638" lon="1.40577">
        <ele>1760</ele>
        <time>2025-06-12T10:04:02.269Z</time>
      </trkpt>
      <trkpt lat="42.75633" lon="1.40578">
        <ele>1762</ele>
        <time>2025-06-12T10:04:23.236Z</time>
      </trkpt>
      <trkpt lat="42.7563" lon="1.40583">
        <ele>1764</ele>
        <time>2025-06-12T10:04:44.968Z</time>
      </trkpt>
      <trkpt lat="42.75628" lon="1.40587">
        <ele>1766</ele>
        <time>2025-06-12T10:05:05.810Z</time>
      </trkpt>
      <trkpt lat="42.75625" lon="1.40588">
        <ele>1767</ele>
        <time>2025-06-12T10:05:16.106Z</time>
      </trkpt>
      <trkpt lat="42.75621" lon="1.40588">
        <ele>1768</ele>
        <time>2025-06-12T10:05:25.520Z</time>
      </trkpt>
      <trkpt lat="42.75619" lon="1.40589">
        <ele>1769</ele>
        <time>2025-06-12T10:05:35.953Z</time>
      </trkpt>
      <trkpt lat="42.7561" lon="1.40577">
        <ele>1767</ele>
        <time>2025-06-12T10:05:46.135Z</time>
      </trkpt>
      <trkpt lat="42.75601" lon="1.4057">
        <ele>1766</ele>
        <time>2025-06-12T10:05:55.054Z</time>
      </trkpt>
      <trkpt lat="42.75595" lon="1.40561">
        <ele>1766</ele>
        <time>2025-06-12T10:06:03.546Z</time>
      </trkpt>
      <trkpt lat="42.75591" lon="1.40554">
        <ele>1766</ele>
        <time>2025-06-12T10:06:09.779Z</time>
      </trkpt>
      <trkpt lat="42.75586" lon="1.4055">
        <ele>1767</ele>
        <time>2025-06-12T10:06:19.908Z</time>
      </trkpt>
      <trkpt lat="42.7558" lon="1.40551">
        <ele>1768</ele>
        <time>2025-06-12T10:06:30.032Z</time>
      </trkpt>
      <trkpt lat="42.75571" lon="1.4055">
        <ele>1771</ele>
        <time>2025-06-12T10:07:00.336Z</time>
      </trkpt>
      <trkpt lat="42.75562" lon="1.40548">
        <ele>1774</ele>
        <time>2025-06-12T10:07:29.807Z</time>
      </trkpt>
      <trkpt lat="42.75552" lon="1.4055">
        <ele>1777</ele>
        <time>2025-06-12T10:07:58.825Z</time>
      </trkpt>
      <trkpt lat="42.75548" lon="1.40552">
        <ele>1779</ele>
        <time>2025-06-12T10:08:21.262Z</time>
      </trkpt>
      <trkpt lat="42.75544" lon="1.4055">
        <ele>1780</ele>
        <time>2025-06-12T10:08:30.692Z</time>
      </trkpt>
      <trkpt lat="42.75542" lon="1.40545">
        <ele>1780</ele>
        <time>2025-06-12T10:08:34.330Z</time>
      </trkpt>
      <trkpt lat="42.75539" lon="1.40545">
        <ele>1781</ele>
        <time>2025-06-12T10:08:43.997Z</time>
      </trkpt>
      <trkpt lat="42.75535" lon="1.40545">
        <ele>1782</ele>
        <time>2025-06-12T10:08:53.664Z</time>
      </trkpt>
      <trkpt lat="42.75531" lon="1.40546">
        <ele>1783</ele>
        <time>2025-06-12T10:09:03.068Z</time>
      </trkpt>
      <trkpt lat="42.75528" lon="1.40544">
        <ele>1784</ele>
        <time>2025-06-12T10:09:12.473Z</time>
      </trkpt>
      <trkpt lat="42.75524" lon="1.40543">
        <ele>1785</ele>
        <time>2025-06-12T10:09:22.031Z</time>
      </trkpt>
      <trkpt lat="42.75513" lon="1.40545">
        <ele>1788</ele>
        <time>2025-06-12T10:09:50.351Z</time>
      </trkpt>
      <trkpt lat="42.75507" lon="1.40547">
        <ele>1790</ele>
        <time>2025-06-12T10:10:10.255Z</time>
      </trkpt>
      <trkpt lat="42.75492" lon="1.40548">
        <ele>1794</ele>
        <time>2025-06-12T10:10:47.977Z</time>
      </trkpt>
      <trkpt lat="42.7548" lon="1.40545">
        <ele>1796</ele>
        <time>2025-06-12T10:11:08.332Z</time>
      </trkpt>
      <trkpt lat="42.75473" lon="1.40548">
        <ele>1798</ele>
        <time>2025-06-12T10:11:27.527Z</time>
      </trkpt>
      <trkpt lat="42.75469" lon="1.40543">
        <ele>1798</ele>
        <time>2025-06-12T10:11:32.539Z</time>
      </trkpt>
      <trkpt lat="42.75468" lon="1.40543">
        <ele>1798</ele>
        <time>2025-06-12T10:11:34.358Z</time>
      </trkpt>
      <trkpt lat="42.75465" lon="1.40543">
        <ele>1799</ele>
        <time>2025-06-12T10:11:44.912Z</time>
      </trkpt>
      <trkpt lat="42.75464" lon="1.40542">
        <ele>1799</ele>
        <time>2025-06-12T10:11:46.278Z</time>
      </trkpt>
      <trkpt lat="42.75462" lon="1.40541">
        <ele>1800</ele>
        <time>2025-06-12T10:11:56.710Z</time>
      </trkpt>
      <trkpt lat="42.75458" lon="1.40537">
        <ele>1800</ele>
        <time>2025-06-12T10:12:01.677Z</time>
      </trkpt>
      <trkpt lat="42.75454" lon="1.40529">
        <ele>1800</ele>
        <time>2025-06-12T10:12:08.485Z</time>
      </trkpt>
      <trkpt lat="42.75448" lon="1.40521">
        <ele>1800</ele>
        <time>2025-06-12T10:12:16.523Z</time>
      </trkpt>
      <trkpt lat="42.75445" lon="1.40517">
        <ele>1801</ele>
        <time>2025-06-12T10:12:25.978Z</time>
      </trkpt>
      <trkpt lat="42.7544" lon="1.40515">
        <ele>1802</ele>
        <time>2025-06-12T10:12:35.604Z</time>
      </trkpt>
      <trkpt lat="42.75437" lon="1.40515">
        <ele>1803</ele>
        <time>2025-06-12T10:12:45.272Z</time>
      </trkpt>
      <trkpt lat="42.75434" lon="1.40512">
        <ele>1803</ele>
        <time>2025-06-12T10:12:48.957Z</time>
      </trkpt>
      <trkpt lat="42.75431" lon="1.40508">
        <ele>1803</ele>
        <time>2025-06-12T10:12:53.005Z</time>
      </trkpt>
      <trkpt lat="42.75429" lon="1.40508">
        <ele>1804</ele>
        <time>2025-06-12T10:13:03.056Z</time>
      </trkpt>
      <trkpt lat="42.75428" lon="1.40507">
        <ele>1804</ele>
        <time>2025-06-12T10:13:03.978Z</time>
      </trkpt>
      <trkpt lat="42.75423" lon="1.40506">
        <ele>1805</ele>
        <time>2025-06-12T10:13:13.473Z</time>
      </trkpt>
      <trkpt lat="42.75419" lon="1.40506">
        <ele>1806</ele>
        <time>2025-06-12T10:13:22.955Z</time>
      </trkpt>
      <trkpt lat="42.75417" lon="1.40504">
        <ele>1806</ele>
        <time>2025-06-12T10:13:25.701Z</time>
      </trkpt>
      <trkpt lat="42.75414" lon="1.40502">
        <ele>1807</ele>
        <time>2025-06-12T10:13:35.832Z</time>
      </trkpt>
      <trkpt lat="42.75411" lon="1.40501">
        <ele>1807</ele>
        <time>2025-06-12T10:13:38.510Z</time>
      </trkpt>
      <trkpt lat="42.75407" lon="1.40499">
        <ele>1808</ele>
        <time>2025-06-12T10:13:47.914Z</time>
      </trkpt>
      <trkpt lat="42.75404" lon="1.405">
        <ele>1809</ele>
        <time>2025-06-12T10:13:57.533Z</time>
      </trkpt>
      <trkpt lat="42.75402" lon="1.40498">
        <ele>1809</ele>
        <time>2025-06-12T10:14:00.180Z</time>
      </trkpt>
      <trkpt lat="42.75399" lon="1.40497">
        <ele>1810</ele>
        <time>2025-06-12T10:14:09.789Z</time>
      </trkpt>
      <trkpt lat="42.75398" lon="1.40494">
        <ele>1810</ele>
        <time>2025-06-12T10:14:12.059Z</time>
      </trkpt>
      <trkpt lat="42.75396" lon="1.4049">
        <ele>1809</ele>
        <time>2025-06-12T10:14:14.526Z</time>
      </trkpt>
      <trkpt lat="42.75393" lon="1.40489">
        <ele>1810</ele>
        <time>2025-06-12T10:14:24.145Z</time>
      </trkpt>
      <trkpt lat="42.75388" lon="1.40488">
        <ele>1811</ele>
        <time>2025-06-12T10:14:33.989Z</time>
      </trkpt>
      <trkpt lat="42.75382" lon="1.40482">
        <ele>1811</ele>
        <time>2025-06-12T10:14:40.207Z</time>
      </trkpt>
      <trkpt lat="42.75378" lon="1.40483">
        <ele>1812</ele>
        <time>2025-06-12T10:14:49.611Z</time>
      </trkpt>
      <trkpt lat="42.75371" lon="1.40476">
        <ele>1813</ele>
        <time>2025-06-12T10:15:02.439Z</time>
      </trkpt>
      <trkpt lat="42.75362" lon="1.40469">
        <ele>1813</ele>
        <time>2025-06-12T10:15:12.140Z</time>
      </trkpt>
      <trkpt lat="42.75352" lon="1.40467">
        <ele>1815</ele>
        <time>2025-06-12T10:15:31.376Z</time>
      </trkpt>
      <trkpt lat="42.75345" lon="1.40467">
        <ele>1816</ele>
        <time>2025-06-12T10:15:42.444Z</time>
      </trkpt>
      <trkpt lat="42.75336" lon="1.40463">
        <ele>1818</ele>
        <time>2025-06-12T10:16:01.525Z</time>
      </trkpt>
      <trkpt lat="42.7533" lon="1.40455">
        <ele>1818</ele>
        <time>2025-06-12T10:16:09.151Z</time>
      </trkpt>
      <trkpt lat="42.75321" lon="1.40445">
        <ele>1818</ele>
        <time>2025-06-12T10:16:20.376Z</time>
      </trkpt>
      <trkpt lat="42.75313" lon="1.40437">
        <ele>1819</ele>
        <time>2025-06-12T10:16:33.567Z</time>
      </trkpt>
      <trkpt lat="42.75303" lon="1.40428">
        <ele>1819</ele>
        <time>2025-06-12T10:16:44.923Z</time>
      </trkpt>
      <trkpt lat="42.75297" lon="1.40418">
        <ele>1819</ele>
        <time>2025-06-12T10:16:53.940Z</time>
      </trkpt>
      <trkpt lat="42.7529" lon="1.4041">
        <ele>1820</ele>
        <time>2025-06-12T10:17:06.687Z</time>
      </trkpt>
      <trkpt lat="42.75282" lon="1.40404">
        <ele>1821</ele>
        <time>2025-06-12T10:17:19.325Z</time>
      </trkpt>
      <trkpt lat="42.75264" lon="1.40387">
        <ele>1822</ele>
        <time>2025-06-12T10:17:43.868Z</time>
      </trkpt>
      <trkpt lat="42.7526" lon="1.40382">
        <ele>1822</ele>
        <time>2025-06-12T10:17:48.388Z</time>
      </trkpt>
      <trkpt lat="42.75258" lon="1.4038">
        <ele>1823</ele>
        <time>2025-06-12T10:17:58.019Z</time>
      </trkpt>
      <trkpt lat="42.75252" lon="1.40383">
        <ele>1824</ele>
        <time>2025-06-12T10:18:08.074Z</time>
      </trkpt>
      <trkpt lat="42.75249" lon="1.40387">
        <ele>1824</ele>
        <time>2025-06-12T10:18:12.165Z</time>
      </trkpt>
      <trkpt lat="42.75246" lon="1.40385">
        <ele>1824</ele>
        <time>2025-06-12T10:18:15.075Z</time>
      </trkpt>
      <trkpt lat="42.75243" lon="1.40387">
        <ele>1825</ele>
        <time>2025-06-12T10:18:24.480Z</time>
      </trkpt>
      <trkpt lat="42.75239" lon="1.40386">
        <ele>1825</ele>
        <time>2025-06-12T10:18:27.716Z</time>
      </trkpt>
      <trkpt lat="42.75235" lon="1.40378">
        <ele>1825</ele>
        <time>2025-06-12T10:18:34.520Z</time>
      </trkpt>
      <trkpt lat="42.75232" lon="1.4037">
        <ele>1825</ele>
        <time>2025-06-12T10:18:41.047Z</time>
      </trkpt>
      <trkpt lat="42.7523" lon="1.40364">
        <ele>1825</ele>
        <time>2025-06-12T10:18:45.342Z</time>
      </trkpt>
      <trkpt lat="42.75227" lon="1.40357">
        <ele>1825</ele>
        <time>2025-06-12T10:18:51.198Z</time>
      </trkpt>
      <trkpt lat="42.75225" lon="1.40354">
        <ele>1826</ele>
        <time>2025-06-12T10:19:01.181Z</time>
      </trkpt>
      <trkpt lat="42.75225" lon="1.40347">
        <ele>1826</ele>
        <time>2025-06-12T10:19:05.646Z</time>
      </trkpt>
      <trkpt lat="42.75225" lon="1.40343">
        <ele>1826</ele>
        <time>2025-06-12T10:19:08.931Z</time>
      </trkpt>
      <trkpt lat="42.75225" lon="1.40338">
        <ele>1825</ele>
        <time>2025-06-12T10:19:11.637Z</time>
      </trkpt>
      <trkpt lat="42.75224" lon="1.40336">
        <ele>1826</ele>
        <time>2025-06-12T10:19:22.733Z</time>
      </trkpt>
      <trkpt lat="42.75221" lon="1.4033">
        <ele>1826</ele>
        <time>2025-06-12T10:19:27.213Z</time>
      </trkpt>
      <trkpt lat="42.75219" lon="1.40326">
        <ele>1826</ele>
        <time>2025-06-12T10:19:30.971Z</time>
      </trkpt>
      <trkpt lat="42.75216" lon="1.40322">
        <ele>1827</ele>
        <time>2025-06-12T10:19:40.382Z</time>
      </trkpt>
      <trkpt lat="42.75212" lon="1.40318">
        <ele>1827</ele>
        <time>2025-06-12T10:19:45.763Z</time>
      </trkpt>
      <trkpt lat="42.75209" lon="1.40314">
        <ele>1828</ele>
        <time>2025-06-12T10:19:55.189Z</time>
      </trkpt>
      <trkpt lat="42.75207" lon="1.40309">
        <ele>1828</ele>
        <time>2025-06-12T10:19:59.335Z</time>
      </trkpt>
      <trkpt lat="42.75206" lon="1.40305">
        <ele>1829</ele>
        <time>2025-06-12T10:20:09.588Z</time>
      </trkpt>
      <trkpt lat="42.75204" lon="1.40303">
        <ele>1829</ele>
        <time>2025-06-12T10:20:12.675Z</time>
      </trkpt>
      <trkpt lat="42.75202" lon="1.40301">
        <ele>1829</ele>
        <time>2025-06-12T10:20:14.970Z</time>
      </trkpt>
      <trkpt lat="42.752" lon="1.40301">
        <ele>1829</ele>
        <time>2025-06-12T10:20:16.885Z</time>
      </trkpt>
      <trkpt lat="42.75198" lon="1.40299">
        <ele>1830</ele>
        <time>2025-06-12T10:20:27.842Z</time>
      </trkpt>
      <trkpt lat="42.75195" lon="1.40299">
        <ele>1830</ele>
        <time>2025-06-12T10:20:30.331Z</time>
      </trkpt>
      <trkpt lat="42.75194" lon="1.40296">
        <ele>1830</ele>
        <time>2025-06-12T10:20:32.277Z</time>
      </trkpt>
      <trkpt lat="42.75192" lon="1.40294">
        <ele>1831</ele>
        <time>2025-06-12T10:20:42.631Z</time>
      </trkpt>
      <trkpt lat="42.75187" lon="1.4029">
        <ele>1831</ele>
        <time>2025-06-12T10:20:48.301Z</time>
      </trkpt>
      <trkpt lat="42.75183" lon="1.40286">
        <ele>1832</ele>
        <time>2025-06-12T10:20:57.830Z</time>
      </trkpt>
      <trkpt lat="42.75179" lon="1.40285">
        <ele>1833</ele>
        <time>2025-06-12T10:21:07.378Z</time>
      </trkpt>
      <trkpt lat="42.7517" lon="1.40279">
        <ele>1834</ele>
        <time>2025-06-12T10:21:20.210Z</time>
      </trkpt>
      <trkpt lat="42.75165" lon="1.40276">
        <ele>1835</ele>
        <time>2025-06-12T10:21:30.319Z</time>
      </trkpt>
      <trkpt lat="42.75161" lon="1.40273">
        <ele>1836</ele>
        <time>2025-06-12T10:21:39.741Z</time>
      </trkpt>
      <trkpt lat="42.75158" lon="1.40273">
        <ele>1836</ele>
        <time>2025-06-12T10:21:42.805Z</time>
      </trkpt>
      <trkpt lat="42.75154" lon="1.4027">
        <ele>1837</ele>
        <time>2025-06-12T10:21:52.253Z</time>
      </trkpt>
      <trkpt lat="42.75152" lon="1.40268">
        <ele>1838</ele>
        <time>2025-06-12T10:22:02.384Z</time>
      </trkpt>
      <trkpt lat="42.7515" lon="1.40266">
        <ele>1839</ele>
        <time>2025-06-12T10:22:13.353Z</time>
      </trkpt>
      <trkpt lat="42.75141" lon="1.4026">
        <ele>1841</ele>
        <time>2025-06-12T10:22:32.645Z</time>
      </trkpt>
      <trkpt lat="42.75128" lon="1.40256">
        <ele>1845</ele>
        <time>2025-06-12T10:23:11.554Z</time>
      </trkpt>
      <trkpt lat="42.75125" lon="1.40255">
        <ele>1845</ele>
        <time>2025-06-12T10:23:14.776Z</time>
      </trkpt>
      <trkpt lat="42.75123" lon="1.40258">
        <ele>1846</ele>
        <time>2025-06-12T10:23:24.505Z</time>
      </trkpt>
      <trkpt lat="42.75116" lon="1.4026">
        <ele>1847</ele>
        <time>2025-06-12T10:23:35.340Z</time>
      </trkpt>
      <trkpt lat="42.75114" lon="1.40263">
        <ele>1847</ele>
        <time>2025-06-12T10:23:37.969Z</time>
      </trkpt>
      <trkpt lat="42.75111" lon="1.40261">
        <ele>1848</ele>
        <time>2025-06-12T10:23:47.493Z</time>
      </trkpt>
      <trkpt lat="42.75109" lon="1.40265">
        <ele>1847</ele>
        <time>2025-06-12T10:23:49.999Z</time>
      </trkpt>
      <trkpt lat="42.75107" lon="1.40265">
        <ele>1848</ele>
        <time>2025-06-12T10:24:00.624Z</time>
      </trkpt>
      <trkpt lat="42.75103" lon="1.40263">
        <ele>1849</ele>
        <time>2025-06-12T10:24:10.124Z</time>
      </trkpt>
      <trkpt lat="42.751" lon="1.40262">
        <ele>1850</ele>
        <time>2025-06-12T10:24:19.753Z</time>
      </trkpt>
      <trkpt lat="42.75094" lon="1.40263">
        <ele>1851</ele>
        <time>2025-06-12T10:24:29.866Z</time>
      </trkpt>
      <trkpt lat="42.75092" lon="1.40265">
        <ele>1852</ele>
        <time>2025-06-12T10:24:40.823Z</time>
      </trkpt>
      <trkpt lat="42.75087" lon="1.40266">
        <ele>1854</ele>
        <time>2025-06-12T10:25:01.819Z</time>
      </trkpt>
      <trkpt lat="42.75086" lon="1.40267">
        <ele>1854</ele>
        <time>2025-06-12T10:25:03.215Z</time>
      </trkpt>
      <trkpt lat="42.75082" lon="1.40268">
        <ele>1855</ele>
        <time>2025-06-12T10:25:12.715Z</time>
      </trkpt>
      <trkpt lat="42.75078" lon="1.40268">
        <ele>1856</ele>
        <time>2025-06-12T10:25:22.197Z</time>
      </trkpt>
      <trkpt lat="42.75074" lon="1.40271">
        <ele>1857</ele>
        <time>2025-06-12T10:25:31.619Z</time>
      </trkpt>
      <trkpt lat="42.75069" lon="1.40277">
        <ele>1858</ele>
        <time>2025-06-12T10:25:42.489Z</time>
      </trkpt>
      <trkpt lat="42.75063" lon="1.40281">
        <ele>1860</ele>
        <time>2025-06-12T10:26:01.881Z</time>
      </trkpt>
      <trkpt lat="42.75058" lon="1.40282">
        <ele>1862</ele>
        <time>2025-06-12T10:26:23.051Z</time>
      </trkpt>
      <trkpt lat="42.75053" lon="1.40283">
        <ele>1864</ele>
        <time>2025-06-12T10:26:45.407Z</time>
      </trkpt>
      <trkpt lat="42.75051" lon="1.40282">
        <ele>1866</ele>
        <time>2025-06-12T10:26:58.986Z</time>
      </trkpt>
      <trkpt lat="42.75049" lon="1.4028">
        <ele>1867</ele>
        <time>2025-06-12T10:27:10.108Z</time>
      </trkpt>
      <trkpt lat="42.75046" lon="1.40278">
        <ele>1868</ele>
        <time>2025-06-12T10:27:20.031Z</time>
      </trkpt>
      <trkpt lat="42.75047" lon="1.40273">
        <ele>1869</ele>
        <time>2025-06-12T10:27:29.436Z</time>
      </trkpt>
      <trkpt lat="42.75047" lon="1.40263">
        <ele>1870</ele>
        <time>2025-06-12T10:27:40.507Z</time>
      </trkpt>
      <trkpt lat="42.75048" lon="1.40253">
        <ele>1872</ele>
        <time>2025-06-12T10:27:59.480Z</time>
      </trkpt>
      <trkpt lat="42.75049" lon="1.40241">
        <ele>1875</ele>
        <time>2025-06-12T10:28:29.920Z</time>
      </trkpt>
      <trkpt lat="42.75047" lon="1.40237">
        <ele>1876</ele>
        <time>2025-06-12T10:28:39.417Z</time>
      </trkpt>
      <trkpt lat="42.75043" lon="1.40233">
        <ele>1879</ele>
        <time>2025-06-12T10:29:06.081Z</time>
      </trkpt>
      <trkpt lat="42.75037" lon="1.40233">
        <ele>1882</ele>
        <time>2025-06-12T10:29:32.216Z</time>
      </trkpt>
      <trkpt lat="42.75033" lon="1.40238">
        <ele>1884</ele>
        <time>2025-06-12T10:29:52.511Z</time>
      </trkpt>
      <trkpt lat="42.75027" lon="1.40246">
        <ele>1885</ele>
        <time>2025-06-12T10:30:04.099Z</time>
      </trkpt>
      <trkpt lat="42.75024" lon="1.40251">
        <ele>1886</ele>
        <time>2025-06-12T10:30:13.968Z</time>
      </trkpt>
      <trkpt lat="42.7502" lon="1.40251">
        <ele>1888</ele>
        <time>2025-06-12T10:30:34.071Z</time>
      </trkpt>
      <trkpt lat="42.75016" lon="1.40253">
        <ele>1891</ele>
        <time>2025-06-12T10:30:54.888Z</time>
      </trkpt>
      <trkpt lat="42.75011" lon="1.40252">
        <ele>1894</ele>
        <time>2025-06-12T10:31:18.742Z</time>
      </trkpt>
      <trkpt lat="42.75006" lon="1.4025">
        <ele>1897</ele>
        <time>2025-06-12T10:31:43.917Z</time>
      </trkpt>
      <trkpt lat="42.75004" lon="1.4025">
        <ele>1899</ele>
        <time>2025-06-12T10:31:56.984Z</time>
      </trkpt>
      <trkpt lat="42.75" lon="1.40252">
        <ele>1901</ele>
        <time>2025-06-12T10:32:19.421Z</time>
      </trkpt>
      <trkpt lat="42.74996" lon="1.40258">
        <ele>1903</ele>
        <time>2025-06-12T10:32:40.097Z</time>
      </trkpt>
      <trkpt lat="42.74993" lon="1.40264">
        <ele>1904</ele>
        <time>2025-06-12T10:32:49.861Z</time>
      </trkpt>
      <trkpt lat="42.74989" lon="1.40265">
        <ele>1907</ele>
        <time>2025-06-12T10:33:10.300Z</time>
      </trkpt>
      <trkpt lat="42.74987" lon="1.40265">
        <ele>1908</ele>
        <time>2025-06-12T10:33:20.735Z</time>
      </trkpt>
      <trkpt lat="42.74983" lon="1.40267">
        <ele>1911</ele>
        <time>2025-06-12T10:33:41.315Z</time>
      </trkpt>
      <trkpt lat="42.7498" lon="1.40274">
        <ele>1912</ele>
        <time>2025-06-12T10:33:51.446Z</time>
      </trkpt>
      <trkpt lat="42.74979" lon="1.40283">
        <ele>1912</ele>
        <time>2025-06-12T10:33:57.809Z</time>
      </trkpt>
      <trkpt lat="42.74979" lon="1.40289">
        <ele>1913</ele>
        <time>2025-06-12T10:34:07.314Z</time>
      </trkpt>
      <trkpt lat="42.74971" lon="1.40297">
        <ele>1918</ele>
        <time>2025-06-12T10:34:54.016Z</time>
      </trkpt>
      <trkpt lat="42.74967" lon="1.40301">
        <ele>1921</ele>
        <time>2025-06-12T10:35:20.680Z</time>
      </trkpt>
      <trkpt lat="42.74964" lon="1.40303">
        <ele>1923</ele>
        <time>2025-06-12T10:35:35.789Z</time>
      </trkpt>
      <trkpt lat="42.74958" lon="1.4031">
        <ele>1927</ele>
        <time>2025-06-12T10:36:15.605Z</time>
      </trkpt>
      <trkpt lat="42.74955" lon="1.40318">
        <ele>1930</ele>
        <time>2025-06-12T10:36:49.477Z</time>
      </trkpt>
      <trkpt lat="42.74951" lon="1.40329">
        <ele>1934</ele>
        <time>2025-06-12T10:37:34.005Z</time>
      </trkpt>
      <trkpt lat="42.7495" lon="1.40341">
        <ele>1935</ele>
        <time>2025-06-12T10:37:46.118Z</time>
      </trkpt>
      <trkpt lat="42.74948" lon="1.40344">
        <ele>1937</ele>
        <time>2025-06-12T10:38:02.953Z</time>
      </trkpt>
      <trkpt lat="42.74945" lon="1.40355">
        <ele>1941</ele>
        <time>2025-06-12T10:38:44.899Z</time>
      </trkpt>
      <trkpt lat="42.74946" lon="1.40364">
        <ele>1941</ele>
        <time>2025-06-12T10:38:51.899Z</time>
      </trkpt>
      <trkpt lat="42.74944" lon="1.40371">
        <ele>1943</ele>
        <time>2025-06-12T10:39:13.555Z</time>
      </trkpt>
      <trkpt lat="42.7494" lon="1.40376">
        <ele>1946</ele>
        <time>2025-06-12T10:39:41.862Z</time>
      </trkpt>
      <trkpt lat="42.74936" lon="1.40378">
        <ele>1948</ele>
        <time>2025-06-12T10:40:03.153Z</time>
      </trkpt>
      <trkpt lat="42.74933" lon="1.40382">
        <ele>1951</ele>
        <time>2025-06-12T10:40:26.364Z</time>
      </trkpt>
      <trkpt lat="42.7493" lon="1.40382">
        <ele>1952</ele>
        <time>2025-06-12T10:40:35.993Z</time>
      </trkpt>
      <trkpt lat="42.74925" lon="1.4038">
        <ele>1955</ele>
        <time>2025-06-12T10:41:03.052Z</time>
      </trkpt>
      <trkpt lat="42.7492" lon="1.40379">
        <ele>1957</ele>
        <time>2025-06-12T10:41:25.234Z</time>
      </trkpt>
      <trkpt lat="42.74917" lon="1.40382">
        <ele>1959</ele>
        <time>2025-06-12T10:41:46.485Z</time>
      </trkpt>
      <trkpt lat="42.74915" lon="1.40387">
        <ele>1960</ele>
        <time>2025-06-12T10:41:55.969Z</time>
      </trkpt>
      <trkpt lat="42.74919" lon="1.40397">
        <ele>1962</ele>
        <time>2025-06-12T10:42:14.792Z</time>
      </trkpt>
      <trkpt lat="42.7492" lon="1.40406">
        <ele>1964</ele>
        <time>2025-06-12T10:42:34.028Z</time>
      </trkpt>
      <trkpt lat="42.74918" lon="1.40412">
        <ele>1966</ele>
        <time>2025-06-12T10:42:55.603Z</time>
      </trkpt>
      <trkpt lat="42.74915" lon="1.4042">
        <ele>1968</ele>
        <time>2025-06-12T10:43:14.970Z</time>
      </trkpt>
      <trkpt lat="42.74917" lon="1.40431">
        <ele>1971</ele>
        <time>2025-06-12T10:43:46.530Z</time>
      </trkpt>
      <trkpt lat="42.74916" lon="1.40448">
        <ele>1976</ele>
        <time>2025-06-12T10:44:40.527Z</time>
      </trkpt>
      <trkpt lat="42.74918" lon="1.40458">
        <ele>1979</ele>
        <time>2025-06-12T10:45:12.986Z</time>
      </trkpt>
      <trkpt lat="42.74919" lon="1.40465">
        <ele>1981</ele>
        <time>2025-06-12T10:45:34.119Z</time>
      </trkpt>
      <trkpt lat="42.74919" lon="1.40473">
        <ele>1985</ele>
        <time>2025-06-12T10:46:04.382Z</time>
      </trkpt>
      <trkpt lat="42.74916" lon="1.40489">
        <ele>1991</ele>
        <time>2025-06-12T10:47:02.340Z</time>
      </trkpt>
      <trkpt lat="42.74916" lon="1.40491">
        <ele>1993</ele>
        <time>2025-06-12T10:47:12.305Z</time>
      </trkpt>
      <trkpt lat="42.74915" lon="1.40497">
        <ele>1995</ele>
        <time>2025-06-12T10:47:32.179Z</time>
      </trkpt>
      <trkpt lat="42.7491" lon="1.40506">
        <ele>2000</ele>
        <time>2025-06-12T10:48:14.756Z</time>
      </trkpt>
      <trkpt lat="42.74911" lon="1.40515">
        <ele>2004</ele>
        <time>2025-06-12T10:48:51.462Z</time>
      </trkpt>
      <trkpt lat="42.74909" lon="1.40522">
        <ele>2007</ele>
        <time>2025-06-12T10:49:16.454Z</time>
      </trkpt>
      <trkpt lat="42.74904" lon="1.40534">
        <ele>2014</ele>
        <time>2025-06-12T10:50:08.385Z</time>
      </trkpt>
      <trkpt lat="42.74906" lon="1.40541">
        <ele>2016</ele>
        <time>2025-06-12T10:50:28.824Z</time>
      </trkpt>
      <trkpt lat="42.74909" lon="1.40548">
        <ele>2018</ele>
        <time>2025-06-12T10:50:49.748Z</time>
      </trkpt>
      <trkpt lat="42.7491" lon="1.40549">
        <ele>2018</ele>
        <time>2025-06-12T10:50:51.114Z</time>
      </trkpt>
      <trkpt lat="42.74911" lon="1.40552">
        <ele>2019</ele>
        <time>2025-06-12T10:51:01.487Z</time>
      </trkpt>
      <trkpt lat="42.74913" lon="1.40555">
        <ele>2019</ele>
        <time>2025-06-12T10:51:04.617Z</time>
      </trkpt>
      <trkpt lat="42.74915" lon="1.40556">
        <ele>2019</ele>
        <time>2025-06-12T10:51:06.099Z</time>
      </trkpt>
      <trkpt lat="42.74915" lon="1.40559">
        <ele>2020</ele>
        <time>2025-06-12T10:51:16.515Z</time>
      </trkpt>
      <trkpt lat="42.74917" lon="1.40559">
        <ele>2020</ele>
        <time>2025-06-12T10:51:18.430Z</time>
      </trkpt>
      <trkpt lat="42.74918" lon="1.40562">
        <ele>2021</ele>
        <time>2025-06-12T10:51:28.841Z</time>
      </trkpt>
      <trkpt lat="42.74918" lon="1.40565">
        <ele>2022</ele>
        <time>2025-06-12T10:51:38.805Z</time>
      </trkpt>
      <trkpt lat="42.74921" lon="1.40567">
        <ele>2021</ele>
        <time>2025-06-12T10:51:41.297Z</time>
      </trkpt>
      <trkpt lat="42.74921" lon="1.4057">
        <ele>2022</ele>
        <time>2025-06-12T10:51:51.713Z</time>
      </trkpt>
      <trkpt lat="42.7492" lon="1.40571">
        <ele>2023</ele>
        <time>2025-06-12T10:51:59.217Z</time>
      </trkpt>
      <trkpt lat="42.74918" lon="1.40572">
        <ele>2024</ele>
        <time>2025-06-12T10:52:09.803Z</time>
      </trkpt>
      <trkpt lat="42.74916" lon="1.40571">
        <ele>2025</ele>
        <time>2025-06-12T10:52:19.913Z</time>
      </trkpt>
      <trkpt lat="42.74913" lon="1.40572">
        <ele>2026</ele>
        <time>2025-06-12T10:52:30.209Z</time>
      </trkpt>
      <trkpt lat="42.74914" lon="1.40575">
        <ele>2027</ele>
        <time>2025-06-12T10:52:40.776Z</time>
      </trkpt>
      <trkpt lat="42.74915" lon="1.40577">
        <ele>2027</ele>
        <time>2025-06-12T10:52:43.046Z</time>
      </trkpt>
      <trkpt lat="42.74916" lon="1.40579">
        <ele>2028</ele>
        <time>2025-06-12T10:52:50.239Z</time>
      </trkpt>
      <trkpt lat="42.74915" lon="1.40582">
        <ele>2029</ele>
        <time>2025-06-12T10:53:01.335Z</time>
      </trkpt>
      <trkpt lat="42.74917" lon="1.40585">
        <ele>2029</ele>
        <time>2025-06-12T10:53:04.465Z</time>
      </trkpt>
      <trkpt lat="42.74917" lon="1.40587">
        <ele>2031</ele>
        <time>2025-06-12T10:53:15.032Z</time>
      </trkpt>
      <trkpt lat="42.74917" lon="1.40588">
        <ele>2031</ele>
        <time>2025-06-12T10:53:15.954Z</time>
      </trkpt>
      <trkpt lat="42.74919" lon="1.40589">
        <ele>2031</ele>
        <time>2025-06-12T10:53:17.383Z</time>
      </trkpt>
      <trkpt lat="42.74921" lon="1.40592">
        <ele>2031</ele>
        <time>2025-06-12T10:53:20.030Z</time>
      </trkpt>
      <trkpt lat="42.74923" lon="1.40598">
        <ele>2031</ele>
        <time>2025-06-12T10:53:24.855Z</time>
      </trkpt>
      <trkpt lat="42.74923" lon="1.40603">
        <ele>2033</ele>
        <time>2025-06-12T10:53:45.011Z</time>
      </trkpt>
      <trkpt lat="42.74924" lon="1.40606">
        <ele>2033</ele>
        <time>2025-06-12T10:53:47.024Z</time>
      </trkpt>
      <trkpt lat="42.74925" lon="1.4061">
        <ele>2033</ele>
        <time>2025-06-12T10:53:49.844Z</time>
      </trkpt>
      <trkpt lat="42.74925" lon="1.40612">
        <ele>2034</ele>
        <time>2025-06-12T10:53:59.809Z</time>
      </trkpt>
      <trkpt lat="42.74926" lon="1.40616">
        <ele>2035</ele>
        <time>2025-06-12T10:54:10.182Z</time>
      </trkpt>
      <trkpt lat="42.74925" lon="1.40618">
        <ele>2037</ele>
        <time>2025-06-12T10:54:17.699Z</time>
      </trkpt>
      <trkpt lat="42.74923" lon="1.4062">
        <ele>2039</ele>
        <time>2025-06-12T10:54:29.748Z</time>
      </trkpt>
      <trkpt lat="42.74921" lon="1.40626">
        <ele>2044</ele>
        <time>2025-06-12T10:54:54.740Z</time>
      </trkpt>
      <trkpt lat="42.74919" lon="1.40629">
        <ele>2047</ele>
        <time>2025-06-12T10:55:13.375Z</time>
      </trkpt>
      <trkpt lat="42.74917" lon="1.40631">
        <ele>2048</ele>
        <time>2025-06-12T10:55:24.332Z</time>
      </trkpt>
      <trkpt lat="42.74915" lon="1.40634">
        <ele>2050</ele>
        <time>2025-06-12T10:55:38.133Z</time>
      </trkpt>
      <trkpt lat="42.74913" lon="1.40639">
        <ele>2053</ele>
        <time>2025-06-12T10:55:58.920Z</time>
      </trkpt>
      <trkpt lat="42.74911" lon="1.40641">
        <ele>2055</ele>
        <time>2025-06-12T10:56:13.579Z</time>
      </trkpt>
      <trkpt lat="42.74911" lon="1.40645">
        <ele>2057</ele>
        <time>2025-06-12T10:56:27.323Z</time>
      </trkpt>
      <trkpt lat="42.74913" lon="1.40647">
        <ele>2057</ele>
        <time>2025-06-12T10:56:29.085Z</time>
      </trkpt>
      <trkpt lat="42.74915" lon="1.4065">
        <ele>2057</ele>
        <time>2025-06-12T10:56:32.653Z</time>
      </trkpt>
      <trkpt lat="42.74915" lon="1.40655">
        <ele>2059</ele>
        <time>2025-06-12T10:56:49.261Z</time>
      </trkpt>
      <trkpt lat="42.74914" lon="1.40658">
        <ele>2061</ele>
        <time>2025-06-12T10:57:04.399Z</time>
      </trkpt>
      <trkpt lat="42.74912" lon="1.40661">
        <ele>2063</ele>
        <time>2025-06-12T10:57:18.295Z</time>
      </trkpt>
      <trkpt lat="42.7491" lon="1.40669">
        <ele>2068</ele>
        <time>2025-06-12T10:57:49.834Z</time>
      </trkpt>
      <trkpt lat="42.74911" lon="1.40669">
        <ele>2067</ele>
        <time>2025-06-12T10:57:51.006Z</time>
      </trkpt>
      <trkpt lat="42.74912" lon="1.40671">
        <ele>2068</ele>
        <time>2025-06-12T10:57:57.967Z</time>
      </trkpt>
      <trkpt lat="42.74911" lon="1.40673">
        <ele>2069</ele>
        <time>2025-06-12T10:58:08.378Z</time>
      </trkpt>
      <trkpt lat="42.74912" lon="1.40679">
        <ele>2071</ele>
        <time>2025-06-12T10:58:28.899Z</time>
      </trkpt>
      <trkpt lat="42.74915" lon="1.40682">
        <ele>2070</ele>
        <time>2025-06-12T10:58:32.124Z</time>
      </trkpt>
      <trkpt lat="42.74915" lon="1.40684">
        <ele>2071</ele>
        <time>2025-06-12T10:58:42.089Z</time>
      </trkpt>
      <trkpt lat="42.74916" lon="1.40686">
        <ele>2071</ele>
        <time>2025-06-12T10:58:43.459Z</time>
      </trkpt>
      <trkpt lat="42.74918" lon="1.4069">
        <ele>2071</ele>
        <time>2025-06-12T10:58:46.575Z</time>
      </trkpt>
      <trkpt lat="42.74919" lon="1.40696">
        <ele>2073</ele>
        <time>2025-06-12T10:59:08.891Z</time>
      </trkpt>
      <trkpt lat="42.74921" lon="1.407">
        <ele>2073</ele>
        <time>2025-06-12T10:59:12.589Z</time>
      </trkpt>
      <trkpt lat="42.74924" lon="1.40702">
        <ele>2071</ele>
        <time>2025-06-12T10:59:15.567Z</time>
      </trkpt>
      <trkpt lat="42.74927" lon="1.40703">
        <ele>2070</ele>
        <time>2025-06-12T10:59:17.830Z</time>
      </trkpt>
      <trkpt lat="42.74927" lon="1.40708">
        <ele>2071</ele>
        <time>2025-06-12T10:59:27.554Z</time>
      </trkpt>
      <trkpt lat="42.74925" lon="1.40708">
        <ele>2072</ele>
        <time>2025-06-12T10:59:37.103Z</time>
      </trkpt>
      <trkpt lat="42.74923" lon="1.40709">
        <ele>2074</ele>
        <time>2025-06-12T10:59:46.780Z</time>
      </trkpt>
      <trkpt lat="42.74924" lon="1.40712">
        <ele>2073</ele>
        <time>2025-06-12T10:59:48.599Z</time>
      </trkpt>
      <trkpt lat="42.74926" lon="1.40716">
        <ele>2072</ele>
        <time>2025-06-12T10:59:51.327Z</time>
      </trkpt>
      <trkpt lat="42.74927" lon="1.40718">
        <ele>2072</ele>
        <time>2025-06-12T10:59:52.717Z</time>
      </trkpt>
      <trkpt lat="42.74925" lon="1.40719">
        <ele>2073</ele>
        <time>2025-06-12T11:00:02.034Z</time>
      </trkpt>
      <trkpt lat="42.74923" lon="1.4072">
        <ele>2075</ele>
        <time>2025-06-12T11:00:12.620Z</time>
      </trkpt>
      <trkpt lat="42.74925" lon="1.40724">
        <ele>2074</ele>
        <time>2025-06-12T11:00:15.126Z</time>
      </trkpt>
      <trkpt lat="42.74925" lon="1.40727">
        <ele>2074</ele>
        <time>2025-06-12T11:00:17.653Z</time>
      </trkpt>
      <trkpt lat="42.74924" lon="1.40733">
        <ele>2076</ele>
        <time>2025-06-12T11:00:38.977Z</time>
      </trkpt>
      <trkpt lat="42.7492" lon="1.40733">
        <ele>2079</ele>
        <time>2025-06-12T11:00:59.080Z</time>
      </trkpt>
      <trkpt lat="42.74916" lon="1.40736">
        <ele>2082</ele>
        <time>2025-06-12T11:01:21.068Z</time>
      </trkpt>
      <trkpt lat="42.74913" lon="1.40738">
        <ele>2084</ele>
        <time>2025-06-12T11:01:37.903Z</time>
      </trkpt>
      <trkpt lat="42.74912" lon="1.40745">
        <ele>2086</ele>
        <time>2025-06-12T11:01:58.823Z</time>
      </trkpt>
      <trkpt lat="42.74913" lon="1.4075">
        <ele>2085</ele>
        <time>2025-06-12T11:02:01.697Z</time>
      </trkpt>
      <trkpt lat="42.74912" lon="1.40752">
        <ele>2086</ele>
        <time>2025-06-12T11:02:08.658Z</time>
      </trkpt>
      <trkpt lat="42.74909" lon="1.40752">
        <ele>2088</ele>
        <time>2025-06-12T11:02:21.725Z</time>
      </trkpt>
      <trkpt lat="42.74909" lon="1.40754">
        <ele>2088</ele>
        <time>2025-06-12T11:02:23.623Z</time>
      </trkpt>
      <trkpt lat="42.74909" lon="1.40756">
        <ele>2088</ele>
        <time>2025-06-12T11:02:24.959Z</time>
      </trkpt>
      <trkpt lat="42.74907" lon="1.40759">
        <ele>2089</ele>
        <time>2025-06-12T11:02:35.279Z</time>
      </trkpt>
      <trkpt lat="42.74905" lon="1.40761">
        <ele>2091</ele>
        <time>2025-06-12T11:02:47.328Z</time>
      </trkpt>
      <trkpt lat="42.74904" lon="1.40762">
        <ele>2092</ele>
        <time>2025-06-12T11:02:57.438Z</time>
      </trkpt>
      <trkpt lat="42.74901" lon="1.40766">
        <ele>2093</ele>
        <time>2025-06-12T11:03:06.851Z</time>
      </trkpt>
      <trkpt lat="42.749" lon="1.40771">
        <ele>2094</ele>
        <time>2025-06-12T11:03:16.381Z</time>
      </trkpt>
      <trkpt lat="42.74898" lon="1.40771">
        <ele>2096</ele>
        <time>2025-06-12T11:03:30.351Z</time>
      </trkpt>
      <trkpt lat="42.74896" lon="1.4077">
        <ele>2097</ele>
        <time>2025-06-12T11:03:39.669Z</time>
      </trkpt>
      <trkpt lat="42.74894" lon="1.40769">
        <ele>2098</ele>
        <time>2025-06-12T11:03:50.145Z</time>
      </trkpt>
      <trkpt lat="42.74893" lon="1.40771">
        <ele>2099</ele>
        <time>2025-06-12T11:04:01.360Z</time>
      </trkpt>
      <trkpt lat="42.74892" lon="1.40775">
        <ele>2100</ele>
        <time>2025-06-12T11:04:11.496Z</time>
      </trkpt>
      <trkpt lat="42.74889" lon="1.40777">
        <ele>2101</ele>
        <time>2025-06-12T11:04:21.419Z</time>
      </trkpt>
      <trkpt lat="42.74887" lon="1.40774">
        <ele>2102</ele>
        <time>2025-06-12T11:04:31.773Z</time>
      </trkpt>
      <trkpt lat="42.74884" lon="1.40772">
        <ele>2104</ele>
        <time>2025-06-12T11:04:49.639Z</time>
      </trkpt>
      <trkpt lat="42.7488" lon="1.40773">
        <ele>2106</ele>
        <time>2025-06-12T11:05:07.046Z</time>
      </trkpt>
      <trkpt lat="42.74878" lon="1.40774">
        <ele>2107</ele>
        <time>2025-06-12T11:05:17.514Z</time>
      </trkpt>
      <trkpt lat="42.74874" lon="1.40773">
        <ele>2110</ele>
        <time>2025-06-12T11:05:37.889Z</time>
      </trkpt>
      <trkpt lat="42.74873" lon="1.40774">
        <ele>2110</ele>
        <time>2025-06-12T11:05:38.744Z</time>
      </trkpt>
      <trkpt lat="42.7487" lon="1.40776">
        <ele>2112</ele>
        <time>2025-06-12T11:05:56.610Z</time>
      </trkpt>
      <trkpt lat="42.74869" lon="1.40777">
        <ele>2112</ele>
        <time>2025-06-12T11:05:58.006Z</time>
      </trkpt>
      <trkpt lat="42.74867" lon="1.40776">
        <ele>2113</ele>
        <time>2025-06-12T11:06:05.335Z</time>
      </trkpt>
      <trkpt lat="42.74865" lon="1.40776">
        <ele>2114</ele>
        <time>2025-06-12T11:06:15.387Z</time>
      </trkpt>
      <trkpt lat="42.74864" lon="1.40778">
        <ele>2114</ele>
        <time>2025-06-12T11:06:17.183Z</time>
      </trkpt>
      <trkpt lat="42.74863" lon="1.40778">
        <ele>2114</ele>
        <time>2025-06-12T11:06:17.757Z</time>
      </trkpt>
      <trkpt lat="42.74862" lon="1.40778">
        <ele>2115</ele>
        <time>2025-06-12T11:06:24.291Z</time>
      </trkpt>
      <trkpt lat="42.74861" lon="1.40779">
        <ele>2115</ele>
        <time>2025-06-12T11:06:25.262Z</time>
      </trkpt>
      <trkpt lat="42.74859" lon="1.40779">
        <ele>2116</ele>
        <time>2025-06-12T11:06:34.811Z</time>
      </trkpt>
      <trkpt lat="42.74859" lon="1.4078">
        <ele>2116</ele>
        <time>2025-06-12T11:06:35.732Z</time>
      </trkpt>
      <trkpt lat="42.74857" lon="1.40785">
        <ele>2116</ele>
        <time>2025-06-12T11:06:39.727Z</time>
      </trkpt>
      <trkpt lat="42.74855" lon="1.40786">
        <ele>2117</ele>
        <time>2025-06-12T11:06:50.313Z</time>
      </trkpt>
      <trkpt lat="42.74853" lon="1.40788">
        <ele>2118</ele>
        <time>2025-06-12T11:07:00.317Z</time>
      </trkpt>
      <trkpt lat="42.74853" lon="1.40789">
        <ele>2118</ele>
        <time>2025-06-12T11:07:01.653Z</time>
      </trkpt>
      <trkpt lat="42.74849" lon="1.40793">
        <ele>2119</ele>
        <time>2025-06-12T11:07:11.060Z</time>
      </trkpt>
      <trkpt lat="42.74843" lon="1.40797">
        <ele>2121</ele>
        <time>2025-06-12T11:07:30.507Z</time>
      </trkpt>
      <trkpt lat="42.74839" lon="1.40801">
        <ele>2122</ele>
        <time>2025-06-12T11:07:40.235Z</time>
      </trkpt>
      <trkpt lat="42.74837" lon="1.40802">
        <ele>2123</ele>
        <time>2025-06-12T11:07:50.734Z</time>
      </trkpt>
      <trkpt lat="42.74831" lon="1.40802">
        <ele>2126</ele>
        <time>2025-06-12T11:08:20.387Z</time>
      </trkpt>
      <trkpt lat="42.74828" lon="1.40803">
        <ele>2127</ele>
        <time>2025-06-12T11:08:30.682Z</time>
      </trkpt>
      <trkpt lat="42.74824" lon="1.40803">
        <ele>2128</ele>
        <time>2025-06-12T11:08:40.097Z</time>
      </trkpt>
      <trkpt lat="42.74822" lon="1.40802">
        <ele>2129</ele>
        <time>2025-06-12T11:08:50.393Z</time>
      </trkpt>
      <trkpt lat="42.7482" lon="1.40803">
        <ele>2130</ele>
        <time>2025-06-12T11:09:00.979Z</time>
      </trkpt>
      <trkpt lat="42.74818" lon="1.40804">
        <ele>2131</ele>
        <time>2025-06-12T11:09:08.050Z</time>
      </trkpt>
      <trkpt lat="42.74815" lon="1.40804">
        <ele>2132</ele>
        <time>2025-06-12T11:09:17.646Z</time>
      </trkpt>
      <trkpt lat="42.74814" lon="1.40805">
        <ele>2132</ele>
        <time>2025-06-12T11:09:19.012Z</time>
      </trkpt>
      <trkpt lat="42.74812" lon="1.40804">
        <ele>2133</ele>
        <time>2025-06-12T11:09:26.181Z</time>
      </trkpt>
      <trkpt lat="42.74811" lon="1.40802">
        <ele>2133</ele>
        <time>2025-06-12T11:09:28.007Z</time>
      </trkpt>
      <trkpt lat="42.74809" lon="1.40804">
        <ele>2134</ele>
        <time>2025-06-12T11:09:38.964Z</time>
      </trkpt>
      <trkpt lat="42.74807" lon="1.40803">
        <ele>2135</ele>
        <time>2025-06-12T11:09:49.396Z</time>
      </trkpt>
      <trkpt lat="42.74805" lon="1.40805">
        <ele>2136</ele>
        <time>2025-06-12T11:09:58.714Z</time>
      </trkpt>
      <trkpt lat="42.74804" lon="1.40803">
        <ele>2136</ele>
        <time>2025-06-12T11:10:00.557Z</time>
      </trkpt>
      <trkpt lat="42.74802" lon="1.40801">
        <ele>2137</ele>
        <time>2025-06-12T11:10:11.837Z</time>
      </trkpt>
      <trkpt lat="42.748" lon="1.40803">
        <ele>2138</ele>
        <time>2025-06-12T11:10:22.959Z</time>
      </trkpt>
      <trkpt lat="42.74798" lon="1.40802">
        <ele>2138</ele>
        <time>2025-06-12T11:10:24.976Z</time>
      </trkpt>
      <trkpt lat="42.74796" lon="1.40803">
        <ele>2139</ele>
        <time>2025-06-12T11:10:35.562Z</time>
      </trkpt>
      <trkpt lat="42.74793" lon="1.40804">
        <ele>2140</ele>
        <time>2025-06-12T11:10:45.994Z</time>
      </trkpt>
      <trkpt lat="42.74791" lon="1.40806">
        <ele>2141</ele>
        <time>2025-06-12T11:10:57.117Z</time>
      </trkpt>
      <trkpt lat="42.74789" lon="1.40807">
        <ele>2142</ele>
        <time>2025-06-12T11:11:07.153Z</time>
      </trkpt>
      <trkpt lat="42.74787" lon="1.4081">
        <ele>2142</ele>
        <time>2025-06-12T11:11:09.476Z</time>
      </trkpt>
      <trkpt lat="42.74783" lon="1.40813">
        <ele>2143</ele>
        <time>2025-06-12T11:11:19.102Z</time>
      </trkpt>
      <trkpt lat="42.7478" lon="1.40813">
        <ele>2144</ele>
        <time>2025-06-12T11:11:29.728Z</time>
      </trkpt>
      <trkpt lat="42.74778" lon="1.40812">
        <ele>2145</ele>
        <time>2025-06-12T11:11:40.161Z</time>
      </trkpt>
      <trkpt lat="42.74775" lon="1.40815">
        <ele>2145</ele>
        <time>2025-06-12T11:11:43.368Z</time>
      </trkpt>
      <trkpt lat="42.74764" lon="1.4081">
        <ele>2150</ele>
        <time>2025-06-12T11:12:39.236Z</time>
      </trkpt>
      <trkpt lat="42.74756" lon="1.40811">
        <ele>2152</ele>
        <time>2025-06-12T11:12:58.175Z</time>
      </trkpt>
      <trkpt lat="42.74743" lon="1.40812">
        <ele>2156</ele>
        <time>2025-06-12T11:13:36.831Z</time>
      </trkpt>
      <trkpt lat="42.74738" lon="1.40813">
        <ele>2158</ele>
        <time>2025-06-12T11:13:57.793Z</time>
      </trkpt>
      <trkpt lat="42.74735" lon="1.40816">
        <ele>2158</ele>
        <time>2025-06-12T11:14:01.841Z</time>
      </trkpt>
      <trkpt lat="42.74731" lon="1.4082">
        <ele>2159</ele>
        <time>2025-06-12T11:14:11.344Z</time>
      </trkpt>
      <trkpt lat="42.74725" lon="1.40822">
        <ele>2160</ele>
        <time>2025-06-12T11:14:21.137Z</time>
      </trkpt>
      <trkpt lat="42.74715" lon="1.4082">
        <ele>2163</ele>
        <time>2025-06-12T11:14:50.001Z</time>
      </trkpt>
      <trkpt lat="42.74696" lon="1.4082">
        <ele>2169</ele>
        <time>2025-06-12T11:15:48.004Z</time>
      </trkpt>
      <trkpt lat="42.74686" lon="1.40821">
        <ele>2172</ele>
        <time>2025-06-12T11:16:16.989Z</time>
      </trkpt>
      <trkpt lat="42.74679" lon="1.40822">
        <ele>2174</ele>
        <time>2025-06-12T11:16:36.377Z</time>
      </trkpt>
      <trkpt lat="42.7467" lon="1.40828">
        <ele>2176</ele>
        <time>2025-06-12T11:16:55.794Z</time>
      </trkpt>
      <trkpt lat="42.74665" lon="1.40833">
        <ele>2177</ele>
        <time>2025-06-12T11:17:05.998Z</time>
      </trkpt>
      <trkpt lat="42.7466" lon="1.4084">
        <ele>2178</ele>
        <time>2025-06-12T11:17:16.868Z</time>
      </trkpt>
      <trkpt lat="42.74655" lon="1.40841">
        <ele>2179</ele>
        <time>2025-06-12T11:17:26.644Z</time>
      </trkpt>
      <trkpt lat="42.74648" lon="1.4084">
        <ele>2182</ele>
        <time>2025-06-12T11:17:59.445Z</time>
      </trkpt>
      <trkpt lat="42.74641" lon="1.40835">
        <ele>2185</ele>
        <time>2025-06-12T11:18:30.912Z</time>
      </trkpt>
      <trkpt lat="42.74634" lon="1.40836">
        <ele>2186</ele>
        <time>2025-06-12T11:18:41.492Z</time>
      </trkpt>
      <trkpt lat="42.74622" lon="1.40831">
        <ele>2190</ele>
        <time>2025-06-12T11:19:20.753Z</time>
      </trkpt>
      <trkpt lat="42.74615" lon="1.40833">
        <ele>2191</ele>
        <time>2025-06-12T11:19:31.837Z</time>
      </trkpt>
      <trkpt lat="42.74609" lon="1.40839">
        <ele>2192</ele>
        <time>2025-06-12T11:19:43.566Z</time>
      </trkpt>
      <trkpt lat="42.74598" lon="1.4084">
        <ele>2194</ele>
        <time>2025-06-12T11:20:03.047Z</time>
      </trkpt>
      <trkpt lat="42.74587" lon="1.40841">
        <ele>2195</ele>
        <time>2025-06-12T11:20:16.872Z</time>
      </trkpt>
      <trkpt lat="42.74578" lon="1.40842">
        <ele>2195</ele>
        <time>2025-06-12T11:20:26.348Z</time>
      </trkpt>
      <trkpt lat="42.74566" lon="1.40842">
        <ele>2195</ele>
        <time>2025-06-12T11:20:37.088Z</time>
      </trkpt>
      <trkpt lat="42.74553" lon="1.40843">
        <ele>2194</ele>
        <time>2025-06-12T11:20:48.778Z</time>
      </trkpt>
      <trkpt lat="42.74534" lon="1.4086">
        <ele>2193</ele>
        <time>2025-06-12T11:21:07.542Z</time>
      </trkpt>
      <trkpt lat="42.74528" lon="1.40869">
        <ele>2192</ele>
        <time>2025-06-12T11:21:14.917Z</time>
      </trkpt>
      <trkpt lat="42.74516" lon="1.40873">
        <ele>2190</ele>
        <time>2025-06-12T11:21:25.714Z</time>
      </trkpt>
      <trkpt lat="42.7451" lon="1.40872">
        <ele>2189</ele>
        <time>2025-06-12T11:21:30.196Z</time>
      </trkpt>
      <trkpt lat="42.74505" lon="1.40868">
        <ele>2189</ele>
        <time>2025-06-12T11:21:36.094Z</time>
      </trkpt>
      <trkpt lat="42.74496" lon="1.40868">
        <ele>2187</ele>
        <time>2025-06-12T11:21:43.800Z</time>
      </trkpt>
      <trkpt lat="42.7449" lon="1.40865">
        <ele>2187</ele>
        <time>2025-06-12T11:21:49.849Z</time>
      </trkpt>
      <trkpt lat="42.74491" lon="1.40858">
        <ele>2188</ele>
        <time>2025-06-12T11:21:59.590Z</time>
      </trkpt>
      <trkpt lat="42.74486" lon="1.40852">
        <ele>2189</ele>
        <time>2025-06-12T11:22:09.874Z</time>
      </trkpt>
      <trkpt lat="42.74475" lon="1.40845">
        <ele>2191</ele>
        <time>2025-06-12T11:22:30.018Z</time>
      </trkpt>
      <trkpt lat="42.74459" lon="1.40833">
        <ele>2194</ele>
        <time>2025-06-12T11:23:01.084Z</time>
      </trkpt>
      <trkpt lat="42.74437" lon="1.40815">
        <ele>2200</ele>
        <time>2025-06-12T11:23:57.563Z</time>
      </trkpt>
      <trkpt lat="42.74419" lon="1.40803">
        <ele>2204</ele>
        <time>2025-06-12T11:24:35.957Z</time>
      </trkpt>
      <trkpt lat="42.74401" lon="1.40793">
        <ele>2209</ele>
        <time>2025-06-12T11:25:23.071Z</time>
      </trkpt>
      <trkpt lat="42.74384" lon="1.40782">
        <ele>2214</ele>
        <time>2025-06-12T11:26:10.247Z</time>
      </trkpt>
      <trkpt lat="42.74373" lon="1.40773">
        <ele>2217</ele>
        <time>2025-06-12T11:26:38.520Z</time>
      </trkpt>
      <trkpt lat="42.74358" lon="1.40766">
        <ele>2220</ele>
        <time>2025-06-12T11:27:07.850Z</time>
      </trkpt>
      <trkpt lat="42.74342" lon="1.40762">
        <ele>2223</ele>
        <time>2025-06-12T11:27:37.253Z</time>
      </trkpt>
      <trkpt lat="42.74334" lon="1.40762">
        <ele>2225</ele>
        <time>2025-06-12T11:27:56.065Z</time>
      </trkpt>
      <trkpt lat="42.74312" lon="1.4076">
        <ele>2229</ele>
        <time>2025-06-12T11:28:35.380Z</time>
      </trkpt>
      <trkpt lat="42.74304" lon="1.40755">
        <ele>2230</ele>
        <time>2025-06-12T11:28:48.016Z</time>
      </trkpt>
      <trkpt lat="42.74296" lon="1.40751">
        <ele>2231</ele>
        <time>2025-06-12T11:29:00.065Z</time>
      </trkpt>
      <trkpt lat="42.74289" lon="1.40744">
        <ele>2230</ele>
        <time>2025-06-12T11:29:07.214Z</time>
      </trkpt>
      <trkpt lat="42.74283" lon="1.40736">
        <ele>2229</ele>
        <time>2025-06-12T11:29:13.892Z</time>
      </trkpt>
      <trkpt lat="42.74283" lon="1.40729">
        <ele>2227</ele>
        <time>2025-06-12T11:29:18.288Z</time>
      </trkpt>
      <trkpt lat="42.74281" lon="1.40722">
        <ele>2225</ele>
        <time>2025-06-12T11:29:22.870Z</time>
      </trkpt>
      <trkpt lat="42.74275" lon="1.40716">
        <ele>2225</ele>
        <time>2025-06-12T11:29:30.586Z</time>
      </trkpt>
      <trkpt lat="42.74269" lon="1.40709">
        <ele>2224</ele>
        <time>2025-06-12T11:29:36.479Z</time>
      </trkpt>
      <trkpt lat="42.74264" lon="1.407">
        <ele>2223</ele>
        <time>2025-06-12T11:29:43.901Z</time>
      </trkpt>
      <trkpt lat="42.74262" lon="1.40692">
        <ele>2221</ele>
        <time>2025-06-12T11:29:49.001Z</time>
      </trkpt>
      <trkpt lat="42.74262" lon="1.40681">
        <ele>2216</ele>
        <time>2025-06-12T11:29:56.161Z</time>
      </trkpt>
      <trkpt lat="42.74258" lon="1.40669">
        <ele>2214</ele>
        <time>2025-06-12T11:30:04.065Z</time>
      </trkpt>
      <trkpt lat="42.74253" lon="1.40659">
        <ele>2212</ele>
        <time>2025-06-12T11:30:11.272Z</time>
      </trkpt>
      <trkpt lat="42.74248" lon="1.40653">
        <ele>2212</ele>
        <time>2025-06-12T11:30:18.007Z</time>
      </trkpt>
      <trkpt lat="42.74239" lon="1.40638">
        <ele>2212</ele>
        <time>2025-06-12T11:30:31.855Z</time>
      </trkpt>
      <trkpt lat="42.7423" lon="1.40627">
        <ele>2212</ele>
        <time>2025-06-12T11:30:43.102Z</time>
      </trkpt>
      <trkpt lat="42.7423" lon="1.40617">
        <ele>2210</ele>
        <time>2025-06-12T11:30:49.192Z</time>
      </trkpt>
      <trkpt lat="42.74226" lon="1.4061">
        <ele>2210</ele>
        <time>2025-06-12T11:30:55.483Z</time>
      </trkpt>
      <trkpt lat="42.7422" lon="1.40599">
        <ele>2210</ele>
        <time>2025-06-12T11:31:04.890Z</time>
      </trkpt>
      <trkpt lat="42.74213" lon="1.40591">
        <ele>2212</ele>
        <time>2025-06-12T11:31:23.788Z</time>
      </trkpt>
      <trkpt lat="42.74207" lon="1.4058">
        <ele>2214</ele>
        <time>2025-06-12T11:31:43.148Z</time>
      </trkpt>
      <trkpt lat="42.74202" lon="1.40567">
        <ele>2214</ele>
        <time>2025-06-12T11:31:53.674Z</time>
      </trkpt>
      <trkpt lat="42.742" lon="1.40554">
        <ele>2214</ele>
        <time>2025-06-12T11:32:02.600Z</time>
      </trkpt>
      <trkpt lat="42.74196" lon="1.40541">
        <ele>2214</ele>
        <time>2025-06-12T11:32:12.900Z</time>
      </trkpt>
      <trkpt lat="42.74188" lon="1.40532">
        <ele>2217</ele>
        <time>2025-06-12T11:32:41.627Z</time>
      </trkpt>
      <trkpt lat="42.74182" lon="1.40516">
        <ele>2219</ele>
        <time>2025-06-12T11:33:02.623Z</time>
      </trkpt>
      <trkpt lat="42.74178" lon="1.40503">
        <ele>2220</ele>
        <time>2025-06-12T11:33:16.421Z</time>
      </trkpt>
      <trkpt lat="42.74173" lon="1.40493">
        <ele>2222</ele>
        <time>2025-06-12T11:33:35.333Z</time>
      </trkpt>
      <trkpt lat="42.74174" lon="1.40487">
        <ele>2221</ele>
        <time>2025-06-12T11:33:39.359Z</time>
      </trkpt>
      <trkpt lat="42.74174" lon="1.40477">
        <ele>2220</ele>
        <time>2025-06-12T11:33:45.387Z</time>
      </trkpt>
      <trkpt lat="42.74169" lon="1.40469">
        <ele>2222</ele>
        <time>2025-06-12T11:34:04.198Z</time>
      </trkpt>
      <trkpt lat="42.74169" lon="1.40461">
        <ele>2222</ele>
        <time>2025-06-12T11:34:09.822Z</time>
      </trkpt>
      <trkpt lat="42.74169" lon="1.40444">
        <ele>2222</ele>
        <time>2025-06-12T11:34:21.231Z</time>
      </trkpt>
      <trkpt lat="42.74169" lon="1.40429">
        <ele>2222</ele>
        <time>2025-06-12T11:34:31.939Z</time>
      </trkpt>
      <trkpt lat="42.7417" lon="1.40417">
        <ele>2222</ele>
        <time>2025-06-12T11:34:40.898Z</time>
      </trkpt>
      <trkpt lat="42.74168" lon="1.40403">
        <ele>2224</ele>
        <time>2025-06-12T11:35:00.223Z</time>
      </trkpt>
      <trkpt lat="42.74171" lon="1.40394">
        <ele>2223</ele>
        <time>2025-06-12T11:35:06.319Z</time>
      </trkpt>
      <trkpt lat="42.74179" lon="1.40372">
        <ele>2223</ele>
        <time>2025-06-12T11:35:23.831Z</time>
      </trkpt>
      <trkpt lat="42.74178" lon="1.40362">
        <ele>2224</ele>
        <time>2025-06-12T11:35:35.020Z</time>
      </trkpt>
      <trkpt lat="42.74179" lon="1.40355">
        <ele>2225</ele>
        <time>2025-06-12T11:35:44.818Z</time>
      </trkpt>
      <trkpt lat="42.74182" lon="1.40338">
        <ele>2226</ele>
        <time>2025-06-12T11:36:00.032Z</time>
      </trkpt>
      <trkpt lat="42.74184" lon="1.4033">
        <ele>2227</ele>
        <time>2025-06-12T11:36:10.496Z</time>
      </trkpt>
      <trkpt lat="42.74183" lon="1.4032">
        <ele>2228</ele>
        <time>2025-06-12T11:36:21.699Z</time>
      </trkpt>
      <trkpt lat="42.74182" lon="1.40305">
        <ele>2231</ele>
        <time>2025-06-12T11:36:50.028Z</time>
      </trkpt>
      <trkpt lat="42.7418" lon="1.40289">
        <ele>2233</ele>
        <time>2025-06-12T11:37:10.292Z</time>
      </trkpt>
      <trkpt lat="42.74176" lon="1.40279">
        <ele>2234</ele>
        <time>2025-06-12T11:37:22.199Z</time>
      </trkpt>
      <trkpt lat="42.74172" lon="1.40268">
        <ele>2236</ele>
        <time>2025-06-12T11:37:41.138Z</time>
      </trkpt>
      <trkpt lat="42.74167" lon="1.40259">
        <ele>2238</ele>
        <time>2025-06-12T11:37:59.977Z</time>
      </trkpt>
      <trkpt lat="42.74169" lon="1.40249">
        <ele>2239</ele>
        <time>2025-06-12T11:38:11.230Z</time>
      </trkpt>
      <trkpt lat="42.74168" lon="1.40241">
        <ele>2240</ele>
        <time>2025-06-12T11:38:21.444Z</time>
      </trkpt>
      <trkpt lat="42.74165" lon="1.40233">
        <ele>2240</ele>
        <time>2025-06-12T11:38:27.411Z</time>
      </trkpt>
      <trkpt lat="42.74159" lon="1.40224">
        <ele>2241</ele>
        <time>2025-06-12T11:38:40.158Z</time>
      </trkpt>
      <trkpt lat="42.74155" lon="1.40215">
        <ele>2242</ele>
        <time>2025-06-12T11:38:51.555Z</time>
      </trkpt>
      <trkpt lat="42.74156" lon="1.40202">
        <ele>2243</ele>
        <time>2025-06-12T11:39:04.293Z</time>
      </trkpt>
      <trkpt lat="42.74151" lon="1.40193">
        <ele>2245</ele>
        <time>2025-06-12T11:39:23.117Z</time>
      </trkpt>
      <trkpt lat="42.74147" lon="1.40179">
        <ele>2247</ele>
        <time>2025-06-12T11:39:42.683Z</time>
      </trkpt>
      <trkpt lat="42.74148" lon="1.40169">
        <ele>2249</ele>
        <time>2025-06-12T11:40:01.492Z</time>
      </trkpt>
      <trkpt lat="42.74149" lon="1.40161">
        <ele>2249</ele>
        <time>2025-06-12T11:40:07.252Z</time>
      </trkpt>
      <trkpt lat="42.74147" lon="1.40152">
        <ele>2252</ele>
        <time>2025-06-12T11:40:40.422Z</time>
      </trkpt>
      <trkpt lat="42.74143" lon="1.40134">
        <ele>2256</ele>
        <time>2025-06-12T11:41:18.791Z</time>
      </trkpt>
      <trkpt lat="42.74141" lon="1.40128">
        <ele>2258</ele>
        <time>2025-06-12T11:41:40.083Z</time>
      </trkpt>
      <trkpt lat="42.74132" lon="1.40124">
        <ele>2261</ele>
        <time>2025-06-12T11:42:09.164Z</time>
      </trkpt>
      <trkpt lat="42.74122" lon="1.40124">
        <ele>2263</ele>
        <time>2025-06-12T11:42:28.157Z</time>
      </trkpt>
      <trkpt lat="42.74117" lon="1.40113">
        <ele>2268</ele>
        <time>2025-06-12T11:43:15.515Z</time>
      </trkpt>
      <trkpt lat="42.74109" lon="1.40105">
        <ele>2269</ele>
        <time>2025-06-12T11:43:28.814Z</time>
      </trkpt>
      <trkpt lat="42.74109" lon="1.40099">
        <ele>2271</ele>
        <time>2025-06-12T11:43:51.363Z</time>
      </trkpt>
      <trkpt lat="42.74109" lon="1.40084">
        <ele>2276</ele>
        <time>2025-06-12T11:44:44.969Z</time>
      </trkpt>
      <trkpt lat="42.74111" lon="1.4007">
        <ele>2281</ele>
        <time>2025-06-12T11:45:39.345Z</time>
      </trkpt>
      <trkpt lat="42.74112" lon="1.4006">
        <ele>2284</ele>
        <time>2025-06-12T11:46:12.390Z</time>
      </trkpt>
      <trkpt lat="42.74109" lon="1.40046">
        <ele>2287</ele>
        <time>2025-06-12T11:46:40.798Z</time>
      </trkpt>
      <trkpt lat="42.74105" lon="1.40034">
        <ele>2290</ele>
        <time>2025-06-12T11:47:10.214Z</time>
      </trkpt>
      <trkpt lat="42.74107" lon="1.40024">
        <ele>2292</ele>
        <time>2025-06-12T11:47:29.183Z</time>
      </trkpt>
      <trkpt lat="42.74104" lon="1.40015">
        <ele>2295</ele>
        <time>2025-06-12T11:48:02.489Z</time>
      </trkpt>
      <trkpt lat="42.74099" lon="1.40007">
        <ele>2297</ele>
        <time>2025-06-12T11:48:21.300Z</time>
      </trkpt>
      <trkpt lat="42.74093" lon="1.40002">
        <ele>2300</ele>
        <time>2025-06-12T11:48:54.594Z</time>
      </trkpt>
      <trkpt lat="42.74084" lon="1.39995">
        <ele>2298</ele>
        <time>2025-06-12T11:49:02.774Z</time>
      </trkpt>
      <trkpt lat="42.74078" lon="1.39991">
        <ele>2298</ele>
        <time>2025-06-12T11:49:09.809Z</time>
      </trkpt>
      <trkpt lat="42.74072" lon="1.39984">
        <ele>2299</ele>
        <time>2025-06-12T11:49:21.401Z</time>
      </trkpt>
      <trkpt lat="42.74062" lon="1.39974">
        <ele>2299</ele>
        <time>2025-06-12T11:49:32.702Z</time>
      </trkpt>
      <trkpt lat="42.7406" lon="1.39967">
        <ele>2301</ele>
        <time>2025-06-12T11:49:52.878Z</time>
      </trkpt>
      <trkpt lat="42.74058" lon="1.39963">
        <ele>2302</ele>
        <time>2025-06-12T11:50:02.533Z</time>
      </trkpt>
      <trkpt lat="42.7405" lon="1.39959">
        <ele>2300</ele>
        <time>2025-06-12T11:50:09.037Z</time>
      </trkpt>
      <trkpt lat="42.74044" lon="1.3995">
        <ele>2302</ele>
        <time>2025-06-12T11:50:28.188Z</time>
      </trkpt>
      <trkpt lat="42.74038" lon="1.39939">
        <ele>2304</ele>
        <time>2025-06-12T11:50:47.410Z</time>
      </trkpt>
      <trkpt lat="42.74033" lon="1.39938">
        <ele>2303</ele>
        <time>2025-06-12T11:50:51.877Z</time>
      </trkpt>
      <trkpt lat="42.74027" lon="1.39932">
        <ele>2304</ele>
        <time>2025-06-12T11:51:02.832Z</time>
      </trkpt>
      <trkpt lat="42.74023" lon="1.39923">
        <ele>2305</ele>
        <time>2025-06-12T11:51:14.189Z</time>
      </trkpt>
      <trkpt lat="42.74019" lon="1.39911">
        <ele>2306</ele>
        <time>2025-06-12T11:51:27.431Z</time>
      </trkpt>
      <trkpt lat="42.74016" lon="1.39905">
        <ele>2307</ele>
        <time>2025-06-12T11:51:37.220Z</time>
      </trkpt>
      <trkpt lat="42.74009" lon="1.39891">
        <ele>2308</ele>
        <time>2025-06-12T11:51:52.555Z</time>
      </trkpt>
      <trkpt lat="42.7401" lon="1.39883">
        <ele>2308</ele>
        <time>2025-06-12T11:51:58.209Z</time>
      </trkpt>
      <trkpt lat="42.74013" lon="1.39874">
        <ele>2309</ele>
        <time>2025-06-12T11:52:09.344Z</time>
      </trkpt>
      <trkpt lat="42.74018" lon="1.39865">
        <ele>2311</ele>
        <time>2025-06-12T11:52:28.168Z</time>
      </trkpt>
      <trkpt lat="42.74025" lon="1.39854">
        <ele>2315</ele>
        <time>2025-06-12T11:53:10.946Z</time>
      </trkpt>
      <trkpt lat="42.74027" lon="1.39843">
        <ele>2316</ele>
        <time>2025-06-12T11:53:22.898Z</time>
      </trkpt>
      <trkpt lat="42.74029" lon="1.39829">
        <ele>2317</ele>
        <time>2025-06-12T11:53:36.704Z</time>
      </trkpt>
      <trkpt lat="42.74029" lon="1.39829">
        <ele>2316</ele>
        <time>2025-06-12T11:53:36.704Z</time>
      </trkpt>
      <trkpt lat="42.74029" lon="1.39829">
        <ele>2316</ele>
        <time>2025-06-12T11:53:36.704Z</time>
      </trkpt>
      <trkpt lat="42.74028" lon="1.39816">
        <ele>2316</ele>
        <time>2025-06-12T11:53:46.219Z</time>
      </trkpt>
      <trkpt lat="42.74031" lon="1.39809">
        <ele>2317</ele>
        <time>2025-06-12T11:53:56.186Z</time>
      </trkpt>
      <trkpt lat="42.74037" lon="1.39804">
        <ele>2319</ele>
        <time>2025-06-12T11:54:15.229Z</time>
      </trkpt>
      <trkpt lat="42.74046" lon="1.39797">
        <ele>2322</ele>
        <time>2025-06-12T11:54:44.061Z</time>
      </trkpt>
      <trkpt lat="42.74051" lon="1.39788">
        <ele>2323</ele>
        <time>2025-06-12T11:54:56.058Z</time>
      </trkpt>
      <trkpt lat="42.74058" lon="1.39782">
        <ele>2325</ele>
        <time>2025-06-12T11:55:14.908Z</time>
      </trkpt>
      <trkpt lat="42.74064" lon="1.39773">
        <ele>2325</ele>
        <time>2025-06-12T11:55:24.309Z</time>
      </trkpt>
      <trkpt lat="42.74066" lon="1.39764">
        <ele>2324</ele>
        <time>2025-06-12T11:55:29.566Z</time>
      </trkpt>
      <trkpt lat="42.74075" lon="1.39755">
        <ele>2325</ele>
        <time>2025-06-12T11:55:43.960Z</time>
      </trkpt>
      <trkpt lat="42.74083" lon="1.3975">
        <ele>2327</ele>
        <time>2025-06-12T11:56:02.790Z</time>
      </trkpt>
      <trkpt lat="42.74089" lon="1.39745">
        <ele>2328</ele>
        <time>2025-06-12T11:56:13.746Z</time>
      </trkpt>
      <trkpt lat="42.74113" lon="1.39706">
        <ele>2331</ele>
        <time>2025-06-12T11:56:59.870Z</time>
      </trkpt>
      <trkpt lat="42.74122" lon="1.39692">
        <ele>2332</ele>
        <time>2025-06-12T11:57:16.703Z</time>
      </trkpt>
      <trkpt lat="42.74123" lon="1.39682">
        <ele>2332</ele>
        <time>2025-06-12T11:57:23.704Z</time>
      </trkpt>
      <trkpt lat="42.74124" lon="1.39671">
        <ele>2331</ele>
        <time>2025-06-12T11:57:30.498Z</time>
      </trkpt>
      <trkpt lat="42.74128" lon="1.39663">
        <ele>2331</ele>
        <time>2025-06-12T11:57:37.302Z</time>
      </trkpt>
      <trkpt lat="42.74134" lon="1.39657">
        <ele>2331</ele>
        <time>2025-06-12T11:57:44.037Z</time>
      </trkpt>
      <trkpt lat="42.7414" lon="1.39654">
        <ele>2332</ele>
        <time>2025-06-12T11:57:54.338Z</time>
      </trkpt>
      <trkpt lat="42.74148" lon="1.39651">
        <ele>2333</ele>
        <time>2025-06-12T11:58:06.627Z</time>
      </trkpt>
      <trkpt lat="42.74154" lon="1.39646">
        <ele>2334</ele>
        <time>2025-06-12T11:58:17.522Z</time>
      </trkpt>
      <trkpt lat="42.74159" lon="1.3964">
        <ele>2334</ele>
        <time>2025-06-12T11:58:23.768Z</time>
      </trkpt>
      <trkpt lat="42.74167" lon="1.3963">
        <ele>2335</ele>
        <time>2025-06-12T11:58:38.204Z</time>
      </trkpt>
      <trkpt lat="42.74175" lon="1.39621">
        <ele>2335</ele>
        <time>2025-06-12T11:58:48.065Z</time>
      </trkpt>
      <trkpt lat="42.74185" lon="1.39609">
        <ele>2335</ele>
        <time>2025-06-12T11:59:00.568Z</time>
      </trkpt>
      <trkpt lat="42.74189" lon="1.39597">
        <ele>2337</ele>
        <time>2025-06-12T11:59:19.617Z</time>
      </trkpt>
      <trkpt lat="42.74202" lon="1.3958">
        <ele>2337</ele>
        <time>2025-06-12T11:59:36.530Z</time>
      </trkpt>
      <trkpt lat="42.74211" lon="1.39568">
        <ele>2337</ele>
        <time>2025-06-12T11:59:49.502Z</time>
      </trkpt>
      <trkpt lat="42.74218" lon="1.3956">
        <ele>2338</ele>
        <time>2025-06-12T12:00:01.841Z</time>
      </trkpt>
      <trkpt lat="42.74225" lon="1.39551">
        <ele>2338</ele>
        <time>2025-06-12T12:00:10.783Z</time>
      </trkpt>
      <trkpt lat="42.74228" lon="1.3954">
        <ele>2339</ele>
        <time>2025-06-12T12:00:22.877Z</time>
      </trkpt>
      <trkpt lat="42.74231" lon="1.39528">
        <ele>2341</ele>
        <time>2025-06-12T12:00:41.842Z</time>
      </trkpt>
      <trkpt lat="42.74231" lon="1.39516">
        <ele>2344</ele>
        <time>2025-06-12T12:01:11.454Z</time>
      </trkpt>
      <trkpt lat="42.74239" lon="1.39497">
        <ele>2348</ele>
        <time>2025-06-12T12:01:49.082Z</time>
      </trkpt>
      <trkpt lat="42.74256" lon="1.39464">
        <ele>2353</ele>
        <time>2025-06-12T12:02:39.437Z</time>
      </trkpt>
      <trkpt lat="42.74266" lon="1.39446">
        <ele>2357</ele>
        <time>2025-06-12T12:03:17.061Z</time>
      </trkpt>
      <trkpt lat="42.74269" lon="1.39434">
        <ele>2359</ele>
        <time>2025-06-12T12:03:36.096Z</time>
      </trkpt>
      <trkpt lat="42.74273" lon="1.39425">
        <ele>2360</ele>
        <time>2025-06-12T12:03:47.266Z</time>
      </trkpt>
      <trkpt lat="42.74269" lon="1.39413">
        <ele>2364</ele>
        <time>2025-06-12T12:04:32.248Z</time>
      </trkpt>
      <trkpt lat="42.74272" lon="1.39408">
        <ele>2364</ele>
        <time>2025-06-12T12:04:36.544Z</time>
      </trkpt>
      <trkpt lat="42.74277" lon="1.39397">
        <ele>2364</ele>
        <time>2025-06-12T12:04:46.007Z</time>
      </trkpt>
      <trkpt lat="42.74281" lon="1.39384">
        <ele>2366</ele>
        <time>2025-06-12T12:05:05.453Z</time>
      </trkpt>
      <trkpt lat="42.74285" lon="1.39373">
        <ele>2367</ele>
        <time>2025-06-12T12:05:17.790Z</time>
      </trkpt>
      <trkpt lat="42.74295" lon="1.39367">
        <ele>2366</ele>
        <time>2025-06-12T12:05:26.646Z</time>
      </trkpt>
      <trkpt lat="42.74297" lon="1.39361">
        <ele>2366</ele>
        <time>2025-06-12T12:05:31.774Z</time>
      </trkpt>
      <trkpt lat="42.743" lon="1.39351">
        <ele>2367</ele>
        <time>2025-06-12T12:05:43.114Z</time>
      </trkpt>
      <trkpt lat="42.74301" lon="1.39338">
        <ele>2369</ele>
        <time>2025-06-12T12:06:02.334Z</time>
      </trkpt>
      <trkpt lat="42.74297" lon="1.39324">
        <ele>2371</ele>
        <time>2025-06-12T12:06:21.747Z</time>
      </trkpt>
      <trkpt lat="42.74291" lon="1.39297">
        <ele>2374</ele>
        <time>2025-06-12T12:06:54.072Z</time>
      </trkpt>
      <trkpt lat="42.74292" lon="1.39286">
        <ele>2376</ele>
        <time>2025-06-12T12:07:12.882Z</time>
      </trkpt>
      <trkpt lat="42.74295" lon="1.39276">
        <ele>2378</ele>
        <time>2025-06-12T12:07:31.692Z</time>
      </trkpt>
      <trkpt lat="42.74299" lon="1.39272">
        <ele>2378</ele>
        <time>2025-06-12T12:07:36.282Z</time>
      </trkpt>
      <trkpt lat="42.74302" lon="1.39271">
        <ele>2379</ele>
        <time>2025-06-12T12:07:45.901Z</time>
      </trkpt>
      <trkpt lat="42.74312" lon="1.39241">
        <ele>2382</ele>
        <time>2025-06-12T12:08:21.137Z</time>
      </trkpt>
      <trkpt lat="42.74311" lon="1.39216">
        <ele>2382</ele>
        <time>2025-06-12T12:08:38.866Z</time>
      </trkpt>
      <trkpt lat="42.74318" lon="1.3919">
        <ele>2385</ele>
        <time>2025-06-12T12:09:10.407Z</time>
      </trkpt>
      <trkpt lat="42.74322" lon="1.39175">
        <ele>2388</ele>
        <time>2025-06-12T12:09:38.619Z</time>
      </trkpt>
      <trkpt lat="42.7433" lon="1.3915">
        <ele>2397</ele>
        <time>2025-06-12T12:11:19.751Z</time>
      </trkpt>
      <trkpt lat="42.74323" lon="1.39138">
        <ele>2400</ele>
        <time>2025-06-12T12:11:48.106Z</time>
      </trkpt>
      <trkpt lat="42.74316" lon="1.39136">
        <ele>2400</ele>
        <time>2025-06-12T12:11:54.703Z</time>
      </trkpt>
      <trkpt lat="42.74304" lon="1.39118">
        <ele>2405</ele>
        <time>2025-06-12T12:12:42.091Z</time>
      </trkpt>
      <trkpt lat="42.74287" lon="1.39103">
        <ele>2407</ele>
        <time>2025-06-12T12:13:08.319Z</time>
      </trkpt>
      <trkpt lat="42.74281" lon="1.39099">
        <ele>2407</ele>
        <time>2025-06-12T12:13:15.385Z</time>
      </trkpt>
      <trkpt lat="42.74272" lon="1.39095">
        <ele>2406</ele>
        <time>2025-06-12T12:13:23.387Z</time>
      </trkpt>
      <trkpt lat="42.7426" lon="1.39093">
        <ele>2406</ele>
        <time>2025-06-12T12:13:34.856Z</time>
      </trkpt>
      <trkpt lat="42.74245" lon="1.39091">
        <ele>2406</ele>
        <time>2025-06-12T12:13:48.961Z</time>
      </trkpt>
      <trkpt lat="42.74237" lon="1.3909">
        <ele>2406</ele>
        <time>2025-06-12T12:13:57.123Z</time>
      </trkpt>
      <trkpt lat="42.74229" lon="1.39083">
        <ele>2408</ele>
        <time>2025-06-12T12:14:16.029Z</time>
      </trkpt>
      <trkpt lat="42.74213" lon="1.39066">
        <ele>2412</ele>
        <time>2025-06-12T12:14:54.428Z</time>
      </trkpt>
      <trkpt lat="42.742" lon="1.3905">
        <ele>2417</ele>
        <time>2025-06-12T12:15:42.012Z</time>
      </trkpt>
      <trkpt lat="42.74194" lon="1.39046">
        <ele>2418</ele>
        <time>2025-06-12T12:15:53.167Z</time>
      </trkpt>
      <trkpt lat="42.74182" lon="1.39041">
        <ele>2419</ele>
        <time>2025-06-12T12:16:07.914Z</time>
      </trkpt>
      <trkpt lat="42.74148" lon="1.39039">
        <ele>2425</ele>
        <time>2025-06-12T12:17:07.845Z</time>
      </trkpt>
      <trkpt lat="42.74134" lon="1.3904">
        <ele>2428</ele>
        <time>2025-06-12T12:17:36.523Z</time>
      </trkpt>
      <trkpt lat="42.74116" lon="1.39046">
        <ele>2432</ele>
        <time>2025-06-12T12:18:14.403Z</time>
      </trkpt>
      <trkpt lat="42.74104" lon="1.39046">
        <ele>2437</ele>
        <time>2025-06-12T12:19:09.790Z</time>
      </trkpt>
      <trkpt lat="42.74091" lon="1.39051">
        <ele>2440</ele>
        <time>2025-06-12T12:19:38.231Z</time>
      </trkpt>
      <trkpt lat="42.74083" lon="1.39056">
        <ele>2443</ele>
        <time>2025-06-12T12:20:08.758Z</time>
      </trkpt>
      <trkpt lat="42.7407" lon="1.39056">
        <ele>2448</ele>
        <time>2025-06-12T12:21:02.668Z</time>
      </trkpt>
      <trkpt lat="42.74062" lon="1.39062">
        <ele>2451</ele>
        <time>2025-06-12T12:21:32.020Z</time>
      </trkpt>
      <trkpt lat="42.74049" lon="1.39064">
        <ele>2456</ele>
        <time>2025-06-12T12:22:26.021Z</time>
      </trkpt>
      <trkpt lat="42.74036" lon="1.39065">
        <ele>2461</ele>
        <time>2025-06-12T12:23:18.648Z</time>
      </trkpt>
      <trkpt lat="42.74024" lon="1.39065">
        <ele>2466</ele>
        <time>2025-06-12T12:24:14.005Z</time>
      </trkpt>
      <trkpt lat="42.74008" lon="1.39065">
        <ele>2471</ele>
        <time>2025-06-12T12:25:02.949Z</time>
      </trkpt>
      <trkpt lat="42.73996" lon="1.39066">
        <ele>2474</ele>
        <time>2025-06-12T12:25:31.170Z</time>
      </trkpt>
      <trkpt lat="42.73984" lon="1.39068">
        <ele>2475</ele>
        <time>2025-06-12T12:25:46.737Z</time>
      </trkpt>
      <trkpt lat="42.73973" lon="1.39074">
        <ele>2476</ele>
        <time>2025-06-12T12:26:01.098Z</time>
      </trkpt>
      <trkpt lat="42.73963" lon="1.39071">
        <ele>2478</ele>
        <time>2025-06-12T12:26:20.712Z</time>
      </trkpt>
      <trkpt lat="42.73955" lon="1.39068">
        <ele>2479</ele>
        <time>2025-06-12T12:26:32.442Z</time>
      </trkpt>
      <trkpt lat="42.7394" lon="1.39063">
        <ele>2482</ele>
        <time>2025-06-12T12:27:01.638Z</time>
      </trkpt>
      <trkpt lat="42.73932" lon="1.39056">
        <ele>2485</ele>
        <time>2025-06-12T12:27:31.695Z</time>
      </trkpt>
      <trkpt lat="42.73928" lon="1.39052">
        <ele>2487</ele>
        <time>2025-06-12T12:27:53.779Z</time>
      </trkpt>
      <trkpt lat="42.73918" lon="1.3905">
        <ele>2489</ele>
        <time>2025-06-12T12:28:13.336Z</time>
      </trkpt>
      <trkpt lat="42.73907" lon="1.39053">
        <ele>2492</ele>
        <time>2025-06-12T12:28:41.862Z</time>
      </trkpt>
      <trkpt lat="42.73899" lon="1.3906">
        <ele>2494</ele>
        <time>2025-06-12T12:29:01.131Z</time>
      </trkpt>
      <trkpt lat="42.73886" lon="1.39063">
        <ele>2498</ele>
        <time>2025-06-12T12:29:39.696Z</time>
      </trkpt>
      <trkpt lat="42.73878" lon="1.39063">
        <ele>2501</ele>
        <time>2025-06-12T12:30:12.599Z</time>
      </trkpt>
      <trkpt lat="42.73869" lon="1.39063">
        <ele>2504</ele>
        <time>2025-06-12T12:30:42.272Z</time>
      </trkpt>
      <trkpt lat="42.73862" lon="1.39066">
        <ele>2505</ele>
        <time>2025-06-12T12:30:53.645Z</time>
      </trkpt>
      <trkpt lat="42.73851" lon="1.39073">
        <ele>2505</ele>
        <time>2025-06-12T12:31:04.717Z</time>
      </trkpt>
      <trkpt lat="42.73842" lon="1.39074">
        <ele>2506</ele>
        <time>2025-06-12T12:31:17.340Z</time>
      </trkpt>
      <trkpt lat="42.73829" lon="1.3907">
        <ele>2508</ele>
        <time>2025-06-12T12:31:38.229Z</time>
      </trkpt>
      <trkpt lat="42.73823" lon="1.39062">
        <ele>2510</ele>
        <time>2025-06-12T12:31:57.116Z</time>
      </trkpt>
      <trkpt lat="42.73813" lon="1.39059">
        <ele>2511</ele>
        <time>2025-06-12T12:32:10.475Z</time>
      </trkpt>
      <trkpt lat="42.73791" lon="1.39058">
        <ele>2515</ele>
        <time>2025-06-12T12:32:49.831Z</time>
      </trkpt>
      <trkpt lat="42.73783" lon="1.39057">
        <ele>2517</ele>
        <time>2025-06-12T12:33:08.647Z</time>
      </trkpt>
      <trkpt lat="42.73768" lon="1.39059">
        <ele>2521</ele>
        <time>2025-06-12T12:33:46.380Z</time>
      </trkpt>
      <trkpt lat="42.73761" lon="1.39058">
        <ele>2524</ele>
        <time>2025-06-12T12:34:19.207Z</time>
      </trkpt>
      <trkpt lat="42.73756" lon="1.39053">
        <ele>2526</ele>
        <time>2025-06-12T12:34:38.560Z</time>
      </trkpt>
      <trkpt lat="42.73751" lon="1.39053">
        <ele>2528</ele>
        <time>2025-06-12T12:35:01.026Z</time>
      </trkpt>
      <trkpt lat="42.73744" lon="1.39058">
        <ele>2531</ele>
        <time>2025-06-12T12:35:32.179Z</time>
      </trkpt>
      <trkpt lat="42.73734" lon="1.39066">
        <ele>2535</ele>
        <time>2025-06-12T12:36:12.557Z</time>
      </trkpt>
      <trkpt lat="42.73727" lon="1.39073">
        <ele>2539</ele>
        <time>2025-06-12T12:36:52.657Z</time>
      </trkpt>
      <trkpt lat="42.73721" lon="1.3908">
        <ele>2542</ele>
        <time>2025-06-12T12:37:24.152Z</time>
      </trkpt>
      <trkpt lat="42.73717" lon="1.39092">
        <ele>2544</ele>
        <time>2025-06-12T12:37:43.201Z</time>
      </trkpt>
      <trkpt lat="42.73717" lon="1.39101">
        <ele>2544</ele>
        <time>2025-06-12T12:37:49.529Z</time>
      </trkpt>
      <trkpt lat="42.73713" lon="1.39105">
        <ele>2546</ele>
        <time>2025-06-12T12:38:10.018Z</time>
      </trkpt>
      <trkpt lat="42.73708" lon="1.39105">
        <ele>2549</ele>
        <time>2025-06-12T12:38:33.137Z</time>
      </trkpt>
      <trkpt lat="42.73703" lon="1.39111">
        <ele>2552</ele>
        <time>2025-06-12T12:39:05.928Z</time>
      </trkpt>
      <trkpt lat="42.737" lon="1.39109">
        <ele>2554</ele>
        <time>2025-06-12T12:39:25.278Z</time>
      </trkpt>
      <trkpt lat="42.73696" lon="1.39103">
        <ele>2558</ele>
        <time>2025-06-12T12:39:53.588Z</time>
      </trkpt>
      <trkpt lat="42.73692" lon="1.391">
        <ele>2561</ele>
        <time>2025-06-12T12:40:17.269Z</time>
      </trkpt>
      <trkpt lat="42.73686" lon="1.39103">
        <ele>2565</ele>
        <time>2025-06-12T12:40:53.002Z</time>
      </trkpt>
      <trkpt lat="42.7368" lon="1.39108">
        <ele>2568</ele>
        <time>2025-06-12T12:41:24.393Z</time>
      </trkpt>
      <trkpt lat="42.73677" lon="1.3911">
        <ele>2570</ele>
        <time>2025-06-12T12:41:42.401Z</time>
      </trkpt>
      <trkpt lat="42.73674" lon="1.39113">
        <ele>2572</ele>
        <time>2025-06-12T12:42:03.199Z</time>
      </trkpt>
      <trkpt lat="42.7367" lon="1.39111">
        <ele>2575</ele>
        <time>2025-06-12T12:42:20.932Z</time>
      </trkpt>
      <trkpt lat="42.73664" lon="1.3911">
        <ele>2579</ele>
        <time>2025-06-12T12:42:54.690Z</time>
      </trkpt>
      <trkpt lat="42.73659" lon="1.39114">
        <ele>2582</ele>
        <time>2025-06-12T12:43:22.944Z</time>
      </trkpt>
      <trkpt lat="42.73657" lon="1.39121">
        <ele>2582</ele>
        <time>2025-06-12T12:43:28.585Z</time>
      </trkpt>
      <trkpt lat="42.73654" lon="1.39126">
        <ele>2583</ele>
        <time>2025-06-12T12:43:37.995Z</time>
      </trkpt>
      <trkpt lat="42.73649" lon="1.39122">
        <ele>2586</ele>
        <time>2025-06-12T12:44:04.661Z</time>
      </trkpt>
      <trkpt lat="42.73647" lon="1.39125">
        <ele>2588</ele>
        <time>2025-06-12T12:44:21.718Z</time>
      </trkpt>
      <trkpt lat="42.73645" lon="1.39128">
        <ele>2588</ele>
        <time>2025-06-12T12:44:23.937Z</time>
      </trkpt>
      <trkpt lat="42.73643" lon="1.39132">
        <ele>2588</ele>
        <time>2025-06-12T12:44:27.575Z</time>
      </trkpt>
      <trkpt lat="42.73641" lon="1.39137">
        <ele>2589</ele>
        <time>2025-06-12T12:44:37.120Z</time>
      </trkpt>
      <trkpt lat="42.73639" lon="1.39136">
        <ele>2590</ele>
        <time>2025-06-12T12:44:48.242Z</time>
      </trkpt>
      <trkpt lat="42.73632" lon="1.39141">
        <ele>2592</ele>
        <time>2025-06-12T12:45:07.110Z</time>
      </trkpt>
      <trkpt lat="42.7363" lon="1.39145">
        <ele>2592</ele>
        <time>2025-06-12T12:45:10.777Z</time>
      </trkpt>
      <trkpt lat="42.73627" lon="1.39145">
        <ele>2594</ele>
        <time>2025-06-12T12:45:23.844Z</time>
      </trkpt>
      <trkpt lat="42.73626" lon="1.39146">
        <ele>2594</ele>
        <time>2025-06-12T12:45:25.326Z</time>
      </trkpt>
      <trkpt lat="42.73624" lon="1.39142">
        <ele>2596</ele>
        <time>2025-06-12T12:45:41.690Z</time>
      </trkpt>
      <trkpt lat="42.73621" lon="1.39143">
        <ele>2597</ele>
        <time>2025-06-12T12:45:51.986Z</time>
      </trkpt>
      <trkpt lat="42.73619" lon="1.39146">
        <ele>2597</ele>
        <time>2025-06-12T12:45:54.682Z</time>
      </trkpt>
      <trkpt lat="42.73618" lon="1.39144">
        <ele>2598</ele>
        <time>2025-06-12T12:46:02.317Z</time>
      </trkpt>
      <trkpt lat="42.73616" lon="1.3914">
        <ele>2600</ele>
        <time>2025-06-12T12:46:20.954Z</time>
      </trkpt>
      <trkpt lat="42.7361" lon="1.39146">
        <ele>2601</ele>
        <time>2025-06-12T12:46:32.235Z</time>
      </trkpt>
      <trkpt lat="42.73608" lon="1.39144">
        <ele>2603</ele>
        <time>2025-06-12T12:46:46.390Z</time>
      </trkpt>
      <trkpt lat="42.73606" lon="1.39148">
        <ele>2603</ele>
        <time>2025-06-12T12:46:50.149Z</time>
      </trkpt>
      <trkpt lat="42.73601" lon="1.39148">
        <ele>2605</ele>
        <time>2025-06-12T12:47:12.614Z</time>
      </trkpt>
      <trkpt lat="42.736" lon="1.39143">
        <ele>2607</ele>
        <time>2025-06-12T12:47:33.591Z</time>
      </trkpt>
      <trkpt lat="42.73598" lon="1.39141">
        <ele>2609</ele>
        <time>2025-06-12T12:47:45.848Z</time>
      </trkpt>
      <trkpt lat="42.73596" lon="1.39141">
        <ele>2609</ele>
        <time>2025-06-12T12:47:47.667Z</time>
      </trkpt>
      <trkpt lat="42.73595" lon="1.39146">
        <ele>2608</ele>
        <time>2025-06-12T12:47:50.557Z</time>
      </trkpt>
      <trkpt lat="42.73593" lon="1.39144">
        <ele>2610</ele>
        <time>2025-06-12T12:48:05.832Z</time>
      </trkpt>
      <trkpt lat="42.73591" lon="1.39147">
        <ele>2610</ele>
        <time>2025-06-12T12:48:08.612Z</time>
      </trkpt>
      <trkpt lat="42.73586" lon="1.39151">
        <ele>2612</ele>
        <time>2025-06-12T12:48:28.611Z</time>
      </trkpt>
      <trkpt lat="42.73587" lon="1.39155">
        <ele>2610</ele>
        <time>2025-06-12T12:48:30.882Z</time>
      </trkpt>
      <trkpt lat="42.73584" lon="1.39155">
        <ele>2611</ele>
        <time>2025-06-12T12:48:41.206Z</time>
      </trkpt>
      <trkpt lat="42.73581" lon="1.39161">
        <ele>2611</ele>
        <time>2025-06-12T12:48:46.139Z</time>
      </trkpt>
      <trkpt lat="42.73577" lon="1.39165">
        <ele>2612</ele>
        <time>2025-06-12T12:48:55.627Z</time>
      </trkpt>
      <trkpt lat="42.73576" lon="1.39165">
        <ele>2612</ele>
        <time>2025-06-12T12:48:56.967Z</time>
      </trkpt>
      <trkpt lat="42.73575" lon="1.39161">
        <ele>2614</ele>
        <time>2025-06-12T12:49:14.292Z</time>
      </trkpt>
      <trkpt lat="42.73573" lon="1.39161">
        <ele>2615</ele>
        <time>2025-06-12T12:49:24.847Z</time>
      </trkpt>
      <trkpt lat="42.73571" lon="1.39164">
        <ele>2615</ele>
        <time>2025-06-12T12:49:27.604Z</time>
      </trkpt>
      <trkpt lat="42.73566" lon="1.39168">
        <ele>2617</ele>
        <time>2025-06-12T12:49:47.050Z</time>
      </trkpt>
      <trkpt lat="42.73564" lon="1.39172">
        <ele>2616</ele>
        <time>2025-06-12T12:49:50.025Z</time>
      </trkpt>
      <trkpt lat="42.73561" lon="1.39176">
        <ele>2617</ele>
        <time>2025-06-12T12:49:59.433Z</time>
      </trkpt>
      <trkpt lat="42.73558" lon="1.39172">
        <ele>2620</ele>
        <time>2025-06-12T12:50:20.279Z</time>
      </trkpt>
      <trkpt lat="42.73556" lon="1.3917">
        <ele>2622</ele>
        <time>2025-06-12T12:50:32.951Z</time>
      </trkpt>
      <trkpt lat="42.73556" lon="1.3917">
        <ele>2622</ele>
        <time>2025-06-12T12:50:33.525Z</time>
      </trkpt>
      <trkpt lat="42.73554" lon="1.39172">
        <ele>2622</ele>
        <time>2025-06-12T12:50:36.271Z</time>
      </trkpt>
      <trkpt lat="42.73551" lon="1.39171">
        <ele>2624</ele>
        <time>2025-06-12T12:50:51.380Z</time>
      </trkpt>
      <trkpt lat="42.73549" lon="1.39168">
        <ele>2626</ele>
        <time>2025-06-12T12:51:05.183Z</time>
      </trkpt>
      <trkpt lat="42.73548" lon="1.39173">
        <ele>2625</ele>
        <time>2025-06-12T12:51:08.679Z</time>
      </trkpt>
      <trkpt lat="42.73543" lon="1.39173">
        <ele>2628</ele>
        <time>2025-06-12T12:51:32.301Z</time>
      </trkpt>
      <trkpt lat="42.7354" lon="1.39173">
        <ele>2629</ele>
        <time>2025-06-12T12:51:42.927Z</time>
      </trkpt>
      <trkpt lat="42.73537" lon="1.3917">
        <ele>2632</ele>
        <time>2025-06-12T12:52:04.412Z</time>
      </trkpt>
      <trkpt lat="42.73528" lon="1.39172">
        <ele>2636</ele>
        <time>2025-06-12T12:52:49.146Z</time>
      </trkpt>
      <trkpt lat="42.73519" lon="1.39165">
        <ele>2642</ele>
        <time>2025-06-12T12:53:41.352Z</time>
      </trkpt>
      <trkpt lat="42.73513" lon="1.3916">
        <ele>2644</ele>
        <time>2025-06-12T12:54:00.734Z</time>
      </trkpt>
      <trkpt lat="42.73511" lon="1.3916">
        <ele>2645</ele>
        <time>2025-06-12T12:54:11.170Z</time>
      </trkpt>
      <trkpt lat="42.73505" lon="1.3916">
        <ele>2646</ele>
        <time>2025-06-12T12:54:20.930Z</time>
      </trkpt>
      <trkpt lat="42.73503" lon="1.39159">
        <ele>2647</ele>
        <time>2025-06-12T12:54:31.397Z</time>
      </trkpt>
      <trkpt lat="42.73501" lon="1.39159">
        <ele>2647</ele>
        <time>2025-06-12T12:54:33.216Z</time>
      </trkpt>
      <trkpt lat="42.73498" lon="1.39159">
        <ele>2648</ele>
        <time>2025-06-12T12:54:43.652Z</time>
      </trkpt>
      <trkpt lat="42.73496" lon="1.39159">
        <ele>2648</ele>
        <time>2025-06-12T12:54:45.566Z</time>
      </trkpt>
      <trkpt lat="42.73493" lon="1.39161">
        <ele>2649</ele>
        <time>2025-06-12T12:54:55.066Z</time>
      </trkpt>
      <trkpt lat="42.7349" lon="1.39162">
        <ele>2649</ele>
        <time>2025-06-12T12:54:57.617Z</time>
      </trkpt>
      <trkpt lat="42.73487" lon="1.39165">
        <ele>2648</ele>
        <time>2025-06-12T12:55:01.159Z</time>
      </trkpt>
      <trkpt lat="42.73483" lon="1.39174">
        <ele>2645</ele>
        <time>2025-06-12T12:55:07.631Z</time>
      </trkpt>
      <trkpt lat="42.73487" lon="1.39181">
        <ele>2643</ele>
        <time>2025-06-12T12:55:12.755Z</time>
      </trkpt>
      <trkpt lat="42.73488" lon="1.39186">
        <ele>2641</ele>
        <time>2025-06-12T12:55:16.115Z</time>
      </trkpt>
      <trkpt lat="42.73482" lon="1.39189">
        <ele>2640</ele>
        <time>2025-06-12T12:55:20.755Z</time>
      </trkpt>
      <trkpt lat="42.73477" lon="1.39189">
        <ele>2639</ele>
        <time>2025-06-12T12:55:25.697Z</time>
      </trkpt>
      <trkpt lat="42.73474" lon="1.39194">
        <ele>2637</ele>
        <time>2025-06-12T12:55:29.716Z</time>
      </trkpt>
      <trkpt lat="42.73469" lon="1.39197">
        <ele>2636</ele>
        <time>2025-06-12T12:55:33.989Z</time>
      </trkpt>
      <trkpt lat="42.73467" lon="1.39201">
        <ele>2634</ele>
        <time>2025-06-12T12:55:37.183Z</time>
      </trkpt>
      <trkpt lat="42.73462" lon="1.3921">
        <ele>2629</ele>
        <time>2025-06-12T12:55:44.280Z</time>
      </trkpt>
      <trkpt lat="42.73457" lon="1.39214">
        <ele>2626</ele>
        <time>2025-06-12T12:55:49.269Z</time>
      </trkpt>
      <trkpt lat="42.73453" lon="1.3922">
        <ele>2623</ele>
        <time>2025-06-12T12:55:54.029Z</time>
      </trkpt>
      <trkpt lat="42.73446" lon="1.39228">
        <ele>2618</ele>
        <time>2025-06-12T12:56:01.814Z</time>
      </trkpt>
      <trkpt lat="42.7344" lon="1.39229">
        <ele>2617</ele>
        <time>2025-06-12T12:56:07.370Z</time>
      </trkpt>
      <trkpt lat="42.73436" lon="1.39234">
        <ele>2614</ele>
        <time>2025-06-12T12:56:11.692Z</time>
      </trkpt>
      <trkpt lat="42.73435" lon="1.39239">
        <ele>2612</ele>
        <time>2025-06-12T12:56:14.610Z</time>
      </trkpt>
      <trkpt lat="42.73433" lon="1.39244">
        <ele>2610</ele>
        <time>2025-06-12T12:56:18.331Z</time>
      </trkpt>
      <trkpt lat="42.73428" lon="1.39254">
        <ele>2606</ele>
        <time>2025-06-12T12:56:25.868Z</time>
      </trkpt>
      <trkpt lat="42.73428" lon="1.39261">
        <ele>2604</ele>
        <time>2025-06-12T12:56:30.387Z</time>
      </trkpt>
      <trkpt lat="42.73424" lon="1.39268">
        <ele>2602</ele>
        <time>2025-06-12T12:56:35.456Z</time>
      </trkpt>
      <trkpt lat="42.73422" lon="1.39275">
        <ele>2601</ele>
        <time>2025-06-12T12:56:40.135Z</time>
      </trkpt>
      <trkpt lat="42.73418" lon="1.39278">
        <ele>2600</ele>
        <time>2025-06-12T12:56:44.331Z</time>
      </trkpt>
      <trkpt lat="42.73412" lon="1.39277">
        <ele>2597</ele>
        <time>2025-06-12T12:56:48.797Z</time>
      </trkpt>
      <trkpt lat="42.73405" lon="1.39278">
        <ele>2593</ele>
        <time>2025-06-12T12:56:55.497Z</time>
      </trkpt>
      <trkpt lat="42.73393" lon="1.39281">
        <ele>2587</ele>
        <time>2025-06-12T12:57:05.024Z</time>
      </trkpt>
      <trkpt lat="42.73387" lon="1.39279">
        <ele>2583</ele>
        <time>2025-06-12T12:57:10.662Z</time>
      </trkpt>
      <trkpt lat="42.73384" lon="1.39281">
        <ele>2581</ele>
        <time>2025-06-12T12:57:13.180Z</time>
      </trkpt>
      <trkpt lat="42.73373" lon="1.39285">
        <ele>2574</ele>
        <time>2025-06-12T12:57:22.738Z</time>
      </trkpt>
      <trkpt lat="42.7337" lon="1.39284">
        <ele>2572</ele>
        <time>2025-06-12T12:57:25.640Z</time>
      </trkpt>
      <trkpt lat="42.73363" lon="1.39283">
        <ele>2568</ele>
        <time>2025-06-12T12:57:31.202Z</time>
      </trkpt>
      <trkpt lat="42.73358" lon="1.39284">
        <ele>2565</ele>
        <time>2025-06-12T12:57:35.104Z</time>
      </trkpt>
      <trkpt lat="42.73343" lon="1.39282">
        <ele>2557</ele>
        <time>2025-06-12T12:57:48.385Z</time>
      </trkpt>
      <trkpt lat="42.73332" lon="1.39284">
        <ele>2552</ele>
        <time>2025-06-12T12:57:57.333Z</time>
      </trkpt>
      <trkpt lat="42.73328" lon="1.39288">
        <ele>2550</ele>
        <time>2025-06-12T12:58:01.615Z</time>
      </trkpt>
      <trkpt lat="42.73328" lon="1.39302">
        <ele>2550</ele>
        <time>2025-06-12T12:58:11.037Z</time>
      </trkpt>
      <trkpt lat="42.73321" lon="1.39309">
        <ele>2547</ele>
        <time>2025-06-12T12:58:18.160Z</time>
      </trkpt>
      <trkpt lat="42.7331" lon="1.39323">
        <ele>2540</ele>
        <time>2025-06-12T12:58:31.455Z</time>
      </trkpt>
      <trkpt lat="42.73302" lon="1.39328">
        <ele>2536</ele>
        <time>2025-06-12T12:58:38.605Z</time>
      </trkpt>
      <trkpt lat="42.73292" lon="1.39327">
        <ele>2530</ele>
        <time>2025-06-12T12:58:46.410Z</time>
      </trkpt>
      <trkpt lat="42.73284" lon="1.39325">
        <ele>2526</ele>
        <time>2025-06-12T12:58:53.120Z</time>
      </trkpt>
      <trkpt lat="42.73277" lon="1.3932">
        <ele>2522</ele>
        <time>2025-06-12T12:59:00.005Z</time>
      </trkpt>
      <trkpt lat="42.7327" lon="1.39318">
        <ele>2518</ele>
        <time>2025-06-12T12:59:06.209Z</time>
      </trkpt>
      <trkpt lat="42.73265" lon="1.39315">
        <ele>2516</ele>
        <time>2025-06-12T12:59:10.405Z</time>
      </trkpt>
      <trkpt lat="42.73256" lon="1.39313">
        <ele>2510</ele>
        <time>2025-06-12T12:59:18.282Z</time>
      </trkpt>
      <trkpt lat="42.73251" lon="1.39309">
        <ele>2508</ele>
        <time>2025-06-12T12:59:22.991Z</time>
      </trkpt>
      <trkpt lat="42.73245" lon="1.39305">
        <ele>2505</ele>
        <time>2025-06-12T12:59:28.947Z</time>
      </trkpt>
      <trkpt lat="42.73238" lon="1.39303">
        <ele>2502</ele>
        <time>2025-06-12T12:59:34.719Z</time>
      </trkpt>
      <trkpt lat="42.7323" lon="1.39303">
        <ele>2498</ele>
        <time>2025-06-12T12:59:41.336Z</time>
      </trkpt>
      <trkpt lat="42.73224" lon="1.39305">
        <ele>2495</ele>
        <time>2025-06-12T12:59:46.550Z</time>
      </trkpt>
      <trkpt lat="42.7322" lon="1.39313">
        <ele>2491</ele>
        <time>2025-06-12T12:59:52.421Z</time>
      </trkpt>
      <trkpt lat="42.7322" lon="1.3932">
        <ele>2490</ele>
        <time>2025-06-12T12:59:56.790Z</time>
      </trkpt>
      <trkpt lat="42.73224" lon="1.39333">
        <ele>2489</ele>
        <time>2025-06-12T13:00:05.715Z</time>
      </trkpt>
      <trkpt lat="42.7323" lon="1.39348">
        <ele>2489</ele>
        <time>2025-06-12T13:00:17.804Z</time>
      </trkpt>
      <trkpt lat="42.7323" lon="1.39357">
        <ele>2487</ele>
        <time>2025-06-12T13:00:23.341Z</time>
      </trkpt>
      <trkpt lat="42.73227" lon="1.39371">
        <ele>2483</ele>
        <time>2025-06-12T13:00:31.928Z</time>
      </trkpt>
      <trkpt lat="42.73224" lon="1.3938">
        <ele>2481</ele>
        <time>2025-06-12T13:00:37.878Z</time>
      </trkpt>
      <trkpt lat="42.73218" lon="1.39384">
        <ele>2477</ele>
        <time>2025-06-12T13:00:44.034Z</time>
      </trkpt>
      <trkpt lat="42.73201" lon="1.39386">
        <ele>2470</ele>
        <time>2025-06-12T13:00:57.904Z</time>
      </trkpt>
      <trkpt lat="42.73189" lon="1.39389">
        <ele>2464</ele>
        <time>2025-06-12T13:01:08.589Z</time>
      </trkpt>
      <trkpt lat="42.7318" lon="1.39387">
        <ele>2461</ele>
        <time>2025-06-12T13:01:16.383Z</time>
      </trkpt>
      <trkpt lat="42.73173" lon="1.39393">
        <ele>2457</ele>
        <time>2025-06-12T13:01:22.865Z</time>
      </trkpt>
      <trkpt lat="42.73163" lon="1.394">
        <ele>2451</ele>
        <time>2025-06-12T13:01:32.238Z</time>
      </trkpt>
      <trkpt lat="42.73156" lon="1.394">
        <ele>2448</ele>
        <time>2025-06-12T13:01:37.766Z</time>
      </trkpt>
      <trkpt lat="42.73152" lon="1.39404">
        <ele>2445</ele>
        <time>2025-06-12T13:01:42.547Z</time>
      </trkpt>
      <trkpt lat="42.73147" lon="1.39407">
        <ele>2443</ele>
        <time>2025-06-12T13:01:46.820Z</time>
      </trkpt>
      <trkpt lat="42.73143" lon="1.39413">
        <ele>2440</ele>
        <time>2025-06-12T13:01:52.285Z</time>
      </trkpt>
      <trkpt lat="42.7313" lon="1.39425">
        <ele>2432</ele>
        <time>2025-06-12T13:02:04.957Z</time>
      </trkpt>
      <trkpt lat="42.73123" lon="1.39425">
        <ele>2429</ele>
        <time>2025-06-12T13:02:11.072Z</time>
      </trkpt>
      <trkpt lat="42.73116" lon="1.39425">
        <ele>2425</ele>
        <time>2025-06-12T13:02:17.103Z</time>
      </trkpt>
      <trkpt lat="42.73109" lon="1.39427">
        <ele>2421</ele>
        <time>2025-06-12T13:02:22.741Z</time>
      </trkpt>
      <trkpt lat="42.73104" lon="1.39431">
        <ele>2418</ele>
        <time>2025-06-12T13:02:27.486Z</time>
      </trkpt>
      <trkpt lat="42.73098" lon="1.39438">
        <ele>2414</ele>
        <time>2025-06-12T13:02:33.870Z</time>
      </trkpt>
      <trkpt lat="42.73092" lon="1.39437">
        <ele>2411</ele>
        <time>2025-06-12T13:02:39.350Z</time>
      </trkpt>
      <trkpt lat="42.73087" lon="1.39442">
        <ele>2408</ele>
        <time>2025-06-12T13:02:44.895Z</time>
      </trkpt>
      <trkpt lat="42.73083" lon="1.39439">
        <ele>2406</ele>
        <time>2025-06-12T13:02:48.634Z</time>
      </trkpt>
      <trkpt lat="42.73075" lon="1.39441">
        <ele>2402</ele>
        <time>2025-06-12T13:02:54.755Z</time>
      </trkpt>
      <trkpt lat="42.73072" lon="1.39444">
        <ele>2400</ele>
        <time>2025-06-12T13:02:58.052Z</time>
      </trkpt>
      <trkpt lat="42.73071" lon="1.39449">
        <ele>2398</ele>
        <time>2025-06-12T13:03:01.607Z</time>
      </trkpt>
      <trkpt lat="42.73069" lon="1.39455">
        <ele>2396</ele>
        <time>2025-06-12T13:03:05.634Z</time>
      </trkpt>
      <trkpt lat="42.73064" lon="1.39457">
        <ele>2393</ele>
        <time>2025-06-12T13:03:10.209Z</time>
      </trkpt>
      <trkpt lat="42.73044" lon="1.39479">
        <ele>2380</ele>
        <time>2025-06-12T13:03:31.462Z</time>
      </trkpt>
      <trkpt lat="42.73042" lon="1.39487">
        <ele>2378</ele>
        <time>2025-06-12T13:03:36.845Z</time>
      </trkpt>
      <trkpt lat="42.73038" lon="1.39498">
        <ele>2374</ele>
        <time>2025-06-12T13:03:44.232Z</time>
      </trkpt>
      <trkpt lat="42.73036" lon="1.39508">
        <ele>2372</ele>
        <time>2025-06-12T13:03:51.026Z</time>
      </trkpt>
      <trkpt lat="42.73034" lon="1.39519">
        <ele>2370</ele>
        <time>2025-06-12T13:03:57.800Z</time>
      </trkpt>
      <trkpt lat="42.73028" lon="1.39529">
        <ele>2366</ele>
        <time>2025-06-12T13:04:05.697Z</time>
      </trkpt>
      <trkpt lat="42.73024" lon="1.39531">
        <ele>2364</ele>
        <time>2025-06-12T13:04:09.225Z</time>
      </trkpt>
      <trkpt lat="42.7302" lon="1.39532">
        <ele>2361</ele>
        <time>2025-06-12T13:04:13.118Z</time>
      </trkpt>
      <trkpt lat="42.73015" lon="1.39533">
        <ele>2359</ele>
        <time>2025-06-12T13:04:17.600Z</time>
      </trkpt>
      <trkpt lat="42.73009" lon="1.39537">
        <ele>2355</ele>
        <time>2025-06-12T13:04:22.729Z</time>
      </trkpt>
      <trkpt lat="42.73003" lon="1.3954">
        <ele>2352</ele>
        <time>2025-06-12T13:04:28.581Z</time>
      </trkpt>
      <trkpt lat="42.72994" lon="1.39542">
        <ele>2347</ele>
        <time>2025-06-12T13:04:35.797Z</time>
      </trkpt>
      <trkpt lat="42.72989" lon="1.39543">
        <ele>2344</ele>
        <time>2025-06-12T13:04:40.263Z</time>
      </trkpt>
      <trkpt lat="42.72985" lon="1.39543">
        <ele>2342</ele>
        <time>2025-06-12T13:04:43.577Z</time>
      </trkpt>
      <trkpt lat="42.72984" lon="1.39546">
        <ele>2341</ele>
        <time>2025-06-12T13:04:45.610Z</time>
      </trkpt>
      <trkpt lat="42.72983" lon="1.39548">
        <ele>2341</ele>
        <time>2025-06-12T13:04:46.936Z</time>
      </trkpt>
      <trkpt lat="42.72981" lon="1.39552">
        <ele>2339</ele>
        <time>2025-06-12T13:04:50.269Z</time>
      </trkpt>
      <trkpt lat="42.72977" lon="1.39559">
        <ele>2337</ele>
        <time>2025-06-12T13:04:55.338Z</time>
      </trkpt>
      <trkpt lat="42.72972" lon="1.39564">
        <ele>2333</ele>
        <time>2025-06-12T13:05:00.816Z</time>
      </trkpt>
      <trkpt lat="42.72968" lon="1.39576">
        <ele>2330</ele>
        <time>2025-06-12T13:05:08.470Z</time>
      </trkpt>
      <trkpt lat="42.72966" lon="1.39581">
        <ele>2329</ele>
        <time>2025-06-12T13:05:12.191Z</time>
      </trkpt>
      <trkpt lat="42.72966" lon="1.39582">
        <ele>2329</ele>
        <time>2025-06-12T13:05:12.824Z</time>
      </trkpt>
      <trkpt lat="42.72962" lon="1.39585">
        <ele>2327</ele>
        <time>2025-06-12T13:05:16.564Z</time>
      </trkpt>
      <trkpt lat="42.72955" lon="1.39587">
        <ele>2323</ele>
        <time>2025-06-12T13:05:22.820Z</time>
      </trkpt>
      <trkpt lat="42.7295" lon="1.39593">
        <ele>2320</ele>
        <time>2025-06-12T13:05:28.365Z</time>
      </trkpt>
      <trkpt lat="42.72947" lon="1.39597">
        <ele>2317</ele>
        <time>2025-06-12T13:05:32.277Z</time>
      </trkpt>
      <trkpt lat="42.72943" lon="1.39604">
        <ele>2315</ele>
        <time>2025-06-12T13:05:37.038Z</time>
      </trkpt>
      <trkpt lat="42.72939" lon="1.39608">
        <ele>2312</ele>
        <time>2025-06-12T13:05:41.747Z</time>
      </trkpt>
      <trkpt lat="42.72933" lon="1.3961">
        <ele>2309</ele>
        <time>2025-06-12T13:05:46.907Z</time>
      </trkpt>
      <trkpt lat="42.72928" lon="1.39614">
        <ele>2307</ele>
        <time>2025-06-12T13:05:51.616Z</time>
      </trkpt>
      <trkpt lat="42.72924" lon="1.39621">
        <ele>2304</ele>
        <time>2025-06-12T13:05:56.740Z</time>
      </trkpt>
      <trkpt lat="42.7292" lon="1.39627">
        <ele>2301</ele>
        <time>2025-06-12T13:06:01.857Z</time>
      </trkpt>
      <trkpt lat="42.72919" lon="1.39635">
        <ele>2300</ele>
        <time>2025-06-12T13:06:06.917Z</time>
      </trkpt>
      <trkpt lat="42.72919" lon="1.3964">
        <ele>2299</ele>
        <time>2025-06-12T13:06:10.239Z</time>
      </trkpt>
      <trkpt lat="42.72918" lon="1.39647">
        <ele>2298</ele>
        <time>2025-06-12T13:06:14.266Z</time>
      </trkpt>
      <trkpt lat="42.72916" lon="1.39658">
        <ele>2296</ele>
        <time>2025-06-12T13:06:21.486Z</time>
      </trkpt>
      <trkpt lat="42.72915" lon="1.39667">
        <ele>2295</ele>
        <time>2025-06-12T13:06:26.648Z</time>
      </trkpt>
      <trkpt lat="42.7291" lon="1.39675">
        <ele>2292</ele>
        <time>2025-06-12T13:06:33.322Z</time>
      </trkpt>
      <trkpt lat="42.72906" lon="1.3968">
        <ele>2290</ele>
        <time>2025-06-12T13:06:37.938Z</time>
      </trkpt>
      <trkpt lat="42.72898" lon="1.39685">
        <ele>2286</ele>
        <time>2025-06-12T13:06:45.135Z</time>
      </trkpt>
      <trkpt lat="42.7289" lon="1.39687">
        <ele>2282</ele>
        <time>2025-06-12T13:06:52.039Z</time>
      </trkpt>
      <trkpt lat="42.72882" lon="1.39688">
        <ele>2279</ele>
        <time>2025-06-12T13:06:58.675Z</time>
      </trkpt>
      <trkpt lat="42.72877" lon="1.39694">
        <ele>2276</ele>
        <time>2025-06-12T13:07:04.568Z</time>
      </trkpt>
      <trkpt lat="42.72867" lon="1.39703">
        <ele>2271</ele>
        <time>2025-06-12T13:07:14.058Z</time>
      </trkpt>
      <trkpt lat="42.72859" lon="1.39707">
        <ele>2267</ele>
        <time>2025-06-12T13:07:21.594Z</time>
      </trkpt>
      <trkpt lat="42.72852" lon="1.39711">
        <ele>2263</ele>
        <time>2025-06-12T13:07:27.550Z</time>
      </trkpt>
      <trkpt lat="42.72843" lon="1.39722">
        <ele>2258</ele>
        <time>2025-06-12T13:07:38.096Z</time>
      </trkpt>
      <trkpt lat="42.72834" lon="1.3973">
        <ele>2253</ele>
        <time>2025-06-12T13:07:46.821Z</time>
      </trkpt>
      <trkpt lat="42.72826" lon="1.39736">
        <ele>2248</ele>
        <time>2025-06-12T13:07:54.754Z</time>
      </trkpt>
      <trkpt lat="42.72819" lon="1.39736">
        <ele>2244</ele>
        <time>2025-06-12T13:08:00.282Z</time>
      </trkpt>
      <trkpt lat="42.72813" lon="1.39736">
        <ele>2241</ele>
        <time>2025-06-12T13:08:05.224Z</time>
      </trkpt>
      <trkpt lat="42.72811" lon="1.39739">
        <ele>2239</ele>
        <time>2025-06-12T13:08:08.330Z</time>
      </trkpt>
      <trkpt lat="42.72809" lon="1.39747">
        <ele>2238</ele>
        <time>2025-06-12T13:08:13.510Z</time>
      </trkpt>
      <trkpt lat="42.72803" lon="1.39752">
        <ele>2235</ele>
        <time>2025-06-12T13:08:19.145Z</time>
      </trkpt>
      <trkpt lat="42.72798" lon="1.39755">
        <ele>2232</ele>
        <time>2025-06-12T13:08:24.359Z</time>
      </trkpt>
      <trkpt lat="42.72791" lon="1.39756">
        <ele>2229</ele>
        <time>2025-06-12T13:08:30.068Z</time>
      </trkpt>
      <trkpt lat="42.72783" lon="1.39758">
        <ele>2225</ele>
        <time>2025-06-12T13:08:36.788Z</time>
      </trkpt>
      <trkpt lat="42.72774" lon="1.39764">
        <ele>2220</ele>
        <time>2025-06-12T13:08:44.968Z</time>
      </trkpt>
      <trkpt lat="42.7277" lon="1.3977">
        <ele>2218</ele>
        <time>2025-06-12T13:08:50.056Z</time>
      </trkpt>
      <trkpt lat="42.72765" lon="1.39777">
        <ele>2215</ele>
        <time>2025-06-12T13:08:56.269Z</time>
      </trkpt>
      <trkpt lat="42.72759" lon="1.39784">
        <ele>2212</ele>
        <time>2025-06-12T13:09:02.497Z</time>
      </trkpt>
      <trkpt lat="42.72755" lon="1.39792">
        <ele>2209</ele>
        <time>2025-06-12T13:09:08.503Z</time>
      </trkpt>
      <trkpt lat="42.72753" lon="1.39799">
        <ele>2208</ele>
        <time>2025-06-12T13:09:12.726Z</time>
      </trkpt>
      <trkpt lat="42.72751" lon="1.39806">
        <ele>2206</ele>
        <time>2025-06-12T13:09:17.663Z</time>
      </trkpt>
      <trkpt lat="42.72745" lon="1.39807">
        <ele>2203</ele>
        <time>2025-06-12T13:09:22.726Z</time>
      </trkpt>
      <trkpt lat="42.7274" lon="1.39809">
        <ele>2200</ele>
        <time>2025-06-12T13:09:26.821Z</time>
      </trkpt>
      <trkpt lat="42.72733" lon="1.39813">
        <ele>2197</ele>
        <time>2025-06-12T13:09:32.832Z</time>
      </trkpt>
      <trkpt lat="42.72728" lon="1.39816">
        <ele>2194</ele>
        <time>2025-06-12T13:09:37.793Z</time>
      </trkpt>
      <trkpt lat="42.72726" lon="1.39821">
        <ele>2192</ele>
        <time>2025-06-12T13:09:41.365Z</time>
      </trkpt>
      <trkpt lat="42.72723" lon="1.39823">
        <ele>2191</ele>
        <time>2025-06-12T13:09:43.808Z</time>
      </trkpt>
      <trkpt lat="42.72714" lon="1.39818">
        <ele>2186</ele>
        <time>2025-06-12T13:09:51.525Z</time>
      </trkpt>
      <trkpt lat="42.7271" lon="1.3982">
        <ele>2184</ele>
        <time>2025-06-12T13:09:55.054Z</time>
      </trkpt>
      <trkpt lat="42.72705" lon="1.39825">
        <ele>2181</ele>
        <time>2025-06-12T13:10:00.286Z</time>
      </trkpt>
      <trkpt lat="42.72703" lon="1.39829">
        <ele>2180</ele>
        <time>2025-06-12T13:10:03.523Z</time>
      </trkpt>
      <trkpt lat="42.72702" lon="1.39835">
        <ele>2180</ele>
        <time>2025-06-12T13:10:08.100Z</time>
      </trkpt>
      <trkpt lat="42.72699" lon="1.3984">
        <ele>2178</ele>
        <time>2025-06-12T13:10:11.969Z</time>
      </trkpt>
      <trkpt lat="42.72693" lon="1.39845">
        <ele>2175</ele>
        <time>2025-06-12T13:10:17.551Z</time>
      </trkpt>
      <trkpt lat="42.72687" lon="1.39853">
        <ele>2172</ele>
        <time>2025-06-12T13:10:24.586Z</time>
      </trkpt>
      <trkpt lat="42.72682" lon="1.3986">
        <ele>2170</ele>
        <time>2025-06-12T13:10:30.755Z</time>
      </trkpt>
      <trkpt lat="42.72675" lon="1.39869">
        <ele>2167</ele>
        <time>2025-06-12T13:10:38.683Z</time>
      </trkpt>
      <trkpt lat="42.72666" lon="1.39877">
        <ele>2164</ele>
        <time>2025-06-12T13:10:47.860Z</time>
      </trkpt>
      <trkpt lat="42.72658" lon="1.39879">
        <ele>2161</ele>
        <time>2025-06-12T13:10:54.181Z</time>
      </trkpt>
      <trkpt lat="42.72654" lon="1.39883">
        <ele>2159</ele>
        <time>2025-06-12T13:10:58.232Z</time>
      </trkpt>
      <trkpt lat="42.72649" lon="1.39887">
        <ele>2157</ele>
        <time>2025-06-12T13:11:03.360Z</time>
      </trkpt>
      <trkpt lat="42.72643" lon="1.39888">
        <ele>2155</ele>
        <time>2025-06-12T13:11:08.416Z</time>
      </trkpt>
      <trkpt lat="42.72638" lon="1.3989">
        <ele>2153</ele>
        <time>2025-06-12T13:11:12.443Z</time>
      </trkpt>
      <trkpt lat="42.72636" lon="1.39893">
        <ele>2152</ele>
        <time>2025-06-12T13:11:15.182Z</time>
      </trkpt>
      <trkpt lat="42.72626" lon="1.39896">
        <ele>2148</ele>
        <time>2025-06-12T13:11:23.640Z</time>
      </trkpt>
      <trkpt lat="42.72623" lon="1.39898">
        <ele>2147</ele>
        <time>2025-06-12T13:11:26.446Z</time>
      </trkpt>
      <trkpt lat="42.72617" lon="1.39897">
        <ele>2144</ele>
        <time>2025-06-12T13:11:31.426Z</time>
      </trkpt>
      <trkpt lat="42.7261" lon="1.39894">
        <ele>2140</ele>
        <time>2025-06-12T13:11:37.930Z</time>
      </trkpt>
      <trkpt lat="42.72603" lon="1.39893">
        <ele>2136</ele>
        <time>2025-06-12T13:11:43.480Z</time>
      </trkpt>
      <trkpt lat="42.72595" lon="1.39896">
        <ele>2131</ele>
        <time>2025-06-12T13:11:50.918Z</time>
      </trkpt>
      <trkpt lat="42.7259" lon="1.39896">
        <ele>2128</ele>
        <time>2025-06-12T13:11:54.886Z</time>
      </trkpt>
      <trkpt lat="42.72587" lon="1.39896">
        <ele>2126</ele>
        <time>2025-06-12T13:11:57.694Z</time>
      </trkpt>
      <trkpt lat="42.72578" lon="1.39897">
        <ele>2121</ele>
        <time>2025-06-12T13:12:04.918Z</time>
      </trkpt>
      <trkpt lat="42.72574" lon="1.399">
        <ele>2118</ele>
        <time>2025-06-12T13:12:09.038Z</time>
      </trkpt>
      <trkpt lat="42.72566" lon="1.39908">
        <ele>2113</ele>
        <time>2025-06-12T13:12:17.030Z</time>
      </trkpt>
      <trkpt lat="42.72563" lon="1.39915">
        <ele>2111</ele>
        <time>2025-06-12T13:12:22.156Z</time>
      </trkpt>
      <trkpt lat="42.7256" lon="1.39923">
        <ele>2109</ele>
        <time>2025-06-12T13:12:27.378Z</time>
      </trkpt>
      <trkpt lat="42.72556" lon="1.39931">
        <ele>2107</ele>
        <time>2025-06-12T13:12:33.384Z</time>
      </trkpt>
      <trkpt lat="42.72553" lon="1.39938">
        <ele>2105</ele>
        <time>2025-06-12T13:12:38.606Z</time>
      </trkpt>
      <trkpt lat="42.72549" lon="1.39938">
        <ele>2103</ele>
        <time>2025-06-12T13:12:41.370Z</time>
      </trkpt>
      <trkpt lat="42.72547" lon="1.39935">
        <ele>2101</ele>
        <time>2025-06-12T13:12:44.147Z</time>
      </trkpt>
      <trkpt lat="42.72544" lon="1.39932">
        <ele>2100</ele>
        <time>2025-06-12T13:12:46.953Z</time>
      </trkpt>
      <trkpt lat="42.72541" lon="1.39928">
        <ele>2098</ele>
        <time>2025-06-12T13:12:50.763Z</time>
      </trkpt>
      <trkpt lat="42.72537" lon="1.39925">
        <ele>2095</ele>
        <time>2025-06-12T13:12:54.578Z</time>
      </trkpt>
      <trkpt lat="42.72534" lon="1.39927">
        <ele>2093</ele>
        <time>2025-06-12T13:12:57.478Z</time>
      </trkpt>
      <trkpt lat="42.72528" lon="1.39926">
        <ele>2090</ele>
        <time>2025-06-12T13:13:02.458Z</time>
      </trkpt>
      <trkpt lat="42.72522" lon="1.39926">
        <ele>2087</ele>
        <time>2025-06-12T13:13:06.898Z</time>
      </trkpt>
      <trkpt lat="42.72517" lon="1.39927">
        <ele>2084</ele>
        <time>2025-06-12T13:13:11.380Z</time>
      </trkpt>
      <trkpt lat="42.72515" lon="1.39931">
        <ele>2083</ele>
        <time>2025-06-12T13:13:14.157Z</time>
      </trkpt>
      <trkpt lat="42.72514" lon="1.39935">
        <ele>2083</ele>
        <time>2025-06-12T13:13:17.323Z</time>
      </trkpt>
      <trkpt lat="42.72514" lon="1.39943">
        <ele>2083</ele>
        <time>2025-06-12T13:13:23.090Z</time>
      </trkpt>
      <trkpt lat="42.72514" lon="1.3995">
        <ele>2083</ele>
        <time>2025-06-12T13:13:28.116Z</time>
      </trkpt>
      <trkpt lat="42.72509" lon="1.39956">
        <ele>2081</ele>
        <time>2025-06-12T13:13:33.307Z</time>
      </trkpt>
      <trkpt lat="42.72508" lon="1.39961">
        <ele>2081</ele>
        <time>2025-06-12T13:13:37.303Z</time>
      </trkpt>
      <trkpt lat="42.72506" lon="1.39968">
        <ele>2082</ele>
        <time>2025-06-12T13:13:46.851Z</time>
      </trkpt>
      <trkpt lat="42.72504" lon="1.39976">
        <ele>2082</ele>
        <time>2025-06-12T13:13:53.623Z</time>
      </trkpt>
      <trkpt lat="42.725" lon="1.39985">
        <ele>2082</ele>
        <time>2025-06-12T13:14:00.971Z</time>
      </trkpt>
      <trkpt lat="42.72495" lon="1.39991">
        <ele>2081</ele>
        <time>2025-06-12T13:14:06.450Z</time>
      </trkpt>
      <trkpt lat="42.7249" lon="1.39997">
        <ele>2081</ele>
        <time>2025-06-12T13:14:12.764Z</time>
      </trkpt>
      <trkpt lat="42.72487" lon="1.40005">
        <ele>2083</ele>
        <time>2025-06-12T13:14:31.996Z</time>
      </trkpt>
      <trkpt lat="42.72483" lon="1.40014">
        <ele>2085</ele>
        <time>2025-06-12T13:14:50.836Z</time>
      </trkpt>
      <trkpt lat="42.72477" lon="1.40017">
        <ele>2083</ele>
        <time>2025-06-12T13:14:55.497Z</time>
      </trkpt>
      <trkpt lat="42.72471" lon="1.40019">
        <ele>2080</ele>
        <time>2025-06-12T13:15:01.136Z</time>
      </trkpt>
      <trkpt lat="42.72466" lon="1.40022">
        <ele>2079</ele>
        <time>2025-06-12T13:15:06.097Z</time>
      </trkpt>
      <trkpt lat="42.7246" lon="1.40028">
        <ele>2078</ele>
        <time>2025-06-12T13:15:12.018Z</time>
      </trkpt>
      <trkpt lat="42.72454" lon="1.40029">
        <ele>2076</ele>
        <time>2025-06-12T13:15:16.609Z</time>
      </trkpt>
      <trkpt lat="42.72449" lon="1.40034">
        <ele>2075</ele>
        <time>2025-06-12T13:15:21.809Z</time>
      </trkpt>
      <trkpt lat="42.72442" lon="1.40039">
        <ele>2074</ele>
        <time>2025-06-12T13:15:28.259Z</time>
      </trkpt>
      <trkpt lat="42.72438" lon="1.40042">
        <ele>2073</ele>
        <time>2025-06-12T13:15:32.480Z</time>
      </trkpt>
      <trkpt lat="42.72433" lon="1.40047">
        <ele>2072</ele>
        <time>2025-06-12T13:15:37.632Z</time>
      </trkpt>
      <trkpt lat="42.72427" lon="1.40053">
        <ele>2069</ele>
        <time>2025-06-12T13:15:44.010Z</time>
      </trkpt>
      <trkpt lat="42.72421" lon="1.40054">
        <ele>2065</ele>
        <time>2025-06-12T13:15:48.484Z</time>
      </trkpt>
      <trkpt lat="42.72415" lon="1.4005">
        <ele>2058</ele>
        <time>2025-06-12T13:15:53.900Z</time>
      </trkpt>
      <trkpt lat="42.72407" lon="1.4005">
        <ele>2050</ele>
        <time>2025-06-12T13:16:01.104Z</time>
      </trkpt>
      <trkpt lat="42.724" lon="1.40047">
        <ele>2041</ele>
        <time>2025-06-12T13:16:06.956Z</time>
      </trkpt>
      <trkpt lat="42.72392" lon="1.40055">
        <ele>2036</ele>
        <time>2025-06-12T13:16:14.886Z</time>
      </trkpt>
      <trkpt lat="42.72388" lon="1.40056">
        <ele>2032</ele>
        <time>2025-06-12T13:16:18.913Z</time>
      </trkpt>
      <trkpt lat="42.72384" lon="1.40057">
        <ele>2029</ele>
        <time>2025-06-12T13:16:21.720Z</time>
      </trkpt>
      <trkpt lat="42.7238" lon="1.40055">
        <ele>2023</ele>
        <time>2025-06-12T13:16:25.916Z</time>
      </trkpt>
      <trkpt lat="42.72374" lon="1.40053">
        <ele>2016</ele>
        <time>2025-06-12T13:16:30.968Z</time>
      </trkpt>
      <trkpt lat="42.72367" lon="1.40053">
        <ele>2008</ele>
        <time>2025-06-12T13:16:36.496Z</time>
      </trkpt>
      <trkpt lat="42.72363" lon="1.40053">
        <ele>2003</ele>
        <time>2025-06-12T13:16:40.433Z</time>
      </trkpt>
      <trkpt lat="42.72359" lon="1.4005">
        <ele>1999</ele>
        <time>2025-06-12T13:16:44.098Z</time>
      </trkpt>
      <trkpt lat="42.72351" lon="1.40055">
        <ele>1993</ele>
        <time>2025-06-12T13:16:51.475Z</time>
      </trkpt>
      <trkpt lat="42.72348" lon="1.4006">
        <ele>1993</ele>
        <time>2025-06-12T13:16:55.616Z</time>
      </trkpt>
      <trkpt lat="42.72346" lon="1.4006">
        <ele>1991</ele>
        <time>2025-06-12T13:16:57.291Z</time>
      </trkpt>
      <trkpt lat="42.72345" lon="1.40059">
        <ele>1989</ele>
        <time>2025-06-12T13:16:58.439Z</time>
      </trkpt>
      <trkpt lat="42.72344" lon="1.40054">
        <ele>1987</ele>
        <time>2025-06-12T13:17:01.813Z</time>
      </trkpt>
      <trkpt lat="42.72341" lon="1.40049">
        <ele>1984</ele>
        <time>2025-06-12T13:17:05.436Z</time>
      </trkpt>
      <trkpt lat="42.72338" lon="1.40047">
        <ele>1980</ele>
        <time>2025-06-12T13:17:08.392Z</time>
      </trkpt>
      <trkpt lat="42.72336" lon="1.40048">
        <ele>1979</ele>
        <time>2025-06-12T13:17:10.058Z</time>
      </trkpt>
      <trkpt lat="42.72333" lon="1.40051">
        <ele>1977</ele>
        <time>2025-06-12T13:17:13.386Z</time>
      </trkpt>
      <trkpt lat="42.72333" lon="1.40055">
        <ele>1978</ele>
        <time>2025-06-12T13:17:23.110Z</time>
      </trkpt>
      <trkpt lat="42.72327" lon="1.40059">
        <ele>1975</ele>
        <time>2025-06-12T13:17:28.551Z</time>
      </trkpt>
      <trkpt lat="42.72324" lon="1.40063">
        <ele>1974</ele>
        <time>2025-06-12T13:17:32.093Z</time>
      </trkpt>
      <trkpt lat="42.7232" lon="1.40065">
        <ele>1973</ele>
        <time>2025-06-12T13:17:35.318Z</time>
      </trkpt>
      <trkpt lat="42.72317" lon="1.40067">
        <ele>1971</ele>
        <time>2025-06-12T13:17:38.274Z</time>
      </trkpt>
      <trkpt lat="42.72314" lon="1.40064">
        <ele>1967</ele>
        <time>2025-06-12T13:17:41.499Z</time>
      </trkpt>
      <trkpt lat="42.7231" lon="1.40063">
        <ele>1964</ele>
        <time>2025-06-12T13:17:44.454Z</time>
      </trkpt>
      <trkpt lat="42.72308" lon="1.4006">
        <ele>1961</ele>
        <time>2025-06-12T13:17:47.261Z</time>
      </trkpt>
      <trkpt lat="42.72306" lon="1.40057">
        <ele>1959</ele>
        <time>2025-06-12T13:17:49.606Z</time>
      </trkpt>
      <trkpt lat="42.72302" lon="1.40056">
        <ele>1955</ele>
        <time>2025-06-12T13:17:52.993Z</time>
      </trkpt>
      <trkpt lat="42.72298" lon="1.40053">
        <ele>1952</ele>
        <time>2025-06-12T13:17:56.940Z</time>
      </trkpt>
      <trkpt lat="42.72295" lon="1.40054">
        <ele>1950</ele>
        <time>2025-06-12T13:17:59.759Z</time>
      </trkpt>
      <trkpt lat="42.7229" lon="1.40059">
        <ele>1946</ele>
        <time>2025-06-12T13:18:04.847Z</time>
      </trkpt>
      <trkpt lat="42.72286" lon="1.40059">
        <ele>1943</ele>
        <time>2025-06-12T13:18:08.198Z</time>
      </trkpt>
      <trkpt lat="42.72281" lon="1.40055">
        <ele>1939</ele>
        <time>2025-06-12T13:18:12.673Z</time>
      </trkpt>
      <trkpt lat="42.72275" lon="1.40057">
        <ele>1935</ele>
        <time>2025-06-12T13:18:17.820Z</time>
      </trkpt>
      <trkpt lat="42.72272" lon="1.40058">
        <ele>1933</ele>
        <time>2025-06-12T13:18:20.639Z</time>
      </trkpt>
      <trkpt lat="42.72268" lon="1.40055">
        <ele>1929</ele>
        <time>2025-06-12T13:18:24.835Z</time>
      </trkpt>
      <trkpt lat="42.72262" lon="1.40055">
        <ele>1925</ele>
        <time>2025-06-12T13:18:29.309Z</time>
      </trkpt>
      <trkpt lat="42.72258" lon="1.40057">
        <ele>1922</ele>
        <time>2025-06-12T13:18:32.974Z</time>
      </trkpt>
      <trkpt lat="42.72253" lon="1.40056">
        <ele>1918</ele>
        <time>2025-06-12T13:18:37.440Z</time>
      </trkpt>
      <trkpt lat="42.72244" lon="1.40054">
        <ele>1911</ele>
        <time>2025-06-12T13:18:44.833Z</time>
      </trkpt>
      <trkpt lat="42.72239" lon="1.40055">
        <ele>1907</ele>
        <time>2025-06-12T13:18:49.394Z</time>
      </trkpt>
      <trkpt lat="42.72233" lon="1.40056">
        <ele>1901</ele>
        <time>2025-06-12T13:18:54.873Z</time>
      </trkpt>
      <trkpt lat="42.72225" lon="1.40059">
        <ele>1896</ele>
        <time>2025-06-12T13:19:01.210Z</time>
      </trkpt>
      <trkpt lat="42.72218" lon="1.4006">
        <ele>1890</ele>
        <time>2025-06-12T13:19:07.350Z</time>
      </trkpt>
      <trkpt lat="42.72212" lon="1.4006">
        <ele>1885</ele>
        <time>2025-06-12T13:19:12.794Z</time>
      </trkpt>
      <trkpt lat="42.72207" lon="1.40062">
        <ele>1881</ele>
        <time>2025-06-12T13:19:16.868Z</time>
      </trkpt>
      <trkpt lat="42.72203" lon="1.40063">
        <ele>1878</ele>
        <time>2025-06-12T13:19:20.192Z</time>
      </trkpt>
      <trkpt lat="42.722" lon="1.40066">
        <ele>1877</ele>
        <time>2025-06-12T13:19:23.315Z</time>
      </trkpt>
      <trkpt lat="42.72198" lon="1.40068">
        <ele>1875</ele>
        <time>2025-06-12T13:19:25.758Z</time>
      </trkpt>
      <trkpt lat="42.72198" lon="1.40072">
        <ele>1875</ele>
        <time>2025-06-12T13:19:28.360Z</time>
      </trkpt>
      <trkpt lat="42.72199" lon="1.40078">
        <ele>1876</ele>
        <time>2025-06-12T13:19:37.862Z</time>
      </trkpt>
      <trkpt lat="42.72189" lon="1.40082">
        <ele>1868</ele>
        <time>2025-06-12T13:19:46.624Z</time>
      </trkpt>
      <trkpt lat="42.7219" lon="1.40087">
        <ele>1870</ele>
        <time>2025-06-12T13:20:04.134Z</time>
      </trkpt>
      <trkpt lat="42.72188" lon="1.40092">
        <ele>1868</ele>
        <time>2025-06-12T13:20:07.911Z</time>
      </trkpt>
      <trkpt lat="42.72185" lon="1.40097">
        <ele>1867</ele>
        <time>2025-06-12T13:20:11.780Z</time>
      </trkpt>
      <trkpt lat="42.72182" lon="1.401">
        <ele>1866</ele>
        <time>2025-06-12T13:20:14.931Z</time>
      </trkpt>
      <trkpt lat="42.7218" lon="1.40099">
        <ele>1863</ele>
        <time>2025-06-12T13:20:17.449Z</time>
      </trkpt>
      <trkpt lat="42.72176" lon="1.40099">
        <ele>1860</ele>
        <time>2025-06-12T13:20:20.716Z</time>
      </trkpt>
      <trkpt lat="42.72174" lon="1.40096">
        <ele>1857</ele>
        <time>2025-06-12T13:20:23.119Z</time>
      </trkpt>
      <trkpt lat="42.72168" lon="1.401">
        <ele>1853</ele>
        <time>2025-06-12T13:20:28.815Z</time>
      </trkpt>
      <trkpt lat="42.72164" lon="1.40102">
        <ele>1851</ele>
        <time>2025-06-12T13:20:32.325Z</time>
      </trkpt>
      <trkpt lat="42.7216" lon="1.401">
        <ele>1847</ele>
        <time>2025-06-12T13:20:35.755Z</time>
      </trkpt>
      <trkpt lat="42.72157" lon="1.40098">
        <ele>1843</ele>
        <time>2025-06-12T13:20:38.980Z</time>
      </trkpt>
      <trkpt lat="42.72151" lon="1.40104">
        <ele>1841</ele>
        <time>2025-06-12T13:20:44.874Z</time>
      </trkpt>
      <trkpt lat="42.72146" lon="1.40105">
        <ele>1837</ele>
        <time>2025-06-12T13:20:49.341Z</time>
      </trkpt>
      <trkpt lat="42.72144" lon="1.40103">
        <ele>1834</ele>
        <time>2025-06-12T13:20:51.784Z</time>
      </trkpt>
      <trkpt lat="42.7214" lon="1.40104">
        <ele>1832</ele>
        <time>2025-06-12T13:20:54.616Z</time>
      </trkpt>
      <trkpt lat="42.72136" lon="1.4011">
        <ele>1831</ele>
        <time>2025-06-12T13:20:59.740Z</time>
      </trkpt>
      <trkpt lat="42.72131" lon="1.40121">
        <ele>1831</ele>
        <time>2025-06-12T13:21:08.816Z</time>
      </trkpt>
      <trkpt lat="42.72124" lon="1.4013">
        <ele>1831</ele>
        <time>2025-06-12T13:21:17.759Z</time>
      </trkpt>
      <trkpt lat="42.7212" lon="1.40136">
        <ele>1832</ele>
        <time>2025-06-12T13:21:27.991Z</time>
      </trkpt>
      <trkpt lat="42.72116" lon="1.40141">
        <ele>1832</ele>
        <time>2025-06-12T13:21:33.373Z</time>
      </trkpt>
      <trkpt lat="42.72109" lon="1.40135">
        <ele>1825</ele>
        <time>2025-06-12T13:21:40.229Z</time>
      </trkpt>
      <trkpt lat="42.72101" lon="1.40133">
        <ele>1820</ele>
        <time>2025-06-12T13:21:46.566Z</time>
      </trkpt>
      <trkpt lat="42.72099" lon="1.40131">
        <ele>1819</ele>
        <time>2025-06-12T13:21:48.574Z</time>
      </trkpt>
      <trkpt lat="42.72097" lon="1.40131">
        <ele>1818</ele>
        <time>2025-06-12T13:21:50.165Z</time>
      </trkpt>
      <trkpt lat="42.72093" lon="1.40134">
        <ele>1817</ele>
        <time>2025-06-12T13:21:54.439Z</time>
      </trkpt>
      <trkpt lat="42.72089" lon="1.40131">
        <ele>1814</ele>
        <time>2025-06-12T13:21:58.104Z</time>
      </trkpt>
      <trkpt lat="42.72085" lon="1.40131">
        <ele>1813</ele>
        <time>2025-06-12T13:22:00.868Z</time>
      </trkpt>
      <trkpt lat="42.7208" lon="1.40133">
        <ele>1811</ele>
        <time>2025-06-12T13:22:05.443Z</time>
      </trkpt>
      <trkpt lat="42.72076" lon="1.40133">
        <ele>1809</ele>
        <time>2025-06-12T13:22:08.794Z</time>
      </trkpt>
      <trkpt lat="42.72073" lon="1.40132">
        <ele>1807</ele>
        <time>2025-06-12T13:22:11.544Z</time>
      </trkpt>
      <trkpt lat="42.72065" lon="1.40134">
        <ele>1805</ele>
        <time>2025-06-12T13:22:18.448Z</time>
      </trkpt>
      <trkpt lat="42.72058" lon="1.40137">
        <ele>1802</ele>
        <time>2025-06-12T13:22:24.239Z</time>
      </trkpt>
      <trkpt lat="42.72054" lon="1.40136">
        <ele>1799</ele>
        <time>2025-06-12T13:22:27.635Z</time>
      </trkpt>
      <trkpt lat="42.72052" lon="1.40138">
        <ele>1798</ele>
        <time>2025-06-12T13:22:30.051Z</time>
      </trkpt>
      <trkpt lat="42.7205" lon="1.40144">
        <ele>1800</ele>
        <time>2025-06-12T13:22:52.108Z</time>
      </trkpt>
      <trkpt lat="42.72047" lon="1.40156">
        <ele>1803</ele>
        <time>2025-06-12T13:23:21.772Z</time>
      </trkpt>
      <trkpt lat="42.72041" lon="1.40159">
        <ele>1800</ele>
        <time>2025-06-12T13:23:27.066Z</time>
      </trkpt>
      <trkpt lat="42.72037" lon="1.4016">
        <ele>1798</ele>
        <time>2025-06-12T13:23:30.958Z</time>
      </trkpt>
      <trkpt lat="42.72033" lon="1.40164">
        <ele>1798</ele>
        <time>2025-06-12T13:23:35.898Z</time>
      </trkpt>
      <trkpt lat="42.72024" lon="1.4017">
        <ele>1797</ele>
        <time>2025-06-12T13:23:43.832Z</time>
      </trkpt>
      <trkpt lat="42.72021" lon="1.40174">
        <ele>1797</ele>
        <time>2025-06-12T13:23:48.254Z</time>
      </trkpt>
      <trkpt lat="42.72018" lon="1.40183">
        <ele>1801</ele>
        <time>2025-06-12T13:24:23.961Z</time>
      </trkpt>
      <trkpt lat="42.72016" lon="1.40188">
        <ele>1803</ele>
        <time>2025-06-12T13:24:45.961Z</time>
      </trkpt>
      <trkpt lat="42.72012" lon="1.40195">
        <ele>1805</ele>
        <time>2025-06-12T13:25:05.761Z</time>
      </trkpt>
      <trkpt lat="42.7201" lon="1.40195">
        <ele>1804</ele>
        <time>2025-06-12T13:25:07.353Z</time>
      </trkpt>
      <trkpt lat="42.72006" lon="1.40192">
        <ele>1800</ele>
        <time>2025-06-12T13:25:11.066Z</time>
      </trkpt>
      <trkpt lat="42.72" lon="1.40189">
        <ele>1796</ele>
        <time>2025-06-12T13:25:16.359Z</time>
      </trkpt>
      <trkpt lat="42.71995" lon="1.40188">
        <ele>1792</ele>
        <time>2025-06-12T13:25:20.841Z</time>
      </trkpt>
      <trkpt lat="42.71991" lon="1.40188">
        <ele>1790</ele>
        <time>2025-06-12T13:25:24.108Z</time>
      </trkpt>
      <trkpt lat="42.71981" lon="1.40189">
        <ele>1785</ele>
        <time>2025-06-12T13:25:32.423Z</time>
      </trkpt>
      <trkpt lat="42.71977" lon="1.40194">
        <ele>1784</ele>
        <time>2025-06-12T13:25:37.168Z</time>
      </trkpt>
      <trkpt lat="42.71975" lon="1.402">
        <ele>1787</ele>
        <time>2025-06-12T13:26:00.975Z</time>
      </trkpt>
      <trkpt lat="42.71975" lon="1.40204">
        <ele>1789</ele>
        <time>2025-06-12T13:26:14.725Z</time>
      </trkpt>
      <trkpt lat="42.71971" lon="1.40209">
        <ele>1790</ele>
        <time>2025-06-12T13:26:24.418Z</time>
      </trkpt>
      <trkpt lat="42.71969" lon="1.4021">
        <ele>1789</ele>
        <time>2025-06-12T13:26:26.103Z</time>
      </trkpt>
      <trkpt lat="42.71965" lon="1.40213">
        <ele>1788</ele>
        <time>2025-06-12T13:26:29.918Z</time>
      </trkpt>
      <trkpt lat="42.71961" lon="1.40214">
        <ele>1786</ele>
        <time>2025-06-12T13:26:33.232Z</time>
      </trkpt>
      <trkpt lat="42.71963" lon="1.40211">
        <ele>1786</ele>
        <time>2025-06-12T13:26:35.879Z</time>
      </trkpt>
      <trkpt lat="42.71966" lon="1.40204">
        <ele>1783</ele>
        <time>2025-06-12T13:26:40.872Z</time>
      </trkpt>
      <trkpt lat="42.71967" lon="1.402">
        <ele>1782</ele>
        <time>2025-06-12T13:26:43.163Z</time>
      </trkpt>
      <trkpt lat="42.71967" lon="1.40193">
        <ele>1778</ele>
        <time>2025-06-12T13:26:47.561Z</time>
      </trkpt>
      <trkpt lat="42.71967" lon="1.40189">
        <ele>1776</ele>
        <time>2025-06-12T13:26:49.777Z</time>
      </trkpt>
      <trkpt lat="42.71966" lon="1.40186">
        <ele>1773</ele>
        <time>2025-06-12T13:26:52.245Z</time>
      </trkpt>
      <trkpt lat="42.71967" lon="1.40181">
        <ele>1771</ele>
        <time>2025-06-12T13:26:55.076Z</time>
      </trkpt>
      <trkpt lat="42.71969" lon="1.40179">
        <ele>1771</ele>
        <time>2025-06-12T13:26:58.283Z</time>
      </trkpt>
      <trkpt lat="42.71974" lon="1.40173">
        <ele>1770</ele>
        <time>2025-06-12T13:27:03.268Z</time>
      </trkpt>
      <trkpt lat="42.71978" lon="1.40172">
        <ele>1773</ele>
        <time>2025-06-12T13:27:26.680Z</time>
      </trkpt>
      <trkpt lat="42.71982" lon="1.40174">
        <ele>1776</ele>
        <time>2025-06-12T13:27:45.014Z</time>
      </trkpt>
      <trkpt lat="42.71984" lon="1.40173">
        <ele>1777</ele>
        <time>2025-06-12T13:27:55.010Z</time>
      </trkpt>
      <trkpt lat="42.71984" lon="1.4017">
        <ele>1775</ele>
        <time>2025-06-12T13:27:57.225Z</time>
      </trkpt>
      <trkpt lat="42.71987" lon="1.40166">
        <ele>1775</ele>
        <time>2025-06-12T13:28:01.318Z</time>
      </trkpt>
      <trkpt lat="42.71991" lon="1.40163">
        <ele>1775</ele>
        <time>2025-06-12T13:28:05.561Z</time>
      </trkpt>
      <trkpt lat="42.71994" lon="1.40165">
        <ele>1778</ele>
        <time>2025-06-12T13:28:23.295Z</time>
      </trkpt>
      <trkpt lat="42.71995" lon="1.40162">
        <ele>1777</ele>
        <time>2025-06-12T13:28:25.030Z</time>
      </trkpt>
      <trkpt lat="42.71994" lon="1.40158">
        <ele>1774</ele>
        <time>2025-06-12T13:28:27.919Z</time>
      </trkpt>
      <trkpt lat="42.71994" lon="1.40152">
        <ele>1771</ele>
        <time>2025-06-12T13:28:31.340Z</time>
      </trkpt>
      <trkpt lat="42.71997" lon="1.40146">
        <ele>1770</ele>
        <time>2025-06-12T13:28:35.734Z</time>
      </trkpt>
      <trkpt lat="42.71996" lon="1.40142">
        <ele>1767</ele>
        <time>2025-06-12T13:28:38.548Z</time>
      </trkpt>
      <trkpt lat="42.71994" lon="1.40139">
        <ele>1765</ele>
        <time>2025-06-12T13:28:40.908Z</time>
      </trkpt>
      <trkpt lat="42.71994" lon="1.40136">
        <ele>1763</ele>
        <time>2025-06-12T13:28:42.569Z</time>
      </trkpt>
      <trkpt lat="42.71994" lon="1.4013">
        <ele>1760</ele>
        <time>2025-06-12T13:28:46.446Z</time>
      </trkpt>
      <trkpt lat="42.71996" lon="1.40122">
        <ele>1757</ele>
        <time>2025-06-12T13:28:51.647Z</time>
      </trkpt>
      <trkpt lat="42.72001" lon="1.40116">
        <ele>1757</ele>
        <time>2025-06-12T13:28:57.944Z</time>
      </trkpt>
      <trkpt lat="42.72005" lon="1.40111">
        <ele>1757</ele>
        <time>2025-06-12T13:29:02.911Z</time>
      </trkpt>
      <trkpt lat="42.72008" lon="1.40104">
        <ele>1755</ele>
        <time>2025-06-12T13:29:07.793Z</time>
      </trkpt>
      <trkpt lat="42.72008" lon="1.40098">
        <ele>1752</ele>
        <time>2025-06-12T13:29:11.703Z</time>
      </trkpt>
      <trkpt lat="42.72009" lon="1.40092">
        <ele>1750</ele>
        <time>2025-06-12T13:29:15.077Z</time>
      </trkpt>
      <trkpt lat="42.72008" lon="1.4009">
        <ele>1749</ele>
        <time>2025-06-12T13:29:16.839Z</time>
      </trkpt>
      <trkpt lat="42.72006" lon="1.4009">
        <ele>1748</ele>
        <time>2025-06-12T13:29:18.431Z</time>
      </trkpt>
      <trkpt lat="42.72004" lon="1.40092">
        <ele>1748</ele>
        <time>2025-06-12T13:29:21.127Z</time>
      </trkpt>
      <trkpt lat="42.72004" lon="1.40095">
        <ele>1749</ele>
        <time>2025-06-12T13:29:31.699Z</time>
      </trkpt>
      <trkpt lat="42.72" lon="1.40098">
        <ele>1747</ele>
        <time>2025-06-12T13:29:35.364Z</time>
      </trkpt>
      <trkpt lat="42.71994" lon="1.40103">
        <ele>1747</ele>
        <time>2025-06-12T13:29:41.660Z</time>
      </trkpt>
      <trkpt lat="42.71985" lon="1.40104">
        <ele>1742</ele>
        <time>2025-06-12T13:29:49.390Z</time>
      </trkpt>
      <trkpt lat="42.71982" lon="1.40105">
        <ele>1741</ele>
        <time>2025-06-12T13:29:51.705Z</time>
      </trkpt>
      <trkpt lat="42.71981" lon="1.40108">
        <ele>1741</ele>
        <time>2025-06-12T13:29:54.035Z</time>
      </trkpt>
      <trkpt lat="42.7198" lon="1.40107">
        <ele>1740</ele>
        <time>2025-06-12T13:29:55.256Z</time>
      </trkpt>
      <trkpt lat="42.71979" lon="1.40104">
        <ele>1738</ele>
        <time>2025-06-12T13:29:57.018Z</time>
      </trkpt>
      <trkpt lat="42.7198" lon="1.40102">
        <ele>1738</ele>
        <time>2025-06-12T13:29:58.513Z</time>
      </trkpt>
      <trkpt lat="42.71981" lon="1.40099">
        <ele>1737</ele>
        <time>2025-06-12T13:30:00.927Z</time>
      </trkpt>
      <trkpt lat="42.71984" lon="1.40095">
        <ele>1737</ele>
        <time>2025-06-12T13:30:04.975Z</time>
      </trkpt>
      <trkpt lat="42.71987" lon="1.4009">
        <ele>1736</ele>
        <time>2025-06-12T13:30:08.547Z</time>
      </trkpt>
      <trkpt lat="42.71987" lon="1.40087">
        <ele>1735</ele>
        <time>2025-06-12T13:30:10.762Z</time>
      </trkpt>
      <trkpt lat="42.71989" lon="1.40086">
        <ele>1735</ele>
        <time>2025-06-12T13:30:12.758Z</time>
      </trkpt>
      <trkpt lat="42.71991" lon="1.40082">
        <ele>1734</ele>
        <time>2025-06-12T13:30:15.994Z</time>
      </trkpt>
      <trkpt lat="42.71995" lon="1.40074">
        <ele>1733</ele>
        <time>2025-06-12T13:30:21.499Z</time>
      </trkpt>
      <trkpt lat="42.71998" lon="1.40073">
        <ele>1735</ele>
        <time>2025-06-12T13:30:38.907Z</time>
      </trkpt>
      <trkpt lat="42.72002" lon="1.40071">
        <ele>1737</ele>
        <time>2025-06-12T13:31:00.897Z</time>
      </trkpt>
      <trkpt lat="42.72004" lon="1.40068">
        <ele>1737</ele>
        <time>2025-06-12T13:31:03.594Z</time>
      </trkpt>
      <trkpt lat="42.72008" lon="1.40064">
        <ele>1738</ele>
        <time>2025-06-12T13:31:13.265Z</time>
      </trkpt>
      <trkpt lat="42.72008" lon="1.40059">
        <ele>1736</ele>
        <time>2025-06-12T13:31:15.973Z</time>
      </trkpt>
      <trkpt lat="42.72007" lon="1.40052">
        <ele>1731</ele>
        <time>2025-06-12T13:31:20.576Z</time>
      </trkpt>
      <trkpt lat="42.72005" lon="1.40047">
        <ele>1728</ele>
        <time>2025-06-12T13:31:23.760Z</time>
      </trkpt>
      <trkpt lat="42.72002" lon="1.40042">
        <ele>1723</ele>
        <time>2025-06-12T13:31:28.083Z</time>
      </trkpt>
      <trkpt lat="42.72002" lon="1.40037">
        <ele>1720</ele>
        <time>2025-06-12T13:31:31.467Z</time>
      </trkpt>
      <trkpt lat="42.72005" lon="1.40028">
        <ele>1718</ele>
        <time>2025-06-12T13:31:37.657Z</time>
      </trkpt>
      <trkpt lat="42.72011" lon="1.40014">
        <ele>1717</ele>
        <time>2025-06-12T13:31:47.271Z</time>
      </trkpt>
      <trkpt lat="42.72011" lon="1.40011">
        <ele>1716</ele>
        <time>2025-06-12T13:31:49.007Z</time>
      </trkpt>
      <trkpt lat="42.7201" lon="1.40008">
        <ele>1713</ele>
        <time>2025-06-12T13:31:51.735Z</time>
      </trkpt>
      <trkpt lat="42.72008" lon="1.40007">
        <ele>1711</ele>
        <time>2025-06-12T13:31:53.499Z</time>
      </trkpt>
      <trkpt lat="42.72006" lon="1.40004">
        <ele>1710</ele>
        <time>2025-06-12T13:31:55.486Z</time>
      </trkpt>
      <trkpt lat="42.72004" lon="1.40004">
        <ele>1708</ele>
        <time>2025-06-12T13:31:57.161Z</time>
      </trkpt>
      <trkpt lat="42.72004" lon="1.40002">
        <ele>1707</ele>
        <time>2025-06-12T13:31:58.923Z</time>
      </trkpt>
      <trkpt lat="42.72002" lon="1.4">
        <ele>1705</ele>
        <time>2025-06-12T13:32:00.433Z</time>
      </trkpt>
      <trkpt lat="42.72001" lon="1.39999">
        <ele>1704</ele>
        <time>2025-06-12T13:32:01.684Z</time>
      </trkpt>
      <trkpt lat="42.72" lon="1.39997">
        <ele>1703</ele>
        <time>2025-06-12T13:32:02.883Z</time>
      </trkpt>
      <trkpt lat="42.71998" lon="1.39995">
        <ele>1701</ele>
        <time>2025-06-12T13:32:05.355Z</time>
      </trkpt>
      <trkpt lat="42.71996" lon="1.39998">
        <ele>1700</ele>
        <time>2025-06-12T13:32:07.715Z</time>
      </trkpt>
      <trkpt lat="42.71993" lon="1.39996">
        <ele>1698</ele>
        <time>2025-06-12T13:32:10.131Z</time>
      </trkpt>
      <trkpt lat="42.7199" lon="1.39997">
        <ele>1697</ele>
        <time>2025-06-12T13:32:12.459Z</time>
      </trkpt>
      <trkpt lat="42.71989" lon="1.40001">
        <ele>1697</ele>
        <time>2025-06-12T13:32:15.217Z</time>
      </trkpt>
      <trkpt lat="42.71986" lon="1.40006">
        <ele>1697</ele>
        <time>2025-06-12T13:32:19.817Z</time>
      </trkpt>
      <trkpt lat="42.71984" lon="1.40009">
        <ele>1697</ele>
        <time>2025-06-12T13:32:23.024Z</time>
      </trkpt>
      <trkpt lat="42.7198" lon="1.40016">
        <ele>1697</ele>
        <time>2025-06-12T13:32:28.933Z</time>
      </trkpt>
      <trkpt lat="42.71978" lon="1.40022">
        <ele>1697</ele>
        <time>2025-06-12T13:32:34.015Z</time>
      </trkpt>
      <trkpt lat="42.71978" lon="1.40029">
        <ele>1700</ele>
        <time>2025-06-12T13:32:57.472Z</time>
      </trkpt>
      <trkpt lat="42.7198" lon="1.40035">
        <ele>1704</ele>
        <time>2025-06-12T13:33:21.774Z</time>
      </trkpt>
      <trkpt lat="42.71978" lon="1.4004">
        <ele>1705</ele>
        <time>2025-06-12T13:33:31.206Z</time>
      </trkpt>
      <trkpt lat="42.71975" lon="1.40043">
        <ele>1705</ele>
        <time>2025-06-12T13:33:34.892Z</time>
      </trkpt>
      <trkpt lat="42.71973" lon="1.40045">
        <ele>1704</ele>
        <time>2025-06-12T13:33:36.934Z</time>
      </trkpt>
      <trkpt lat="42.71967" lon="1.40046">
        <ele>1701</ele>
        <time>2025-06-12T13:33:41.401Z</time>
      </trkpt>
      <trkpt lat="42.71962" lon="1.40046">
        <ele>1698</ele>
        <time>2025-06-12T13:33:45.875Z</time>
      </trkpt>
      <trkpt lat="42.71959" lon="1.40048">
        <ele>1697</ele>
        <time>2025-06-12T13:33:48.775Z</time>
      </trkpt>
      <trkpt lat="42.71951" lon="1.40055">
        <ele>1696</ele>
        <time>2025-06-12T13:33:56.809Z</time>
      </trkpt>
      <trkpt lat="42.71948" lon="1.40057">
        <ele>1695</ele>
        <time>2025-06-12T13:33:59.709Z</time>
      </trkpt>
      <trkpt lat="42.71942" lon="1.4006">
        <ele>1693</ele>
        <time>2025-06-12T13:34:05.022Z</time>
      </trkpt>
      <trkpt lat="42.71939" lon="1.4006">
        <ele>1691</ele>
        <time>2025-06-12T13:34:07.200Z</time>
      </trkpt>
      <trkpt lat="42.71936" lon="1.40064">
        <ele>1692</ele>
        <time>2025-06-12T13:34:16.609Z</time>
      </trkpt>
      <trkpt lat="42.71932" lon="1.40069">
        <ele>1692</ele>
        <time>2025-06-12T13:34:21.622Z</time>
      </trkpt>
      <trkpt lat="42.71932" lon="1.40073">
        <ele>1694</ele>
        <time>2025-06-12T13:34:37.869Z</time>
      </trkpt>
      <trkpt lat="42.71934" lon="1.4008">
        <ele>1698</ele>
        <time>2025-06-12T13:35:03.210Z</time>
      </trkpt>
      <trkpt lat="42.71935" lon="1.40089">
        <ele>1702</ele>
        <time>2025-06-12T13:35:36.627Z</time>
      </trkpt>
      <trkpt lat="42.71936" lon="1.40095">
        <ele>1706</ele>
        <time>2025-06-12T13:36:00.153Z</time>
      </trkpt>
      <trkpt lat="42.71935" lon="1.40099">
        <ele>1707</ele>
        <time>2025-06-12T13:36:10.524Z</time>
      </trkpt>
      <trkpt lat="42.71932" lon="1.40101">
        <ele>1706</ele>
        <time>2025-06-12T13:36:13.331Z</time>
      </trkpt>
      <trkpt lat="42.71928" lon="1.40102">
        <ele>1704</ele>
        <time>2025-06-12T13:36:16.634Z</time>
      </trkpt>
      <trkpt lat="42.71926" lon="1.40108">
        <ele>1705</ele>
        <time>2025-06-12T13:36:26.181Z</time>
      </trkpt>
      <trkpt lat="42.71909" lon="1.40117">
        <ele>1697</ele>
        <time>2025-06-12T13:36:41.617Z</time>
      </trkpt>
      <trkpt lat="42.71905" lon="1.40119">
        <ele>1697</ele>
        <time>2025-06-12T13:36:45.302Z</time>
      </trkpt>
      <trkpt lat="42.71903" lon="1.40123">
        <ele>1697</ele>
        <time>2025-06-12T13:36:48.872Z</time>
      </trkpt>
      <trkpt lat="42.71893" lon="1.40125">
        <ele>1692</ele>
        <time>2025-06-12T13:36:56.657Z</time>
      </trkpt>
      <trkpt lat="42.71891" lon="1.40126">
        <ele>1692</ele>
        <time>2025-06-12T13:36:59.450Z</time>
      </trkpt>
      <trkpt lat="42.71887" lon="1.40134">
        <ele>1694</ele>
        <time>2025-06-12T13:37:18.760Z</time>
      </trkpt>
      <trkpt lat="42.71883" lon="1.40139">
        <ele>1695</ele>
        <time>2025-06-12T13:37:28.658Z</time>
      </trkpt>
      <trkpt lat="42.71878" lon="1.40142">
        <ele>1693</ele>
        <time>2025-06-12T13:37:32.931Z</time>
      </trkpt>
      <trkpt lat="42.71871" lon="1.40145">
        <ele>1691</ele>
        <time>2025-06-12T13:37:39.356Z</time>
      </trkpt>
      <trkpt lat="42.71868" lon="1.40151">
        <ele>1692</ele>
        <time>2025-06-12T13:37:49.049Z</time>
      </trkpt>
      <trkpt lat="42.71867" lon="1.40155">
        <ele>1694</ele>
        <time>2025-06-12T13:38:06.034Z</time>
      </trkpt>
      <trkpt lat="42.71866" lon="1.40161">
        <ele>1696</ele>
        <time>2025-06-12T13:38:27.016Z</time>
      </trkpt>
      <trkpt lat="42.7186" lon="1.40164">
        <ele>1694</ele>
        <time>2025-06-12T13:38:31.903Z</time>
      </trkpt>
      <trkpt lat="42.71857" lon="1.40168">
        <ele>1694</ele>
        <time>2025-06-12T13:38:35.984Z</time>
      </trkpt>
      <trkpt lat="42.71845" lon="1.40179">
        <ele>1692</ele>
        <time>2025-06-12T13:38:47.964Z</time>
      </trkpt>
      <trkpt lat="42.71835" lon="1.40186">
        <ele>1688</ele>
        <time>2025-06-12T13:38:57.812Z</time>
      </trkpt>
      <trkpt lat="42.71831" lon="1.4019">
        <ele>1689</ele>
        <time>2025-06-12T13:39:07.315Z</time>
      </trkpt>
      <trkpt lat="42.71826" lon="1.40197">
        <ele>1689</ele>
        <time>2025-06-12T13:39:14.434Z</time>
      </trkpt>
      <trkpt lat="42.71819" lon="1.40206">
        <ele>1688</ele>
        <time>2025-06-12T13:39:22.362Z</time>
      </trkpt>
      <trkpt lat="42.7181" lon="1.40209">
        <ele>1683</ele>
        <time>2025-06-12T13:39:29.801Z</time>
      </trkpt>
      <trkpt lat="42.71807" lon="1.4021">
        <ele>1682</ele>
        <time>2025-06-12T13:39:32.702Z</time>
      </trkpt>
      <trkpt lat="42.71808" lon="1.40207">
        <ele>1681</ele>
        <time>2025-06-12T13:39:34.464Z</time>
      </trkpt>
      <trkpt lat="42.71811" lon="1.40203">
        <ele>1681</ele>
        <time>2025-06-12T13:39:38.886Z</time>
      </trkpt>
      <trkpt lat="42.71815" lon="1.40197">
        <ele>1682</ele>
        <time>2025-06-12T13:39:49.391Z</time>
      </trkpt>
      <trkpt lat="42.71818" lon="1.40191">
        <ele>1681</ele>
        <time>2025-06-12T13:39:53.462Z</time>
      </trkpt>
      <trkpt lat="42.7182" lon="1.40184">
        <ele>1679</ele>
        <time>2025-06-12T13:39:58.141Z</time>
      </trkpt>
      <trkpt lat="42.71822" lon="1.40176">
        <ele>1676</ele>
        <time>2025-06-12T13:40:03.342Z</time>
      </trkpt>
      <trkpt lat="42.71827" lon="1.40169">
        <ele>1675</ele>
        <time>2025-06-12T13:40:09.260Z</time>
      </trkpt>
      <trkpt lat="42.71831" lon="1.40168">
        <ele>1677</ele>
        <time>2025-06-12T13:40:29.141Z</time>
      </trkpt>
      <trkpt lat="42.71838" lon="1.40154">
        <ele>1674</ele>
        <time>2025-06-12T13:40:39.407Z</time>
      </trkpt>
      <trkpt lat="42.71841" lon="1.40144">
        <ele>1670</ele>
        <time>2025-06-12T13:40:45.935Z</time>
      </trkpt>
      <trkpt lat="42.71841" lon="1.40135">
        <ele>1665</ele>
        <time>2025-06-12T13:40:51.412Z</time>
      </trkpt>
      <trkpt lat="42.71839" lon="1.40133">
        <ele>1663</ele>
        <time>2025-06-12T13:40:53.399Z</time>
      </trkpt>
      <trkpt lat="42.71841" lon="1.40128">
        <ele>1661</ele>
        <time>2025-06-12T13:40:56.583Z</time>
      </trkpt>
      <trkpt lat="42.71843" lon="1.40125">
        <ele>1660</ele>
        <time>2025-06-12T13:40:59.107Z</time>
      </trkpt>
      <trkpt lat="42.71846" lon="1.40123">
        <ele>1662</ele>
        <time>2025-06-12T13:41:16.974Z</time>
      </trkpt>
      <trkpt lat="42.7185" lon="1.40121">
        <ele>1664</ele>
        <time>2025-06-12T13:41:39.075Z</time>
      </trkpt>
      <trkpt lat="42.71853" lon="1.40117">
        <ele>1664</ele>
        <time>2025-06-12T13:41:42.625Z</time>
      </trkpt>
      <trkpt lat="42.71852" lon="1.40113">
        <ele>1661</ele>
        <time>2025-06-12T13:41:45.380Z</time>
      </trkpt>
      <trkpt lat="42.7185" lon="1.40108">
        <ele>1658</ele>
        <time>2025-06-12T13:41:48.669Z</time>
      </trkpt>
      <trkpt lat="42.71851" lon="1.40106">
        <ele>1657</ele>
        <time>2025-06-12T13:41:50.431Z</time>
      </trkpt>
      <trkpt lat="42.71852" lon="1.40104">
        <ele>1657</ele>
        <time>2025-06-12T13:41:52.157Z</time>
      </trkpt>
      <trkpt lat="42.71854" lon="1.401">
        <ele>1656</ele>
        <time>2025-06-12T13:41:54.625Z</time>
      </trkpt>
      <trkpt lat="42.71856" lon="1.40094">
        <ele>1655</ele>
        <time>2025-06-12T13:41:58.849Z</time>
      </trkpt>
      <trkpt lat="42.7186" lon="1.4009">
        <ele>1655</ele>
        <time>2025-06-12T13:42:03.817Z</time>
      </trkpt>
      <trkpt lat="42.71867" lon="1.40083">
        <ele>1657</ele>
        <time>2025-06-12T13:42:22.650Z</time>
      </trkpt>
      <trkpt lat="42.71868" lon="1.40078">
        <ele>1655</ele>
        <time>2025-06-12T13:42:26.232Z</time>
      </trkpt>
      <trkpt lat="42.71866" lon="1.40077">
        <ele>1653</ele>
        <time>2025-06-12T13:42:28.547Z</time>
      </trkpt>
      <trkpt lat="42.71862" lon="1.40081">
        <ele>1653</ele>
        <time>2025-06-12T13:42:32.595Z</time>
      </trkpt>
      <trkpt lat="42.71858" lon="1.40083">
        <ele>1651</ele>
        <time>2025-06-12T13:42:36.791Z</time>
      </trkpt>
      <trkpt lat="42.71853" lon="1.40084">
        <ele>1649</ele>
        <time>2025-06-12T13:42:40.759Z</time>
      </trkpt>
      <trkpt lat="42.71848" lon="1.40089">
        <ele>1648</ele>
        <time>2025-06-12T13:42:45.954Z</time>
      </trkpt>
      <trkpt lat="42.71841" lon="1.40094">
        <ele>1646</ele>
        <time>2025-06-12T13:42:52.913Z</time>
      </trkpt>
      <trkpt lat="42.71836" lon="1.40103">
        <ele>1647</ele>
        <time>2025-06-12T13:43:04.523Z</time>
      </trkpt>
      <trkpt lat="42.71831" lon="1.40109">
        <ele>1647</ele>
        <time>2025-06-12T13:43:10.770Z</time>
      </trkpt>
      <trkpt lat="42.71823" lon="1.40113">
        <ele>1645</ele>
        <time>2025-06-12T13:43:17.847Z</time>
      </trkpt>
      <trkpt lat="42.7182" lon="1.40117">
        <ele>1645</ele>
        <time>2025-06-12T13:43:22.202Z</time>
      </trkpt>
      <trkpt lat="42.71819" lon="1.40125">
        <ele>1648</ele>
        <time>2025-06-12T13:43:49.703Z</time>
      </trkpt>
      <trkpt lat="42.71816" lon="1.4013">
        <ele>1649</ele>
        <time>2025-06-12T13:43:59.229Z</time>
      </trkpt>
      <trkpt lat="42.71806" lon="1.40134">
        <ele>1646</ele>
        <time>2025-06-12T13:44:07.952Z</time>
      </trkpt>
      <trkpt lat="42.71802" lon="1.40139">
        <ele>1646</ele>
        <time>2025-06-12T13:44:13.416Z</time>
      </trkpt>
      <trkpt lat="42.71794" lon="1.40152">
        <ele>1648</ele>
        <time>2025-06-12T13:44:33.894Z</time>
      </trkpt>
      <trkpt lat="42.71787" lon="1.40161">
        <ele>1648</ele>
        <time>2025-06-12T13:44:43.252Z</time>
      </trkpt>
      <trkpt lat="42.71785" lon="1.40157">
        <ele>1645</ele>
        <time>2025-06-12T13:44:46.436Z</time>
      </trkpt>
      <trkpt lat="42.7179" lon="1.40144">
        <ele>1641</ele>
        <time>2025-06-12T13:44:55.150Z</time>
      </trkpt>
      <trkpt lat="42.71796" lon="1.40129">
        <ele>1638</ele>
        <time>2025-06-12T13:45:06.016Z</time>
      </trkpt>
      <trkpt lat="42.71804" lon="1.40119">
        <ele>1637</ele>
        <time>2025-06-12T13:45:14.604Z</time>
      </trkpt>
      <trkpt lat="42.71808" lon="1.40115">
        <ele>1637</ele>
        <time>2025-06-12T13:45:19.545Z</time>
      </trkpt>
      <trkpt lat="42.7181" lon="1.40107">
        <ele>1635</ele>
        <time>2025-06-12T13:45:24.962Z</time>
      </trkpt>
      <trkpt lat="42.71812" lon="1.40097">
        <ele>1631</ele>
        <time>2025-06-12T13:45:31.319Z</time>
      </trkpt>
      <trkpt lat="42.71815" lon="1.40086">
        <ele>1628</ele>
        <time>2025-06-12T13:45:38.460Z</time>
      </trkpt>
      <trkpt lat="42.71822" lon="1.40076">
        <ele>1627</ele>
        <time>2025-06-12T13:45:46.744Z</time>
      </trkpt>
      <trkpt lat="42.71829" lon="1.40064">
        <ele>1626</ele>
        <time>2025-06-12T13:45:56.567Z</time>
      </trkpt>
      <trkpt lat="42.71829" lon="1.40055">
        <ele>1622</ele>
        <time>2025-06-12T13:46:01.586Z</time>
      </trkpt>
      <trkpt lat="42.71831" lon="1.40046">
        <ele>1618</ele>
        <time>2025-06-12T13:46:07.905Z</time>
      </trkpt>
      <trkpt lat="42.71829" lon="1.40036">
        <ele>1613</ele>
        <time>2025-06-12T13:46:14.034Z</time>
      </trkpt>
      <trkpt lat="42.71827" lon="1.40037">
        <ele>1612</ele>
        <time>2025-06-12T13:46:15.780Z</time>
      </trkpt>
      <trkpt lat="42.71824" lon="1.40038">
        <ele>1610</ele>
        <time>2025-06-12T13:46:18.612Z</time>
      </trkpt>
      <trkpt lat="42.7182" lon="1.40049">
        <ele>1613</ele>
        <time>2025-06-12T13:46:48.094Z</time>
      </trkpt>
      <trkpt lat="42.71817" lon="1.40056">
        <ele>1614</ele>
        <time>2025-06-12T13:46:58.444Z</time>
      </trkpt>
      <trkpt lat="42.71811" lon="1.40063">
        <ele>1613</ele>
        <time>2025-06-12T13:47:04.791Z</time>
      </trkpt>
      <trkpt lat="42.71807" lon="1.40063">
        <ele>1611</ele>
        <time>2025-06-12T13:47:08.142Z</time>
      </trkpt>
      <trkpt lat="42.71797" lon="1.40064">
        <ele>1605</ele>
        <time>2025-06-12T13:47:16.417Z</time>
      </trkpt>
      <trkpt lat="42.71792" lon="1.4007">
        <ele>1604</ele>
        <time>2025-06-12T13:47:21.963Z</time>
      </trkpt>
      <trkpt lat="42.71786" lon="1.40077">
        <ele>1604</ele>
        <time>2025-06-12T13:47:29.131Z</time>
      </trkpt>
      <trkpt lat="42.71782" lon="1.40082">
        <ele>1604</ele>
        <time>2025-06-12T13:47:34.099Z</time>
      </trkpt>
      <trkpt lat="42.71776" lon="1.40092">
        <ele>1605</ele>
        <time>2025-06-12T13:47:47.610Z</time>
      </trkpt>
      <trkpt lat="42.71769" lon="1.40098">
        <ele>1603</ele>
        <time>2025-06-12T13:47:54.132Z</time>
      </trkpt>
      <trkpt lat="42.71765" lon="1.40106">
        <ele>1604</ele>
        <time>2025-06-12T13:48:05.325Z</time>
      </trkpt>
      <trkpt lat="42.71761" lon="1.40119">
        <ele>1609</ele>
        <time>2025-06-12T13:48:58.211Z</time>
      </trkpt>
      <trkpt lat="42.71757" lon="1.40123">
        <ele>1609</ele>
        <time>2025-06-12T13:49:03.256Z</time>
      </trkpt>
      <trkpt lat="42.71748" lon="1.40131">
        <ele>1610</ele>
        <time>2025-06-12T13:49:16.942Z</time>
      </trkpt>
      <trkpt lat="42.71743" lon="1.4013">
        <ele>1607</ele>
        <time>2025-06-12T13:49:21.333Z</time>
      </trkpt>
      <trkpt lat="42.71732" lon="1.40131">
        <ele>1603</ele>
        <time>2025-06-12T13:49:30.814Z</time>
      </trkpt>
      <trkpt lat="42.71722" lon="1.40129">
        <ele>1598</ele>
        <time>2025-06-12T13:49:39.097Z</time>
      </trkpt>
      <trkpt lat="42.71714" lon="1.4013">
        <ele>1596</ele>
        <time>2025-06-12T13:49:45.321Z</time>
      </trkpt>
      <trkpt lat="42.71712" lon="1.40135">
        <ele>1598</ele>
        <time>2025-06-12T13:50:07.509Z</time>
      </trkpt>
      <trkpt lat="42.71701" lon="1.40143">
        <ele>1597</ele>
        <time>2025-06-12T13:50:17.661Z</time>
      </trkpt>
      <trkpt lat="42.71684" lon="1.40157">
        <ele>1596</ele>
        <time>2025-06-12T13:50:34.251Z</time>
      </trkpt>
      <trkpt lat="42.71672" lon="1.40161">
        <ele>1591</ele>
        <time>2025-06-12T13:50:44.462Z</time>
      </trkpt>
      <trkpt lat="42.71666" lon="1.40166">
        <ele>1589</ele>
        <time>2025-06-12T13:50:50.881Z</time>
      </trkpt>
      <trkpt lat="42.71654" lon="1.40175">
        <ele>1587</ele>
        <time>2025-06-12T13:51:02.211Z</time>
      </trkpt>
      <trkpt lat="42.71648" lon="1.40178">
        <ele>1586</ele>
        <time>2025-06-12T13:51:07.504Z</time>
      </trkpt>
      <trkpt lat="42.71632" lon="1.40179">
        <ele>1579</ele>
        <time>2025-06-12T13:51:20.750Z</time>
      </trkpt>
      <trkpt lat="42.71625" lon="1.40185">
        <ele>1579</ele>
        <time>2025-06-12T13:51:28.468Z</time>
      </trkpt>
      <trkpt lat="42.71619" lon="1.40188">
        <ele>1577</ele>
        <time>2025-06-12T13:51:33.761Z</time>
      </trkpt>
      <trkpt lat="42.71614" lon="1.40189">
        <ele>1575</ele>
        <time>2025-06-12T13:51:38.826Z</time>
      </trkpt>
      <trkpt lat="42.71607" lon="1.40196">
        <ele>1575</ele>
        <time>2025-06-12T13:51:46.543Z</time>
      </trkpt>
      <trkpt lat="42.71601" lon="1.40202">
        <ele>1576</ele>
        <time>2025-06-12T13:51:57.824Z</time>
      </trkpt>
      <trkpt lat="42.71594" lon="1.40207">
        <ele>1575</ele>
        <time>2025-06-12T13:52:04.681Z</time>
      </trkpt>
      <trkpt lat="42.71589" lon="1.40207">
        <ele>1573</ele>
        <time>2025-06-12T13:52:08.618Z</time>
      </trkpt>
      <trkpt lat="42.71585" lon="1.40207">
        <ele>1571</ele>
        <time>2025-06-12T13:52:11.885Z</time>
      </trkpt>
      <trkpt lat="42.71583" lon="1.40204">
        <ele>1568</ele>
        <time>2025-06-12T13:52:14.662Z</time>
      </trkpt>
      <trkpt lat="42.71586" lon="1.40196">
        <ele>1565</ele>
        <time>2025-06-12T13:52:20.080Z</time>
      </trkpt>
      <trkpt lat="42.71593" lon="1.40184">
        <ele>1562</ele>
        <time>2025-06-12T13:52:29.473Z</time>
      </trkpt>
      <trkpt lat="42.71599" lon="1.40172">
        <ele>1558</ele>
        <time>2025-06-12T13:52:38.254Z</time>
      </trkpt>
      <trkpt lat="42.71606" lon="1.40162">
        <ele>1557</ele>
        <time>2025-06-12T13:52:46.827Z</time>
      </trkpt>
      <trkpt lat="42.71616" lon="1.40152">
        <ele>1557</ele>
        <time>2025-06-12T13:52:58.929Z</time>
      </trkpt>
      <trkpt lat="42.71621" lon="1.40142">
        <ele>1554</ele>
        <time>2025-06-12T13:53:06.182Z</time>
      </trkpt>
      <trkpt lat="42.71627" lon="1.40134">
        <ele>1553</ele>
        <time>2025-06-12T13:53:13.202Z</time>
      </trkpt>
      <trkpt lat="42.71633" lon="1.4013">
        <ele>1555</ele>
        <time>2025-06-12T13:53:32.225Z</time>
      </trkpt>
      <trkpt lat="42.71639" lon="1.40122">
        <ele>1554</ele>
        <time>2025-06-12T13:53:39.201Z</time>
      </trkpt>
      <trkpt lat="42.71644" lon="1.40113">
        <ele>1551</ele>
        <time>2025-06-12T13:53:45.949Z</time>
      </trkpt>
      <trkpt lat="42.71648" lon="1.40105">
        <ele>1548</ele>
        <time>2025-06-12T13:53:52.006Z</time>
      </trkpt>
      <trkpt lat="42.71652" lon="1.40094">
        <ele>1544</ele>
        <time>2025-06-12T13:53:59.357Z</time>
      </trkpt>
      <trkpt lat="42.71654" lon="1.40082">
        <ele>1537</ele>
        <time>2025-06-12T13:54:07.434Z</time>
      </trkpt>
      <trkpt lat="42.71656" lon="1.40073">
        <ele>1532</ele>
        <time>2025-06-12T13:54:12.693Z</time>
      </trkpt>
      <trkpt lat="42.71649" lon="1.40072">
        <ele>1526</ele>
        <time>2025-06-12T13:54:19.393Z</time>
      </trkpt>
      <trkpt lat="42.7164" lon="1.40074">
        <ele>1522</ele>
        <time>2025-06-12T13:54:26.772Z</time>
      </trkpt>
      <trkpt lat="42.71633" lon="1.40073">
        <ele>1517</ele>
        <time>2025-06-12T13:54:32.912Z</time>
      </trkpt>
      <trkpt lat="42.71624" lon="1.40075">
        <ele>1514</ele>
        <time>2025-06-12T13:54:40.108Z</time>
      </trkpt>
      <trkpt lat="42.7162" lon="1.40078">
        <ele>1513</ele>
        <time>2025-06-12T13:54:43.848Z</time>
      </trkpt>
      <trkpt lat="42.71616" lon="1.4008">
        <ele>1511</ele>
        <time>2025-06-12T13:54:47.874Z</time>
      </trkpt>
      <trkpt lat="42.71606" lon="1.40078">
        <ele>1505</ele>
        <time>2025-06-12T13:54:55.752Z</time>
      </trkpt>
      <trkpt lat="42.71592" lon="1.40084">
        <ele>1500</ele>
        <time>2025-06-12T13:55:08.501Z</time>
      </trkpt>
      <trkpt lat="42.71581" lon="1.4009">
        <ele>1496</ele>
        <time>2025-06-12T13:55:18.652Z</time>
      </trkpt>
      <trkpt lat="42.71568" lon="1.40107">
        <ele>1498</ele>
        <time>2025-06-12T13:55:43.008Z</time>
      </trkpt>
      <trkpt lat="42.71565" lon="1.40113">
        <ele>1499</ele>
        <time>2025-06-12T13:55:52.975Z</time>
      </trkpt>
      <trkpt lat="42.71558" lon="1.40119">
        <ele>1498</ele>
        <time>2025-06-12T13:55:59.659Z</time>
      </trkpt>
      <trkpt lat="42.71539" lon="1.40135">
        <ele>1493</ele>
        <time>2025-06-12T13:56:18.549Z</time>
      </trkpt>
      <trkpt lat="42.71534" lon="1.40137">
        <ele>1490</ele>
        <time>2025-06-12T13:56:22.558Z</time>
      </trkpt>
      <trkpt lat="42.7153" lon="1.40141">
        <ele>1489</ele>
        <time>2025-06-12T13:56:26.541Z</time>
      </trkpt>
      <trkpt lat="42.71526" lon="1.40144">
        <ele>1488</ele>
        <time>2025-06-12T13:56:30.986Z</time>
      </trkpt>
      <trkpt lat="42.71518" lon="1.40146">
        <ele>1483</ele>
        <time>2025-06-12T13:56:37.212Z</time>
      </trkpt>
      <trkpt lat="42.71511" lon="1.40157">
        <ele>1482</ele>
        <time>2025-06-12T13:56:46.187Z</time>
      </trkpt>
      <trkpt lat="42.71507" lon="1.40167">
        <ele>1486</ele>
        <time>2025-06-12T13:57:27.907Z</time>
      </trkpt>
      <trkpt lat="42.71498" lon="1.40183">
        <ele>1491</ele>
        <time>2025-06-12T13:58:17.781Z</time>
      </trkpt>
      <trkpt lat="42.71483" lon="1.40192">
        <ele>1487</ele>
        <time>2025-06-12T13:58:31.666Z</time>
      </trkpt>
      <trkpt lat="42.7148" lon="1.40198">
        <ele>1490</ele>
        <time>2025-06-12T13:59:00.236Z</time>
      </trkpt>
      <trkpt lat="42.71466" lon="1.40199">
        <ele>1481</ele>
        <time>2025-06-12T13:59:11.307Z</time>
      </trkpt>
      <trkpt lat="42.71456" lon="1.40213">
        <ele>1486</ele>
        <time>2025-06-12T14:00:02.680Z</time>
      </trkpt>
      <trkpt lat="42.71447" lon="1.40215">
        <ele>1482</ele>
        <time>2025-06-12T14:00:10.563Z</time>
      </trkpt>
      <trkpt lat="42.71439" lon="1.40216">
        <ele>1477</ele>
        <time>2025-06-12T14:00:17.287Z</time>
      </trkpt>
      <trkpt lat="42.71428" lon="1.40221">
        <ele>1473</ele>
        <time>2025-06-12T14:00:27.086Z</time>
      </trkpt>
      <trkpt lat="42.7142" lon="1.40221">
        <ele>1468</ele>
        <time>2025-06-12T14:00:33.704Z</time>
      </trkpt>
      <trkpt lat="42.71412" lon="1.4022">
        <ele>1463</ele>
        <time>2025-06-12T14:00:40.344Z</time>
      </trkpt>
      <trkpt lat="42.71394" lon="1.4022">
        <ele>1454</ele>
        <time>2025-06-12T14:00:55.254Z</time>
      </trkpt>
      <trkpt lat="42.7139" lon="1.40223">
        <ele>1453</ele>
        <time>2025-06-12T14:00:59.426Z</time>
      </trkpt>
      <trkpt lat="42.7138" lon="1.4023">
        <ele>1453</ele>
        <time>2025-06-12T14:01:10.289Z</time>
      </trkpt>
      <trkpt lat="42.71368" lon="1.4024">
        <ele>1455</ele>
        <time>2025-06-12T14:01:31.848Z</time>
      </trkpt>
      <trkpt lat="42.71355" lon="1.4025">
        <ele>1455</ele>
        <time>2025-06-12T14:01:46.276Z</time>
      </trkpt>
      <trkpt lat="42.71342" lon="1.40244">
        <ele>1445</ele>
        <time>2025-06-12T14:01:57.902Z</time>
      </trkpt>
      <trkpt lat="42.71326" lon="1.40252">
        <ele>1443</ele>
        <time>2025-06-12T14:02:12.044Z</time>
      </trkpt>
      <trkpt lat="42.71312" lon="1.40255">
        <ele>1438</ele>
        <time>2025-06-12T14:02:23.805Z</time>
      </trkpt>
      <trkpt lat="42.71303" lon="1.40261">
        <ele>1436</ele>
        <time>2025-06-12T14:02:32.432Z</time>
      </trkpt>
      <trkpt lat="42.71291" lon="1.40261">
        <ele>1430</ele>
        <time>2025-06-12T14:02:42.400Z</time>
      </trkpt>
      <trkpt lat="42.71284" lon="1.40264">
        <ele>1427</ele>
        <time>2025-06-12T14:02:48.639Z</time>
      </trkpt>
      <trkpt lat="42.71274" lon="1.40268">
        <ele>1425</ele>
        <time>2025-06-12T14:02:56.755Z</time>
      </trkpt>
      <trkpt lat="42.71262" lon="1.40274">
        <ele>1423</ele>
        <time>2025-06-12T14:03:07.373Z</time>
      </trkpt>
      <trkpt lat="42.7125" lon="1.40283">
        <ele>1421</ele>
        <time>2025-06-12T14:03:19.292Z</time>
      </trkpt>
      <trkpt lat="42.71245" lon="1.40285">
        <ele>1420</ele>
        <time>2025-06-12T14:03:23.464Z</time>
      </trkpt>
      <trkpt lat="42.71245" lon="1.40285">
        <ele>1420</ele>
        <time>2025-06-12T14:03:23.464Z</time>
      </trkpt>
      <trkpt lat="42.71237" lon="1.40291">
        <ele>1418</ele>
        <time>2025-06-12T14:03:31.398Z</time>
      </trkpt>
      <trkpt lat="42.71218" lon="1.40315">
        <ele>1420</ele>
        <time>2025-06-12T14:04:03.442Z</time>
      </trkpt>
      <trkpt lat="42.71211" lon="1.40319">
        <ele>1419</ele>
        <time>2025-06-12T14:04:09.398Z</time>
      </trkpt>
      <trkpt lat="42.71203" lon="1.40327">
        <ele>1418</ele>
        <time>2025-06-12T14:04:17.714Z</time>
      </trkpt>
      <trkpt lat="42.71192" lon="1.40335">
        <ele>1416</ele>
        <time>2025-06-12T14:04:27.896Z</time>
      </trkpt>
      <trkpt lat="42.71178" lon="1.40348">
        <ele>1415</ele>
        <time>2025-06-12T14:04:42.543Z</time>
      </trkpt>
      <trkpt lat="42.71176" lon="1.40349">
        <ele>1414</ele>
        <time>2025-06-12T14:04:44.289Z</time>
      </trkpt>
      <trkpt lat="42.71171" lon="1.40358">
        <ele>1415</ele>
        <time>2025-06-12T14:04:56.288Z</time>
      </trkpt>
      <trkpt lat="42.71165" lon="1.40361">
        <ele>1413</ele>
        <time>2025-06-12T14:05:01.502Z</time>
      </trkpt>
      <trkpt lat="42.71162" lon="1.40366">
        <ele>1414</ele>
        <time>2025-06-12T14:05:11.069Z</time>
      </trkpt>
      <trkpt lat="42.71159" lon="1.40369">
        <ele>1413</ele>
        <time>2025-06-12T14:05:14.294Z</time>
      </trkpt>
      <trkpt lat="42.71149" lon="1.40382">
        <ele>1413</ele>
        <time>2025-06-12T14:05:27.661Z</time>
      </trkpt>
      <trkpt lat="42.71148" lon="1.40387">
        <ele>1414</ele>
        <time>2025-06-12T14:05:37.237Z</time>
      </trkpt>
      <trkpt lat="42.71153" lon="1.40391">
        <ele>1418</ele>
        <time>2025-06-12T14:06:03.905Z</time>
      </trkpt>
      <trkpt lat="42.71145" lon="1.40399">
        <ele>1417</ele>
        <time>2025-06-12T14:06:12.456Z</time>
      </trkpt>
      <trkpt lat="42.71145" lon="1.40408">
        <ele>1419</ele>
        <time>2025-06-12T14:06:32.367Z</time>
      </trkpt>
      <trkpt lat="42.71142" lon="1.4041">
        <ele>1418</ele>
        <time>2025-06-12T14:06:35.665Z</time>
      </trkpt>
      <trkpt lat="42.7114" lon="1.40424">
        <ele>1421</ele>
        <time>2025-06-12T14:07:04.571Z</time>
      </trkpt>
      <trkpt lat="42.71135" lon="1.40451">
        <ele>1425</ele>
        <time>2025-06-12T14:07:43.218Z</time>
      </trkpt>
      <trkpt lat="42.7113" lon="1.40459">
        <ele>1424</ele>
        <time>2025-06-12T14:07:49.894Z</time>
      </trkpt>
      <trkpt lat="42.71124" lon="1.40469">
        <ele>1423</ele>
        <time>2025-06-12T14:07:57.383Z</time>
      </trkpt>
      <trkpt lat="42.71124" lon="1.4048">
        <ele>1425</ele>
        <time>2025-06-12T14:08:16.221Z</time>
      </trkpt>
      <trkpt lat="42.71121" lon="1.40494">
        <ele>1425</ele>
        <time>2025-06-12T14:08:26.229Z</time>
      </trkpt>
      <trkpt lat="42.71116" lon="1.40515">
        <ele>1425</ele>
        <time>2025-06-12T14:08:41.469Z</time>
      </trkpt>
      <trkpt lat="42.71116" lon="1.40531">
        <ele>1425</ele>
        <time>2025-06-12T14:08:52.808Z</time>
      </trkpt>
      <trkpt lat="42.71119" lon="1.40549">
        <ele>1428</ele>
        <time>2025-06-12T14:09:21.209Z</time>
      </trkpt>
      <trkpt lat="42.71116" lon="1.4057">
        <ele>1426</ele>
        <time>2025-06-12T14:09:34.634Z</time>
      </trkpt>
      <trkpt lat="42.7112" lon="1.40602">
        <ele>1425</ele>
        <time>2025-06-12T14:09:54.404Z</time>
      </trkpt>
      <trkpt lat="42.71119" lon="1.40619">
        <ele>1423</ele>
        <time>2025-06-12T14:10:04.883Z</time>
      </trkpt>
      <trkpt lat="42.71118" lon="1.40636">
        <ele>1419</ele>
        <time>2025-06-12T14:10:15.403Z</time>
      </trkpt>
      <trkpt lat="42.71134" lon="1.40707">
        <ele>1416</ele>
        <time>2025-06-12T14:11:01.235Z</time>
      </trkpt>
      <trkpt lat="42.71136" lon="1.40725">
        <ele>1413</ele>
        <time>2025-06-12T14:11:12.306Z</time>
      </trkpt>
      <trkpt lat="42.71139" lon="1.40733">
        <ele>1413</ele>
        <time>2025-06-12T14:11:18.882Z</time>
      </trkpt>
      <trkpt lat="42.71148" lon="1.40747">
        <ele>1416</ele>
        <time>2025-06-12T14:11:47.413Z</time>
      </trkpt>
      <trkpt lat="42.71167" lon="1.4078">
        <ele>1418</ele>
        <time>2025-06-12T14:12:23.891Z</time>
      </trkpt>
      <trkpt lat="42.71176" lon="1.40801">
        <ele>1417</ele>
        <time>2025-06-12T14:12:38.527Z</time>
      </trkpt>
      <trkpt lat="42.7118" lon="1.40812">
        <ele>1416</ele>
        <time>2025-06-12T14:12:45.878Z</time>
      </trkpt>
      <trkpt lat="42.71189" lon="1.40826">
        <ele>1417</ele>
        <time>2025-06-12T14:13:02.826Z</time>
      </trkpt>
      <trkpt lat="42.71194" lon="1.40839">
        <ele>1417</ele>
        <time>2025-06-12T14:13:13.038Z</time>
      </trkpt>
      <trkpt lat="42.712" lon="1.40856">
        <ele>1415</ele>
        <time>2025-06-12T14:13:24.404Z</time>
      </trkpt>
      <trkpt lat="42.71208" lon="1.40873">
        <ele>1416</ele>
        <time>2025-06-12T14:13:42.402Z</time>
      </trkpt>
      <trkpt lat="42.71213" lon="1.40884">
        <ele>1416</ele>
        <time>2025-06-12T14:13:51.171Z</time>
      </trkpt>
      <trkpt lat="42.71218" lon="1.40899">
        <ele>1417</ele>
        <time>2025-06-12T14:14:06.572Z</time>
      </trkpt>
      <trkpt lat="42.71224" lon="1.40911">
        <ele>1418</ele>
        <time>2025-06-12T14:14:20.280Z</time>
      </trkpt>
      <trkpt lat="42.71225" lon="1.40916">
        <ele>1418</ele>
        <time>2025-06-12T14:14:24.211Z</time>
      </trkpt>
      <trkpt lat="42.71227" lon="1.40924">
        <ele>1417</ele>
        <time>2025-06-12T14:14:29.313Z</time>
      </trkpt>
      <trkpt lat="42.71231" lon="1.40939">
        <ele>1417</ele>
        <time>2025-06-12T14:14:40.941Z</time>
      </trkpt>
      <trkpt lat="42.71236" lon="1.4096">
        <ele>1416</ele>
        <time>2025-06-12T14:14:54.193Z</time>
      </trkpt>
      <trkpt lat="42.71237" lon="1.40968">
        <ele>1415</ele>
        <time>2025-06-12T14:14:59.273Z</time>
      </trkpt>
      <trkpt lat="42.71243" lon="1.40982">
        <ele>1417</ele>
        <time>2025-06-12T14:15:19.497Z</time>
      </trkpt>
      <trkpt lat="42.71249" lon="1.4099">
        <ele>1421</ele>
        <time>2025-06-12T14:15:59.274Z</time>
      </trkpt>
      <trkpt lat="42.71256" lon="1.41001">
        <ele>1428</ele>
        <time>2025-06-12T14:16:57.952Z</time>
      </trkpt>
      <trkpt lat="42.71257" lon="1.41009">
        <ele>1429</ele>
        <time>2025-06-12T14:17:07.768Z</time>
      </trkpt>
      <trkpt lat="42.71256" lon="1.41017">
        <ele>1429</ele>
        <time>2025-06-12T14:17:13.553Z</time>
      </trkpt>
      <trkpt lat="42.71252" lon="1.41021">
        <ele>1426</ele>
        <time>2025-06-12T14:17:17.876Z</time>
      </trkpt>
      <trkpt lat="42.71242" lon="1.41032">
        <ele>1420</ele>
        <time>2025-06-12T14:17:28.465Z</time>
      </trkpt>
      <trkpt lat="42.71238" lon="1.41053">
        <ele>1419</ele>
        <time>2025-06-12T14:17:41.579Z</time>
      </trkpt>
      <trkpt lat="42.71235" lon="1.41081">
        <ele>1415</ele>
        <time>2025-06-12T14:17:59.498Z</time>
      </trkpt>
      <trkpt lat="42.71241" lon="1.41128">
        <ele>1410</ele>
        <time>2025-06-12T14:18:28.521Z</time>
      </trkpt>
      <trkpt lat="42.71247" lon="1.4116">
        <ele>1410</ele>
        <time>2025-06-12T14:18:52.000Z</time>
      </trkpt>
      <trkpt lat="42.71258" lon="1.41167">
        <ele>1418</ele>
        <time>2025-06-12T14:19:56.172Z</time>
      </trkpt>
      <trkpt lat="42.71267" lon="1.41174">
        <ele>1424</ele>
        <time>2025-06-12T14:20:46.725Z</time>
      </trkpt>
      <trkpt lat="42.71268" lon="1.41179">
        <ele>1425</ele>
        <time>2025-06-12T14:20:56.138Z</time>
      </trkpt>
      <trkpt lat="42.71268" lon="1.41185">
        <ele>1425</ele>
        <time>2025-06-12T14:20:59.866Z</time>
      </trkpt>
      <trkpt lat="42.7127" lon="1.41188">
        <ele>1427</ele>
        <time>2025-06-12T14:21:15.011Z</time>
      </trkpt>
      <trkpt lat="42.71269" lon="1.41194">
        <ele>1429</ele>
        <time>2025-06-12T14:21:34.896Z</time>
      </trkpt>
      <trkpt lat="42.71265" lon="1.41198">
        <ele>1429</ele>
        <time>2025-06-12T14:21:39.791Z</time>
      </trkpt>
      <trkpt lat="42.71258" lon="1.412">
        <ele>1426</ele>
        <time>2025-06-12T14:21:45.429Z</time>
      </trkpt>
      <trkpt lat="42.71244" lon="1.41204">
        <ele>1419</ele>
        <time>2025-06-12T14:21:57.968Z</time>
      </trkpt>
      <trkpt lat="42.71226" lon="1.41232">
        <ele>1419</ele>
        <time>2025-06-12T14:22:23.958Z</time>
      </trkpt>
      <trkpt lat="42.71215" lon="1.41238">
        <ele>1413</ele>
        <time>2025-06-12T14:22:33.890Z</time>
      </trkpt>
      <trkpt lat="42.71202" lon="1.4125">
        <ele>1409</ele>
        <time>2025-06-12T14:22:47.396Z</time>
      </trkpt>
      <trkpt lat="42.71196" lon="1.4126">
        <ele>1408</ele>
        <time>2025-06-12T14:22:55.193Z</time>
      </trkpt>
      <trkpt lat="42.71191" lon="1.41279">
        <ele>1408</ele>
        <time>2025-06-12T14:23:09.198Z</time>
      </trkpt>
      <trkpt lat="42.71185" lon="1.41293">
        <ele>1405</ele>
        <time>2025-06-12T14:23:19.386Z</time>
      </trkpt>
      <trkpt lat="42.71182" lon="1.41318">
        <ele>1404</ele>
        <time>2025-06-12T14:23:34.535Z</time>
      </trkpt>
      <trkpt lat="42.71174" lon="1.41338">
        <ele>1400</ele>
        <time>2025-06-12T14:23:48.891Z</time>
      </trkpt>
      <trkpt lat="42.71173" lon="1.41368">
        <ele>1401</ele>
        <time>2025-06-12T14:24:13.013Z</time>
      </trkpt>
      <trkpt lat="42.71167" lon="1.41408">
        <ele>1399</ele>
        <time>2025-06-12T14:24:38.332Z</time>
      </trkpt>
      <trkpt lat="42.71163" lon="1.41428">
        <ele>1397</ele>
        <time>2025-06-12T14:24:50.971Z</time>
      </trkpt>
      <trkpt lat="42.7115" lon="1.41464">
        <ele>1390</ele>
        <time>2025-06-12T14:25:15.678Z</time>
      </trkpt>
      <trkpt lat="42.71146" lon="1.41483">
        <ele>1387</ele>
        <time>2025-06-12T14:25:27.932Z</time>
      </trkpt>
      <trkpt lat="42.71144" lon="1.41504">
        <ele>1385</ele>
        <time>2025-06-12T14:25:41.210Z</time>
      </trkpt>
      <trkpt lat="42.71151" lon="1.41527">
        <ele>1388</ele>
        <time>2025-06-12T14:26:11.558Z</time>
      </trkpt>
      <trkpt lat="42.7115" lon="1.4154">
        <ele>1385</ele>
        <time>2025-06-12T14:26:19.826Z</time>
      </trkpt>
      <trkpt lat="42.71147" lon="1.41557">
        <ele>1381</ele>
        <time>2025-06-12T14:26:30.173Z</time>
      </trkpt>
      <trkpt lat="42.71151" lon="1.41574">
        <ele>1381</ele>
        <time>2025-06-12T14:26:42.982Z</time>
      </trkpt>
      <trkpt lat="42.71157" lon="1.41592">
        <ele>1382</ele>
        <time>2025-06-12T14:27:00.268Z</time>
      </trkpt>
      <trkpt lat="42.71152" lon="1.41602">
        <ele>1377</ele>
        <time>2025-06-12T14:27:08.312Z</time>
      </trkpt>
      <trkpt lat="42.71146" lon="1.4162">
        <ele>1371</ele>
        <time>2025-06-12T14:27:20.694Z</time>
      </trkpt>
      <trkpt lat="42.71148" lon="1.41663">
        <ele>1368</ele>
        <time>2025-06-12T14:27:47.212Z</time>
      </trkpt>
      <trkpt lat="42.71145" lon="1.41697">
        <ele>1365</ele>
        <time>2025-06-12T14:28:07.823Z</time>
      </trkpt>
      <trkpt lat="42.71138" lon="1.41723">
        <ele>1362</ele>
        <time>2025-06-12T14:28:24.953Z</time>
      </trkpt>
      <trkpt lat="42.71126" lon="1.41745">
        <ele>1357</ele>
        <time>2025-06-12T14:28:41.680Z</time>
      </trkpt>
      <trkpt lat="42.71108" lon="1.41815">
        <ele>1345</ele>
        <time>2025-06-12T14:29:27.466Z</time>
      </trkpt>
      <trkpt lat="42.7109" lon="1.41866">
        <ele>1332</ele>
        <time>2025-06-12T14:30:01.828Z</time>
      </trkpt>
      <trkpt lat="42.71077" lon="1.41893">
        <ele>1321</ele>
        <time>2025-06-12T14:30:21.788Z</time>
      </trkpt>
      <trkpt lat="42.71071" lon="1.41909">
        <ele>1316</ele>
        <time>2025-06-12T14:30:32.954Z</time>
      </trkpt>
      <trkpt lat="42.7107" lon="1.41937">
        <ele>1312</ele>
        <time>2025-06-12T14:30:50.099Z</time>
      </trkpt>
      <trkpt lat="42.71068" lon="1.41956">
        <ele>1309</ele>
        <time>2025-06-12T14:31:02.400Z</time>
      </trkpt>
      <trkpt lat="42.71061" lon="1.41977">
        <ele>1302</ele>
        <time>2025-06-12T14:31:16.255Z</time>
      </trkpt>
      <trkpt lat="42.71054" lon="1.42002">
        <ele>1296</ele>
        <time>2025-06-12T14:31:32.843Z</time>
      </trkpt>
      <trkpt lat="42.71041" lon="1.42047">
        <ele>1287</ele>
        <time>2025-06-12T14:32:02.453Z</time>
      </trkpt>
      <trkpt lat="42.71035" lon="1.42091">
        <ele>1277</ele>
        <time>2025-06-12T14:32:30.093Z</time>
      </trkpt>
      <trkpt lat="42.71035" lon="1.42114">
        <ele>1272</ele>
        <time>2025-06-12T14:32:44.496Z</time>
      </trkpt>
      <trkpt lat="42.71035" lon="1.42132">
        <ele>1268</ele>
        <time>2025-06-12T14:32:55.020Z</time>
      </trkpt>
      <trkpt lat="42.71033" lon="1.42141">
        <ele>1264</ele>
        <time>2025-06-12T14:33:01.340Z</time>
      </trkpt>
      <trkpt lat="42.71027" lon="1.42158">
        <ele>1256</ele>
        <time>2025-06-12T14:33:12.413Z</time>
      </trkpt>
      <trkpt lat="42.71023" lon="1.42167">
        <ele>1251</ele>
        <time>2025-06-12T14:33:19.104Z</time>
      </trkpt>
      <trkpt lat="42.71021" lon="1.42185">
        <ele>1246</ele>
        <time>2025-06-12T14:33:30.309Z</time>
      </trkpt>
      <trkpt lat="42.71021" lon="1.42203">
        <ele>1241</ele>
        <time>2025-06-12T14:33:41.337Z</time>
      </trkpt>
      <trkpt lat="42.71012" lon="1.42214">
        <ele>1234</ele>
        <time>2025-06-12T14:33:51.578Z</time>
      </trkpt>
      <trkpt lat="42.71008" lon="1.42219">
        <ele>1231</ele>
        <time>2025-06-12T14:33:55.854Z</time>
      </trkpt>
      <trkpt lat="42.71007" lon="1.42225">
        <ele>1228</ele>
        <time>2025-06-12T14:33:59.351Z</time>
      </trkpt>
      <trkpt lat="42.71005" lon="1.42239">
        <ele>1223</ele>
        <time>2025-06-12T14:34:08.432Z</time>
      </trkpt>
      <trkpt lat="42.71004" lon="1.42254">
        <ele>1218</ele>
        <time>2025-06-12T14:34:17.300Z</time>
      </trkpt>
      <trkpt lat="42.71004" lon="1.42271">
        <ele>1214</ele>
        <time>2025-06-12T14:34:27.841Z</time>
      </trkpt>
      <trkpt lat="42.71006" lon="1.42281">
        <ele>1212</ele>
        <time>2025-06-12T14:34:34.161Z</time>
      </trkpt>
      <trkpt lat="42.7101" lon="1.42294">
        <ele>1210</ele>
        <time>2025-06-12T14:34:43.032Z</time>
      </trkpt>
      <trkpt lat="42.71014" lon="1.42303">
        <ele>1209</ele>
        <time>2025-06-12T14:34:49.506Z</time>
      </trkpt>
      <trkpt lat="42.71018" lon="1.42308">
        <ele>1209</ele>
        <time>2025-06-12T14:34:54.832Z</time>
      </trkpt>
      <trkpt lat="42.71004" lon="1.42304">
        <ele>1204</ele>
        <time>2025-06-12T14:35:07.289Z</time>
      </trkpt>
      <trkpt lat="42.70995" lon="1.42296">
        <ele>1202</ele>
        <time>2025-06-12T14:35:16.015Z</time>
      </trkpt>
      <trkpt lat="42.70985" lon="1.42262">
        <ele>1204</ele>
        <time>2025-06-12T14:35:49.051Z</time>
      </trkpt>
      <trkpt lat="42.70984" lon="1.42223">
        <ele>1211</ele>
        <time>2025-06-12T14:36:54.878Z</time>
      </trkpt>
      <trkpt lat="42.70969" lon="1.42183">
        <ele>1206</ele>
        <time>2025-06-12T14:37:22.552Z</time>
      </trkpt>
      <trkpt lat="42.70963" lon="1.42136">
        <ele>1207</ele>
        <time>2025-06-12T14:37:59.211Z</time>
      </trkpt>
      <trkpt lat="42.70945" lon="1.42111">
        <ele>1203</ele>
        <time>2025-06-12T14:38:20.739Z</time>
      </trkpt>
      <trkpt lat="42.70938" lon="1.42094">
        <ele>1203</ele>
        <time>2025-06-12T14:38:34.219Z</time>
      </trkpt>
      <trkpt lat="42.70932" lon="1.42087">
        <ele>1202</ele>
        <time>2025-06-12T14:38:40.961Z</time>
      </trkpt>
      <trkpt lat="42.70933" lon="1.42103">
        <ele>1197</ele>
        <time>2025-06-12T14:38:51.010Z</time>
      </trkpt>
      <trkpt lat="42.70936" lon="1.42112">
        <ele>1197</ele>
        <time>2025-06-12T14:38:57.682Z</time>
      </trkpt>
      <trkpt lat="42.70939" lon="1.4212">
        <ele>1197</ele>
        <time>2025-06-12T14:39:04.259Z</time>
      </trkpt>
      <trkpt lat="42.70942" lon="1.42132">
        <ele>1196</ele>
        <time>2025-06-12T14:39:12.337Z</time>
      </trkpt>
      <trkpt lat="42.70943" lon="1.42149">
        <ele>1194</ele>
        <time>2025-06-12T14:39:22.857Z</time>
      </trkpt>
      <trkpt lat="42.70946" lon="1.42161">
        <ele>1194</ele>
        <time>2025-06-12T14:39:31.455Z</time>
      </trkpt>
      <trkpt lat="42.7095" lon="1.42176">
        <ele>1194</ele>
        <time>2025-06-12T14:39:42.284Z</time>
      </trkpt>
      <trkpt lat="42.70952" lon="1.42185">
        <ele>1194</ele>
        <time>2025-06-12T14:39:49.679Z</time>
      </trkpt>
      <trkpt lat="42.70954" lon="1.42193">
        <ele>1194</ele>
        <time>2025-06-12T14:39:55.623Z</time>
      </trkpt>
      <trkpt lat="42.70955" lon="1.42202">
        <ele>1194</ele>
        <time>2025-06-12T14:40:01.455Z</time>
      </trkpt>
      <trkpt lat="42.70953" lon="1.42207">
        <ele>1193</ele>
        <time>2025-06-12T14:40:05.232Z</time>
      </trkpt>
      <trkpt lat="42.70953" lon="1.42214">
        <ele>1193</ele>
        <time>2025-06-12T14:40:10.227Z</time>
      </trkpt>
      <trkpt lat="42.70953" lon="1.42221">
        <ele>1192</ele>
        <time>2025-06-12T14:40:14.658Z</time>
      </trkpt>
      <trkpt lat="42.70961" lon="1.42255">
        <ele>1192</ele>
        <time>2025-06-12T14:40:39.809Z</time>
      </trkpt>
      <trkpt lat="42.70961" lon="1.42264">
        <ele>1191</ele>
        <time>2025-06-12T14:40:45.348Z</time>
      </trkpt>
      <trkpt lat="42.70962" lon="1.42285">
        <ele>1189</ele>
        <time>2025-06-12T14:40:58.041Z</time>
      </trkpt>
      <trkpt lat="42.70962" lon="1.42302">
        <ele>1187</ele>
        <time>2025-06-12T14:41:08.628Z</time>
      </trkpt>
      <trkpt lat="42.70964" lon="1.42317">
        <ele>1186</ele>
        <time>2025-06-12T14:41:18.071Z</time>
      </trkpt>
      <trkpt lat="42.70967" lon="1.42325">
        <ele>1186</ele>
        <time>2025-06-12T14:41:23.778Z</time>
      </trkpt>
      <trkpt lat="42.70973" lon="1.42339">
        <ele>1185</ele>
        <time>2025-06-12T14:41:33.913Z</time>
      </trkpt>
      <trkpt lat="42.70978" lon="1.42348">
        <ele>1185</ele>
        <time>2025-06-12T14:41:41.966Z</time>
      </trkpt>
      <trkpt lat="42.70981" lon="1.42355">
        <ele>1185</ele>
        <time>2025-06-12T14:41:47.995Z</time>
      </trkpt>
      <trkpt lat="42.70983" lon="1.42365">
        <ele>1185</ele>
        <time>2025-06-12T14:41:55.082Z</time>
      </trkpt>
      <trkpt lat="42.70983" lon="1.42374">
        <ele>1184</ele>
        <time>2025-06-12T14:42:00.621Z</time>
      </trkpt>
      <trkpt lat="42.70986" lon="1.42387">
        <ele>1183</ele>
        <time>2025-06-12T14:42:08.700Z</time>
      </trkpt>
      <trkpt lat="42.70988" lon="1.42396">
        <ele>1183</ele>
        <time>2025-06-12T14:42:15.502Z</time>
      </trkpt>
      <trkpt lat="42.71002" lon="1.42442">
        <ele>1182</ele>
        <time>2025-06-12T14:42:48.126Z</time>
      </trkpt>
      <trkpt lat="42.71005" lon="1.42458">
        <ele>1180</ele>
        <time>2025-06-12T14:42:57.811Z</time>
      </trkpt>
      <trkpt lat="42.71006" lon="1.42467">
        <ele>1179</ele>
        <time>2025-06-12T14:43:03.473Z</time>
      </trkpt>
      <trkpt lat="42.71008" lon="1.42471">
        <ele>1179</ele>
        <time>2025-06-12T14:43:07.124Z</time>
      </trkpt>
      <trkpt lat="42.71012" lon="1.42474">
        <ele>1180</ele>
        <time>2025-06-12T14:43:16.572Z</time>
      </trkpt>
      <trkpt lat="42.71018" lon="1.42487">
        <ele>1180</ele>
        <time>2025-06-12T14:43:27.560Z</time>
      </trkpt>
      <trkpt lat="42.71024" lon="1.42491">
        <ele>1182</ele>
        <time>2025-06-12T14:43:47.006Z</time>
      </trkpt>
      <trkpt lat="42.71031" lon="1.42504">
        <ele>1181</ele>
        <time>2025-06-12T14:43:57.372Z</time>
      </trkpt>
      <trkpt lat="42.71031" lon="1.42509">
        <ele>1181</ele>
        <time>2025-06-12T14:44:00.520Z</time>
      </trkpt>
      <trkpt lat="42.71031" lon="1.42512">
        <ele>1180</ele>
        <time>2025-06-12T14:44:02.792Z</time>
      </trkpt>
      <trkpt lat="42.71033" lon="1.42517">
        <ele>1180</ele>
        <time>2025-06-12T14:44:06.491Z</time>
      </trkpt>
      <trkpt lat="42.71041" lon="1.42527">
        <ele>1182</ele>
        <time>2025-06-12T14:44:25.838Z</time>
      </trkpt>
      <trkpt lat="42.71039" lon="1.42529">
        <ele>1180</ele>
        <time>2025-06-12T14:44:28.139Z</time>
      </trkpt>
      <trkpt lat="42.71032" lon="1.42532">
        <ele>1177</ele>
        <time>2025-06-12T14:44:33.912Z</time>
      </trkpt>
      <trkpt lat="42.71032" lon="1.42539">
        <ele>1176</ele>
        <time>2025-06-12T14:44:38.344Z</time>
      </trkpt>
      <trkpt lat="42.71027" lon="1.42547">
        <ele>1173</ele>
        <time>2025-06-12T14:44:44.596Z</time>
      </trkpt>
      <trkpt lat="42.71023" lon="1.42552">
        <ele>1172</ele>
        <time>2025-06-12T14:44:49.377Z</time>
      </trkpt>
      <trkpt lat="42.7102" lon="1.4256">
        <ele>1170</ele>
        <time>2025-06-12T14:44:54.796Z</time>
      </trkpt>
      <trkpt lat="42.71018" lon="1.42561">
        <ele>1170</ele>
        <time>2025-06-12T14:44:57.382Z</time>
      </trkpt>
      <trkpt lat="42.71015" lon="1.42563">
        <ele>1169</ele>
        <time>2025-06-12T14:44:59.798Z</time>
      </trkpt>
      <trkpt lat="42.71013" lon="1.42564">
        <ele>1169</ele>
        <time>2025-06-12T14:45:02.174Z</time>
      </trkpt>
      <trkpt lat="42.71012" lon="1.42568">
        <ele>1168</ele>
        <time>2025-06-12T14:45:04.446Z</time>
      </trkpt>
      <trkpt lat="42.71012" lon="1.42573">
        <ele>1168</ele>
        <time>2025-06-12T14:45:07.682Z</time>
      </trkpt>
      <trkpt lat="42.71014" lon="1.42575">
        <ele>1168</ele>
        <time>2025-06-12T14:45:09.894Z</time>
      </trkpt>
      <trkpt lat="42.71018" lon="1.42605">
        <ele>1166</ele>
        <time>2025-06-12T14:45:28.576Z</time>
      </trkpt>
    </trkseg>
  </trk>
</gpx>